GFSWCAN_250_rhum_000.txt.gz
RH
10 22 17 7 6 5 4 3 4 4 3 6 8 10 10 13 16 22 31 57 52 73 82 98 100 100 100 100 100 100 99 100 97 98 95 81 67 67 61 77 65 84 72 67 88 70 60 49 41 46 52 51 44 46
12 24 16 6 6 5 4 3 3 4 4 5 8 8 10 14 22 25 45 56 56 76 76 100 100 100 100 100 100 100 95 100 96 78 74 80 70 54 52 69 77 82 93 86 70 69 68 60 52 48 44 40 35 30
14 25 15 7 6 5 3 3 3 3 3 6 7 6 11 20 27 32 46 54 62 72 82 100 100 100 100 91 88 98 99 97 100 86 73 73 63 48 47 49 50 60 61 57 53 52 49 50 48 43 36 29 29 26
15 27 16 6 6 4 3 3 3 4 3 6 7 5 12 21 29 36 45 50 75 84 92 96 100 100 100 95 90 100 96 85 99 100 77 61 55 40 34 36 43 48 46 39 33 40 40 37 35 34 31 29 29 29
18 26 16 7 6 4 3 3 3 3 3 6 7 5 14 22 30 39 46 55 81 94 88 95 99 92 92 100 94 99 100 75 95 100 98 71 63 49 33 30 32 36 43 35 41 35 31 28 26 27 28 25 23 23
20 26 19 8 6 4 3 3 3 3 2 6 6 5 11 22 28 38 49 61 79 89 93 93 96 81 92 100 100 78 90 80 84 88 100 95 91 86 88 48 42 29 29 35 39 33 29 25 24 23 22 23 24 24
21 27 22 8 6 4 3 3 3 3 2 4 6 4 13 22 26 37 54 65 84 89 86 94 91 81 90 99 100 94 79 96 86 82 88 98 100 90 90 95 100 80 82 66 51 50 52 48 39 34 30 27 24 24
23 27 23 10 6 4 3 3 4 3 1 4 6 4 14 21 31 47 57 61 81 94 79 86 89 80 97 100 98 98 79 86 100 92 82 99 98 90 86 86 95 92 83 82 76 75 75 76 77 76 76 78 77 72
24 29 24 12 8 4 3 3 4 3 2 4 6 6 15 23 33 49 57 63 69 83 79 76 82 84 100 100 94 88 99 93 95 100 97 99 100 95 86 96 100 100 100 96 94 89 84 78 74 75 76 75 73 72
25 30 26 13 9 5 3 4 4 2 3 4 5 4 14 25 40 57 58 60 72 94 90 78 79 84 87 100 93 81 89 96 83 80 88 85 98 100 97 91 95 100 100 91 95 97 88 81 78 76 70 65 65 60
29 29 26 16 9 6 4 4 4 2 3 4 4 4 13 24 30 50 56 59 70 92 100 99 90 88 86 97 93 88 94 99 97 89 98 100 96 89 99 91 95 93 84 98 89 100 100 99 94 90 76 79 64 65
32 30 25 17 9 6 4 4 5 1 1 5 5 5 8 18 20 26 37 56 72 99 100 100 100 100 100 92 87 84 90 98 100 100 100 100 100 99 100 100 100 98 91 91 98 89 95 98 91 80 79 77 72 68
34 32 27 16 9 7 4 4 6 2 4 5 6 4 4 10 14 12 26 57 82 100 100 100 100 100 100 95 89 77 78 100 100 100 100 100 100 95 87 96 85 81 87 87 91 82 84 92 78 80 73 71 74 78
38 36 33 18 10 8 4 4 6 5 5 6 6 5 4 6 11 18 65 94 100 100 100 100 100 100 98 86 86 85 75 83 100 100 100 100 96 99 98 97 79 65 67 65 67 80 83 88 90 93 82 72 75 89
41 40 41 25 12 9 6 4 5 6 6 6 6 6 5 6 14 27 64 98 100 100 100 100 90 84 86 91 92 89 90 85 100 98 85 91 86 94 100 100 95 93 82 71 64 66 68 67 71 71 67 66 72 92
48 45 46 32 21 11 8 5 4 6 6 6 7 7 6 7 14 36 58 92 99 100 100 90 89 85 76 90 99 95 97 100 100 90 82 84 92 96 100 100 100 99 82 77 68 63 60 60 62 59 58 67 86 90
47 55 53 38 29 15 10 7 6 5 7 8 7 7 7 8 13 39 57 64 90 95 95 91 86 94 84 73 89 100 100 100 100 100 90 78 90 100 100 100 100 100 97 90 78 69 65 64 62 60 71 84 92 96
50 55 58 46 30 22 13 10 7 6 7 8 8 9 9 9 10 28 58 48 69 90 92 93 88 88 91 87 84 96 98 100 100 100 100 94 97 100 100 100 100 100 100 98 96 96 94 92 95 99 99 100 98 91
50 54 58 51 32 21 18 13 10 7 5 8 8 10 11 10 11 14 43 58 60 87 93 89 88 98 98 92 85 80 88 95 100 100 93 90 96 94 90 91 100 99 94 95 99 100 100 100 99 96 90 86 86 90
49 56 62 50 34 20 16 15 12 8 6 6 8 8 10 12 11 13 19 43 66 69 88 93 90 100 100 93 84 76 77 80 97 100 100 97 100 95 91 89 92 96 98 96 91 89 89 91 93 92 90 90 93 96
45 59 58 47 34 17 13 14 13 9 7 5 7 8 8 11 12 13 15 28 41 54 71 92 97 89 94 100 99 90 80 78 82 97 100 100 100 97 96 98 96 93 92 93 92 95 97 96 97 99 99 96 95 100
51 65 64 51 34 23 13 12 15 10 7 5 5 8 7 9 12 13 16 20 31 47 58 67 78 98 93 89 97 100 100 94 80 78 87 99 100 98 97 98 98 99 98 97 96 99 99 98 97 94 93 94 95 93
63 71 64 54 33 21 14 12 14 12 8 6 5 5 8 8 10 13 13 15 21 36 49 49 52 70 93 98 94 94 99 100 99 93 80 74 78 82 83 85 86 89 91 91 90 93 97 98 97 97 94 97 99 98
70 66 60 51 32 18 15 12 12 11 8 6 5 4 6 7 8 10 12 14 17 20 49 60 58 61 75 98 100 100 100 99 100 100 99 100 95 88 85 82 81 81 80 81 83 84 86 86 89 91 93 91 90 92
68 61 54 43 24 14 13 11 9 9 7 6 5 4 4 6 7 8 10 14 16 18 29 41 53 67 79 90 100 100 100 100 98 100 100 100 100 100 100 100 99 95 97 95 90 86 84 84 87 92 93 96 96 96
67 62 50 35 17 12 12 9 7 7 5 5 4 4 4 4 7 8 9 11 15 19 23 30 39 50 68 88 100 100 98 98 100 100 100 100 100 100 100 100 100 100 100 100 100 98 99 100 100 99 97 96 93 88
63 53 37 19 12 11 11 8 6 6 4 4 4 4 4 4 5 8 8 9 11 16 20 25 31 37 47 64 78 89 91 96 95 97 98 100 100 99 95 94 93 88 87 86 85 90 95 96 94 88 82 78 78 75
56 49 32 16 12 11 10 6 5 5 4 4 4 4 4 4 4 5 9 8 8 11 16 21 20 25 31 41 56 67 80 88 91 92 91 90 91 93 94 93 89 81 73 70 68 67 68 67 66 64 63 62 58 54
54 36 19 14 12 11 8 6 4 4 4 4 3 4 4 4 4 5 8 10 9 6 9 12 14 19 28 37 42 51 64 73 87 95 94 95 93 88 82 79 77 75 72 70 67 64 61 57 52 47 43 42 44 45
32 21 16 13 11 9 7 5 4 3 4 3 3 4 4 4 5 5 6 9 11 10 6 5 5 8 15 21 26 33 41 49 61 70 77 88 89 81 78 75 72 69 65 60 56 53 48 44 41 41 43 44 45 44
19 16 14 12 9 6 6 4 3 3 3 3 3 5 4 4 5 5 6 7 10 11 10 8 7 6 6 8 11 14 18 26 35 44 50 56 66 70 70 66 64 62 59 56 53 49 46 44 45 48 50 48 41 35
17 16 14 9 6 5 4 4 3 3 3 3 4 6 5 5 6 6 6 7 8 10 10 9 8 8 7 6 6 7 8 12 18 26 32 37 41 46 48 47 45 43 42 41 41 40 39 37 35 33 32 33 34 31
16 14 9 6 5 4 4 4 3 3 3 3 6 6 6 5 6 7 7 8 8 9 9 9 9 8 8 8 7 7 7 8 10 13 16 19 22 26 28 31 34 35 34 32 30 30 30 28 28 29 29 27 22 16

GFSWCAN_250_rhum_003.txt.gz
RH
12 11 10 9 15 9 6 6 4 3 4 3 5 7 9 11 13 15 21 24 30 44 79 93 81 81 93 94 92 83 91 99 77 69 100 100 93 100 100 94 92 78 83 77 70 79 84 74 72 73 69 63 65 55
11 11 10 12 18 10 6 6 4 4 4 4 5 6 9 11 13 15 18 20 28 52 81 78 80 89 97 88 92 94 98 100 99 100 83 73 62 74 99 100 98 97 87 93 84 78 80 88 86 77 69 60 66 64
12 10 9 15 19 11 6 6 4 4 4 4 4 7 10 11 12 19 18 29 33 61 75 78 88 89 94 85 100 96 96 100 100 98 96 98 94 74 72 74 81 88 100 100 98 85 76 83 96 94 79 67 64 66
11 10 9 18 22 10 8 5 4 4 5 4 4 7 9 12 14 28 26 35 47 55 76 75 86 92 97 97 100 100 99 95 100 100 94 70 60 58 72 91 85 80 82 95 100 95 94 93 77 60 52 49 45 42
11 11 8 22 24 10 8 6 4 4 5 5 4 6 7 11 17 27 34 35 45 65 77 79 82 87 90 95 100 100 100 100 100 98 98 94 76 53 44 47 48 52 58 77 87 79 72 60 50 39 38 38 34 29
11 11 8 27 25 12 6 6 4 4 4 4 4 5 7 9 17 27 39 43 53 67 75 84 94 88 72 97 100 99 99 100 100 95 91 86 90 58 37 30 28 29 33 53 66 65 49 35 26 25 26 28 30 30
11 12 7 27 27 12 6 6 4 4 4 4 4 3 6 9 20 30 62 66 59 73 77 82 95 94 73 92 100 93 89 99 100 100 89 79 96 67 50 37 33 31 35 44 45 46 42 38 32 28 26 24 24 25
12 11 8 27 31 14 5 6 4 4 4 4 4 3 6 12 22 37 55 50 51 73 72 82 96 93 76 86 99 87 94 100 100 98 93 93 98 91 74 64 59 56 62 78 86 89 97 97 95 81 68 57 48 46
12 13 7 26 34 16 6 5 4 4 4 3 3 3 7 12 23 31 43 47 56 69 81 92 94 78 69 89 95 81 83 100 100 100 98 84 99 94 99 95 92 84 95 100 97 96 98 92 83 81 76 74 69 69
14 13 8 24 35 20 7 5 4 4 5 2 2 2 6 10 22 28 32 43 56 69 86 93 100 86 61 74 94 84 82 100 100 100 100 96 74 80 88 99 100 95 100 100 98 95 89 87 85 82 77 74 78 77
15 15 9 23 36 23 9 6 4 4 5 1 2 3 6 8 20 22 26 39 54 78 88 86 100 96 75 65 76 78 96 96 96 99 100 89 87 91 85 82 98 100 100 100 100 100 100 100 100 100 99 99 98 84
17 16 10 22 35 27 13 7 5 4 5 1 1 4 5 5 11 21 22 34 64 96 93 91 93 96 85 76 73 69 84 98 96 92 93 91 81 100 100 100 100 100 100 100 100 92 98 100 94 96 100 98 99 95
20 16 12 20 34 31 20 10 6 4 6 4 2 3 5 5 7 13 21 44 88 97 91 88 95 100 97 92 90 71 72 94 94 95 99 89 76 85 89 92 90 89 93 98 100 100 94 97 99 99 100 100 100 100
19 16 11 21 34 35 28 13 8 5 6 7 6 4 5 6 5 16 24 55 77 84 79 77 85 87 94 91 92 89 86 88 100 100 88 92 94 98 100 100 100 97 84 79 81 80 78 79 85 85 71 68 77 78
20 17 12 22 36 38 32 18 12 8 5 8 7 7 6 7 8 18 28 53 91 89 91 82 84 88 85 84 85 89 95 91 100 86 88 81 80 87 92 97 100 100 100 100 100 100 96 85 74 64 60 59 60 62
20 17 13 22 38 41 41 24 13 12 6 7 8 8 7 8 8 11 20 38 79 99 97 88 85 88 85 80 82 89 100 100 96 81 79 80 79 84 75 79 87 93 96 93 98 100 100 92 84 84 84 81 77 72
20 19 14 25 38 43 49 34 15 13 11 6 8 9 8 9 10 7 16 34 62 79 86 89 79 82 84 82 89 88 100 94 78 77 75 75 76 82 83 86 86 89 90 91 93 100 100 100 94 81 73 70 70 71
19 19 15 33 42 47 54 50 22 14 13 11 7 9 10 8 8 7 7 24 39 77 83 86 89 87 88 84 100 100 83 66 72 69 72 75 76 77 78 76 75 91 98 100 100 100 98 94 97 100 98 94 94 96
18 20 17 43 46 44 63 64 45 22 14 14 10 7 10 10 7 6 5 10 40 55 77 83 94 99 100 100 91 88 86 84 81 70 69 71 71 72 73 78 84 90 96 100 100 99 98 100 100 100 100 100 100 100
19 19 24 48 51 50 61 66 52 34 22 15 14 10 7 10 10 7 6 5 11 44 58 68 96 100 99 98 94 90 89 92 91 90 91 88 80 78 82 83 84 89 94 93 96 100 100 100 100 100 100 100 100 98
19 18 23 51 50 46 57 63 51 36 26 20 18 14 10 6 8 10 8 7 6 12 43 70 77 98 100 96 94 98 99 96 96 97 98 100 97 98 97 94 93 93 89 91 95 97 98 98 98 100 99 94 91 89
17 17 30 46 45 47 50 58 49 34 23 19 17 16 12 10 6 7 10 9 8 8 14 48 74 70 80 99 97 91 98 100 100 100 100 99 100 100 100 98 95 92 89 91 97 99 98 96 97 98 96 96 95 94
18 16 38 44 42 48 48 55 50 34 20 18 15 14 12 10 2 2 6 8 9 9 9 14 36 57 65 72 84 95 97 100 100 100 100 100 100 100 100 100 100 100 100 100 97 94 94 97 100 100 100 98 93 94
18 21 45 46 48 50 50 50 51 34 18 16 14 13 11 8 5 0 2 6 9 11 10 11 14 22 41 54 69 77 86 97 100 100 99 100 100 100 100 100 100 100 100 100 98 99 100 100 99 99 100 98 93 93
18 31 48 52 52 52 52 50 39 22 14 14 13 10 8 7 6 1 0 4 6 9 11 11 11 14 16 27 47 70 82 91 100 100 100 100 100 100 100 100 100 100 100 100 98 99 99 100 100 100 98 96 98 93
24 44 48 49 51 52 52 48 33 16 12 12 11 8 6 5 5 4 1 4 4 6 10 12 12 11 13 15 23 38 57 76 91 100 99 100 100 100 100 100 100 100 100 100 100 100 98 96 96 90 86 86 90 94
37 46 45 49 50 50 50 36 18 13 12 10 8 6 5 4 4 4 4 4 4 4 6 10 12 12 11 12 14 21 35 55 74 87 90 92 93 94 98 100 100 100 100 100 100 99 98 91 90 95 99 98 97 93
45 50 55 57 52 51 42 23 16 13 10 8 6 5 4 4 4 4 4 4 4 4 5 7 11 12 11 11 12 14 24 40 56 72 83 88 90 92 87 88 98 100 100 98 97 94 90 91 91 88 81 73 68 64
58 58 59 53 54 48 30 18 14 10 7 5 5 4 3 3 3 3 4 4 4 4 4 6 9 12 13 11 11 12 16 25 46 67 76 89 98 92 86 86 83 78 78 72 68 67 65 61 60 58 52 50 53 54
62 65 61 59 53 38 22 16 12 8 5 4 4 4 3 3 3 3 4 4 4 4 4 4 6 9 13 15 14 12 12 15 23 33 43 56 65 72 78 78 74 66 66 66 66 66 62 58 55 54 54 55 54 49
69 67 63 59 39 23 16 12 8 6 4 4 3 3 3 3 3 3 4 4 4 4 4 4 5 8 10 11 11 12 14 14 15 19 28 41 50 55 63 71 72 70 65 58 54 55 56 58 59 57 54 52 47 40
73 67 58 38 21 16 12 8 7 5 4 3 3 3 3 3 3 3 4 5 5 4 5 5 6 6 9 9 9 9 9 10 12 16 20 26 32 39 45 50 54 56 56 54 53 54 55 54 51 45 37 36 37 36
66 54 34 22 18 14 10 7 6 5 4 3 4 4 4 4 4 4 6 6 5 5 6 6 6 7 8 9 9 10 10 9 9 9 11 14 19 25 28 30 32 33 36 39 43 43 41 38 35 34 32 33 30 25

GFSWCAN_250_rhum_006.txt.gz
RH
12 10 8 10 13 14 12 9 14 14 7 5 5 5 6 8 11 12 19 23 24 29 30 40 41 54 65 76 86 84 82 96 100 100 92 91 100 100 100 89 78 79 76 92 98 100 100 100 100 100 100 100 98 87
11 9 9 10 12 14 11 9 14 13 7 5 5 5 6 7 10 14 19 24 29 27 30 37 50 65 74 74 92 99 100 100 98 94 98 66 79 84 100 96 97 95 80 87 87 95 96 100 100 100 100 100 100 93
10 10 9 10 13 14 11 10 13 12 6 4 6 6 6 7 9 13 19 25 32 27 37 44 60 72 73 80 97 99 96 100 94 74 80 87 91 83 90 91 90 96 94 98 99 92 96 94 97 100 100 100 98 84
10 11 10 10 13 13 11 11 14 12 6 4 5 6 6 6 8 13 21 28 38 34 46 49 62 70 72 79 92 90 87 97 95 94 89 96 92 92 87 84 85 90 94 98 100 100 100 100 99 96 96 96 81 73
11 12 10 9 13 13 11 13 16 12 6 4 5 6 6 6 8 12 23 27 44 46 52 58 66 72 68 82 99 98 88 89 95 97 95 87 85 96 96 93 84 86 90 95 94 100 100 90 100 85 57 58 50 46
12 14 11 9 12 13 10 13 18 13 6 4 5 5 6 6 7 9 15 34 51 67 69 74 72 65 72 96 99 94 89 87 91 94 92 81 62 72 72 42 40 51 64 69 77 90 88 77 60 54 51 38 35 37
13 16 12 9 13 12 10 12 17 13 6 4 5 5 5 6 7 10 21 39 67 70 76 80 77 74 82 92 97 84 99 100 94 89 97 95 69 52 62 49 37 33 32 37 44 50 55 55 51 47 31 27 28 34
15 17 12 10 13 12 10 12 16 12 7 4 5 5 5 5 7 8 17 25 58 80 78 86 78 82 78 89 91 75 91 100 91 98 96 99 83 69 92 63 54 33 30 31 34 44 65 78 76 88 65 56 57 57
16 20 13 12 13 13 10 13 17 12 7 4 5 4 3 4 6 8 14 27 56 90 87 95 79 72 78 83 88 70 79 100 93 99 99 98 88 84 96 85 78 69 58 62 69 87 87 96 97 94 90 91 89 84
18 21 14 12 13 13 11 17 17 14 7 4 4 2 2 2 6 8 11 21 53 76 100 97 90 74 67 74 83 73 74 93 98 95 96 96 97 100 100 94 96 97 99 92 97 100 100 99 98 96 92 85 83 78
20 21 16 13 14 14 12 24 21 16 7 4 5 2 2 3 5 7 8 18 54 82 97 100 99 91 76 75 73 72 75 91 98 92 95 88 95 100 100 100 100 100 100 100 100 100 100 100 100 100 100 99 91 86
21 21 17 14 15 14 14 33 26 20 7 6 5 3 1 3 5 7 8 20 55 82 97 100 100 100 91 84 79 71 66 87 99 84 81 76 77 94 100 100 100 100 100 100 100 100 100 100 100 97 89 88 96 99
21 20 20 16 17 15 15 44 35 24 9 8 6 6 3 3 7 8 10 22 64 86 99 96 95 96 97 100 88 77 78 75 87 96 83 81 79 84 85 87 100 100 100 100 100 100 100 100 100 100 100 100 100 100
22 21 20 19 18 16 15 52 43 29 12 10 7 7 6 4 8 13 13 28 72 71 73 94 99 100 100 96 90 86 83 88 80 74 79 82 89 91 98 99 96 100 91 85 89 95 98 98 98 96 94 89 86 90
23 22 24 22 20 18 16 54 54 36 18 11 9 8 8 5 10 15 21 31 54 59 60 80 97 100 93 95 94 97 92 95 100 96 100 86 76 76 86 95 94 91 90 83 86 85 79 82 82 82 85 86 86 79
24 22 23 26 22 19 16 52 62 48 26 14 13 9 11 7 9 13 25 35 38 44 52 59 86 100 100 99 98 98 100 100 92 88 91 91 81 78 77 84 84 79 79 82 97 100 100 100 98 92 93 98 100 99
23 23 25 28 23 19 18 46 61 58 43 23 16 14 11 11 7 9 15 29 41 33 35 56 72 99 98 100 100 100 100 100 72 66 87 92 94 88 81 74 85 87 91 100 100 100 100 100 91 77 88 96 100 100
22 23 25 30 24 20 17 44 56 65 54 44 27 19 15 13 12 8 9 12 21 31 32 36 55 85 100 100 100 100 91 77 62 56 68 84 93 100 100 98 95 98 100 100 99 94 94 91 84 83 86 100 100 100
23 23 24 29 25 21 19 36 53 59 58 59 48 29 20 20 15 15 10 8 9 15 22 27 43 67 98 100 99 95 94 88 82 72 69 70 78 89 99 100 100 100 100 98 92 86 82 82 85 90 93 92 90 95
23 23 24 29 29 20 20 29 51 57 63 65 62 52 28 20 22 20 16 14 9 8 9 16 32 55 76 95 97 100 100 94 92 92 88 78 75 76 76 80 91 100 100 100 98 94 92 90 97 98 96 100 100 96
23 21 20 30 31 21 20 29 48 52 65 69 79 65 42 25 19 21 22 15 14 11 8 8 18 31 45 68 87 94 100 100 100 100 100 96 90 82 74 72 75 82 80 80 79 79 84 90 94 100 100 100 100 100
22 19 19 27 30 22 20 23 39 48 61 60 64 68 55 30 20 17 17 18 15 10 13 9 7 11 22 35 43 72 91 99 100 100 100 100 100 99 91 81 78 79 80 86 90 93 100 100 100 98 98 100 100 99
20 17 18 25 25 22 24 23 34 45 57 61 61 58 50 36 20 14 14 14 15 14 9 11 10 5 6 14 26 34 53 81 100 100 100 100 100 100 100 100 100 96 92 96 100 100 100 100 100 100 100 100 100 100
18 16 19 26 23 23 22 21 29 44 53 54 55 49 38 24 17 14 12 11 10 11 10 4 8 12 8 6 9 14 29 44 67 91 98 100 100 100 100 100 100 100 99 100 100 100 100 100 100 100 100 100 100 100
17 17 20 25 24 23 23 21 29 42 55 55 51 34 21 16 14 11 10 9 9 8 8 7 1 6 11 11 8 8 16 30 50 74 95 98 100 100 100 100 100 100 100 100 100 98 98 99 100 100 100 97 96 96
15 19 21 23 22 21 23 28 39 50 53 49 36 23 15 12 11 10 9 8 7 6 5 6 3 1 7 12 11 9 8 14 34 51 80 97 100 100 100 100 100 100 100 100 100 100 100 100 100 100 98 94 92 91
15 20 23 21 21 24 29 36 52 56 55 41 23 13 12 12 10 8 7 6 5 4 4 4 4 1 2 9 11 10 8 8 13 29 51 70 87 97 100 100 100 100 100 100 100 100 99 99 100 100 95 90 90 92
20 28 24 22 22 25 33 50 56 53 41 25 14 11 11 10 8 6 5 4 4 4 4 4 4 3 2 6 9 11 11 9 7 10 23 42 67 80 87 94 100 100 100 100 100 100 97 97 95 92 90 90 91 92
25 24 23 22 26 36 51 57 55 45 27 20 13 12 11 7 5 4 4 4 3 3 3 4 4 5 5 5 7 10 12 12 10 6 5 11 26 55 73 78 79 85 93 97 98 99 100 95 93 91 90 92 91 88
20 21 24 28 40 54 59 58 49 30 22 18 13 12 8 5 4 3 3 3 3 3 3 3 4 4 5 5 5 8 11 12 12 11 8 6 6 14 29 46 59 64 66 68 70 67 67 67 67 68 70 70 65 56
22 26 33 46 58 62 58 50 35 29 22 16 12 9 5 4 3 3 3 3 3 3 3 3 3 4 5 5 5 6 10 11 12 12 12 10 11 13 15 18 25 33 41 47 56 64 67 66 66 65 62 56 46 47
31 39 55 64 62 58 54 48 38 26 20 14 9 6 4 4 3 3 3 3 3 3 3 4 4 4 4 5 5 6 8 10 10 11 13 14 13 14 15 18 22 28 36 44 53 59 64 64 61 56 53 50 44 40
51 65 66 60 59 59 50 43 30 21 18 12 6 5 4 4 4 3 4 4 4 3 4 5 5 5 5 5 5 6 6 8 9 10 11 14 15 17 18 19 20 21 26 32 38 43 47 48 43 38 35 36 38 35

GFSWCAN_250_rhum_009.txt.gz
RH
11 10 10 12 11 9 10 14 13 12 10 14 15 7 6 6 7 10 11 14 16 19 19 20 22 24 35 54 73 100 99 94 90 75 71 63 66 73 88 97 98 100 96 98 79 82 93 100 100 100 100 100 100 100
11 11 11 12 11 9 9 14 14 13 10 14 18 8 7 8 7 10 11 14 20 23 24 26 26 31 36 43 61 78 84 90 71 68 69 71 83 81 98 100 99 100 96 94 98 94 94 90 100 100 100 100 100 100
11 12 12 11 12 9 9 15 14 12 10 11 22 10 6 8 7 10 12 16 24 28 32 32 31 43 42 50 64 86 82 72 66 79 78 82 87 97 98 100 100 98 100 98 100 100 95 100 99 100 100 100 99 100
12 13 13 12 11 9 9 14 15 12 10 10 20 9 6 7 7 9 13 14 22 32 42 39 34 45 59 72 70 69 75 69 64 70 88 84 70 80 87 71 82 90 100 100 100 100 100 100 100 100 92 91 96 96
14 14 14 14 11 10 9 13 14 12 10 10 17 8 5 6 6 8 11 14 18 28 45 50 55 65 67 66 81 85 80 71 74 84 89 92 89 86 80 79 84 92 96 100 100 98 100 98 100 100 100 94 84 67
16 15 15 14 10 10 9 12 13 11 10 12 14 7 4 6 6 6 10 13 19 32 46 58 63 71 74 81 98 99 84 69 70 72 87 89 77 92 91 71 63 63 73 79 81 81 97 92 100 97 97 77 53 52
17 16 17 14 12 12 9 12 13 10 8 14 12 7 4 6 6 7 11 14 21 31 50 63 87 80 87 93 98 85 76 79 82 82 83 93 100 89 74 64 65 58 47 50 55 61 66 71 73 90 55 40 36 44
17 17 19 14 14 14 10 12 13 10 8 15 10 6 4 6 5 7 8 10 16 33 49 80 95 86 88 98 95 75 74 83 80 78 90 99 99 90 92 75 62 37 31 32 36 45 54 62 73 58 54 42 41 53
15 22 17 15 16 16 12 12 13 10 8 16 8 5 4 3 3 7 7 9 14 24 55 84 95 88 87 94 93 74 82 88 81 78 88 99 88 88 88 89 83 59 36 35 36 41 43 46 57 72 82 87 83 89
16 23 17 16 18 18 14 13 14 10 8 16 9 4 4 2 2 4 7 11 13 24 53 81 90 92 91 96 92 76 88 100 88 84 84 80 86 90 94 90 100 100 87 72 78 82 76 80 83 87 96 90 81 78
19 21 16 18 20 19 15 13 14 11 8 15 12 5 5 2 3 4 8 13 19 31 44 73 86 98 98 97 91 75 79 96 99 97 91 82 87 87 91 96 100 100 100 100 100 93 93 96 95 93 87 83 84 85
22 20 18 21 22 22 17 14 15 13 10 17 17 6 6 2 4 5 12 15 27 33 43 54 80 100 99 97 94 80 76 83 98 97 96 97 92 86 95 100 100 98 95 94 97 99 96 94 90 87 84 84 84 86
21 20 21 23 24 23 18 15 17 15 14 19 22 8 6 4 5 9 14 16 25 31 32 48 81 100 100 99 96 86 81 78 85 88 95 99 100 94 93 100 100 100 100 100 100 100 100 100 100 100 100 100 97 95
22 20 22 25 26 24 20 17 19 19 23 28 28 12 7 5 5 13 22 23 24 26 28 42 69 96 98 95 96 100 92 81 92 94 97 96 88 92 97 99 100 99 97 100 100 100 100 100 100 100 100 100 100 100
22 21 24 27 27 25 21 18 20 21 31 41 40 24 10 8 8 7 22 31 32 30 31 36 51 88 88 92 87 91 94 83 92 88 100 100 95 87 89 99 100 98 97 100 100 98 93 97 100 98 91 85 81 81
22 22 25 27 28 28 23 19 20 22 34 60 52 42 18 11 8 10 9 20 31 28 31 31 42 69 96 91 91 92 100 100 87 80 92 100 100 99 100 100 100 100 100 99 98 99 96 96 97 97 90 98 100 100
22 24 25 27 29 28 25 20 19 23 25 64 65 59 33 19 15 8 10 10 14 20 23 28 37 58 88 100 100 99 99 96 79 70 72 82 93 100 98 94 100 100 100 100 100 100 97 92 87 99 100 100 100 100
22 22 26 27 28 28 25 22 18 23 23 48 74 73 62 31 24 20 11 8 13 12 12 16 33 48 76 97 100 96 88 84 83 79 78 92 99 100 100 100 100 100 100 100 100 100 99 99 99 97 96 100 100 99
22 22 25 26 29 29 28 21 18 23 23 26 65 75 78 68 38 31 30 20 13 9 10 11 15 35 55 85 100 100 97 87 78 84 92 80 81 87 82 91 97 96 95 98 100 100 100 100 100 99 99 100 95 89
23 23 26 27 29 30 29 24 19 23 24 22 42 66 77 78 67 49 39 34 32 25 14 10 10 16 27 43 72 100 95 96 89 85 94 99 89 73 80 90 99 100 100 100 100 100 99 98 100 100 100 100 99 94
24 24 24 25 28 30 29 25 20 23 26 22 21 43 62 80 80 74 64 46 35 34 34 25 16 10 12 18 29 43 63 89 100 96 90 98 100 100 89 77 76 81 97 100 100 100 100 100 100 100 100 100 99 100
21 22 22 25 28 29 27 22 20 22 28 25 22 30 50 71 77 80 74 63 49 33 26 26 28 19 13 10 11 19 30 37 68 96 99 96 100 100 100 96 99 94 92 100 100 100 100 100 100 100 100 100 100 100
21 21 22 25 30 28 26 20 18 22 27 24 22 24 40 60 71 74 75 63 52 40 27 20 18 20 19 13 11 9 12 18 26 54 89 99 100 100 100 100 100 100 97 100 100 100 100 100 100 100 100 100 100 100
21 23 24 28 27 26 24 18 18 22 23 21 21 23 36 50 58 73 77 64 55 40 26 16 12 12 16 15 13 11 10 9 11 20 43 73 98 100 100 100 100 100 100 100 100 100 100 100 100 100 100 100 100 100
22 23 26 26 24 22 18 17 19 22 22 21 20 24 38 51 61 72 63 52 42 27 17 12 10 10 11 13 13 13 10 10 9 9 14 29 53 83 98 99 100 100 100 100 100 100 100 100 100 98 99 100 97 94
23 27 24 23 21 17 16 19 22 21 19 19 20 24 34 54 64 61 50 39 21 13 12 10 9 9 9 10 11 12 12 8 8 9 8 12 22 44 77 93 100 100 100 100 100 100 100 100 100 99 99 100 100 99
24 25 21 18 16 16 18 20 21 19 18 18 19 26 50 62 66 52 35 17 12 10 9 8 7 7 6 7 8 9 9 9 5 6 9 9 9 14 28 55 89 92 95 100 100 100 100 100 100 100 100 100 98 90
19 19 19 17 16 18 20 21 19 18 18 19 29 51 61 60 51 32 15 11 9 7 5 4 4 4 4 4 5 6 7 8 6 2 4 10 10 9 10 22 42 70 89 92 95 99 99 100 100 100 100 98 93 96
18 17 17 16 16 18 20 19 18 18 20 33 57 64 60 48 32 15 11 8 6 4 4 3 3 3 4 4 4 5 5 6 6 2 2 7 11 11 8 8 16 49 79 84 87 92 95 98 100 100 99 94 94 95
16 16 16 15 16 18 19 18 20 22 32 57 71 64 50 32 15 12 9 6 4 4 3 3 3 3 3 3 4 4 4 5 5 2 2 5 11 12 11 9 9 18 33 60 73 77 82 88 90 88 88 88 91 92
15 14 14 15 18 18 19 22 27 36 58 74 73 56 35 15 12 10 6 5 4 3 3 3 3 3 3 3 3 4 4 5 5 3 3 5 11 14 14 11 9 12 15 16 22 33 47 59 72 78 77 78 78 77
11 12 16 18 18 20 25 34 45 60 74 72 59 37 18 13 12 7 5 4 4 3 3 3 3 3 3 3 3 4 4 5 6 5 6 7 10 12 15 15 13 10 10 10 9 9 9 11 14 17 23 26 27 27
14 18 19 20 24 28 40 56 69 75 70 58 41 23 13 12 9 6 5 4 4 4 4 4 3 3 3 3 4 4 4 5 6 6 6 7 8 9 13 16 16 16 14 12 12 11 11 11 11 14 17 20 21 20

GFSWCAN_250_rhum_012.txt.gz
RH
13 16 15 15 13 10 11 14 14 16 17 13 12 12 22 16 10 9 8 12 13 15 18 18 25 34 53 70 96 100 100 100 100 98 88 83 73 70 58 64 89 99 88 100 98 99 100 100 94 91 100 85 100 100
12 14 15 16 14 10 12 15 14 16 16 14 14 11 25 19 11 9 8 10 14 16 21 21 23 35 46 63 88 97 100 99 100 94 89 79 70 76 77 68 80 100 98 97 100 100 100 100 100 96 98 97 100 100
12 14 14 17 14 11 10 16 12 15 16 13 14 12 26 21 10 8 8 9 14 17 24 26 27 29 43 68 81 99 100 100 94 88 87 79 72 67 70 71 88 99 100 100 98 97 100 100 100 100 100 99 98 90
12 12 14 16 17 13 10 16 11 15 15 12 13 12 25 20 9 7 8 8 15 16 21 25 27 29 37 54 82 96 98 92 94 88 83 77 69 70 74 87 100 100 98 95 100 90 96 92 93 94 98 91 99 98
12 11 13 16 18 15 11 15 11 16 14 11 11 12 21 10 6 6 6 7 12 18 21 29 31 34 35 48 64 81 85 81 81 77 71 67 76 79 83 98 90 79 94 84 76 82 86 85 80 82 88 91 100 90
11 12 12 16 20 16 14 15 11 16 13 10 11 13 17 7 5 6 5 7 11 16 20 28 32 42 44 43 54 56 56 71 66 60 66 79 87 88 92 80 64 69 89 99 87 82 84 79 72 88 88 95 76 50
12 14 15 18 23 18 15 16 12 15 13 9 10 14 11 6 5 6 6 7 12 17 21 28 42 52 51 48 42 44 52 65 64 68 78 88 95 100 90 70 89 100 96 82 76 67 70 70 74 87 100 71 43 45
14 17 16 24 29 20 19 17 13 16 12 9 11 16 8 5 4 5 5 6 11 15 22 32 44 65 65 59 63 76 74 90 69 71 81 88 100 89 98 100 92 67 53 47 53 51 54 60 74 96 63 38 42 40
16 18 16 27 26 24 22 18 14 16 13 9 10 16 6 5 4 2 4 7 11 14 25 34 46 70 65 77 84 90 100 91 70 76 80 91 85 94 100 91 97 87 46 36 34 37 43 54 63 55 45 41 50 49
15 18 17 32 26 26 25 20 16 16 14 10 11 15 6 4 3 2 4 8 11 14 23 35 48 66 73 84 97 100 97 97 91 86 82 85 99 100 100 100 100 84 55 50 50 51 54 53 55 64 83 94 96 100
15 17 20 30 28 26 27 22 17 16 16 12 11 19 7 5 3 2 5 8 13 17 20 36 48 66 80 94 100 100 97 98 92 87 92 99 96 96 100 100 96 96 97 81 84 85 88 87 88 99 100 100 100 100
16 19 20 30 27 26 28 22 17 17 16 14 12 28 10 6 4 4 6 12 16 14 17 30 44 65 80 99 100 100 100 99 95 92 92 100 96 100 98 100 100 100 100 95 96 99 92 87 89 95 94 97 100 100
17 22 22 29 26 26 27 24 20 18 17 16 12 26 19 7 6 5 9 15 16 15 17 32 48 62 79 96 100 95 100 100 98 99 100 100 100 100 100 92 90 93 100 100 100 100 100 100 100 100 100 100 97 93
20 24 24 28 25 26 26 27 24 19 18 19 17 16 34 15 8 8 7 13 15 14 19 36 46 54 70 96 94 94 100 98 100 100 100 100 100 100 100 100 92 86 97 100 100 100 100 100 100 100 100 100 97 92
21 23 24 26 25 26 28 29 27 22 19 20 21 25 39 34 14 11 10 9 14 15 20 35 44 53 70 89 93 90 95 100 99 91 100 100 100 100 100 100 100 100 100 100 100 100 100 100 100 98 99 99 97 98
21 24 24 24 26 26 28 32 28 25 20 21 25 25 42 52 35 18 10 13 12 12 16 33 38 52 66 87 98 99 87 93 94 86 90 92 87 96 100 100 100 100 100 100 100 100 100 100 100 100 100 98 95 98
22 22 23 24 24 25 30 32 29 28 24 22 27 26 41 59 59 39 22 13 9 14 12 18 33 41 65 76 100 94 83 83 86 84 90 99 100 98 92 99 100 100 100 100 100 100 100 100 100 100 100 100 98 94
19 19 21 22 19 26 30 30 30 28 26 24 31 29 29 61 69 66 48 30 20 12 11 15 23 32 49 78 85 86 79 80 76 80 84 89 100 100 95 93 95 97 99 100 100 100 100 100 100 100 100 99 100 100
17 19 21 18 22 27 30 28 28 28 29 26 26 40 27 34 71 76 71 55 42 27 20 12 12 24 43 65 88 87 81 85 76 75 85 88 88 97 100 98 86 82 84 83 89 95 98 100 100 100 99 100 100 99
17 19 19 17 24 28 31 26 26 27 28 29 26 27 39 27 34 69 81 79 69 59 44 27 20 13 11 24 43 48 62 82 84 79 76 80 86 87 91 96 97 100 99 94 84 81 84 96 96 99 100 100 100 100
17 14 12 17 25 28 28 26 26 27 27 25 26 25 27 37 27 36 59 73 78 72 72 68 56 34 25 15 13 19 33 44 60 83 87 81 79 79 82 84 84 96 100 100 100 97 89 98 100 100 100 100 100 100
15 12 12 20 25 26 25 24 26 26 28 24 22 21 23 31 30 27 36 51 68 82 84 76 73 70 61 42 24 18 13 18 28 37 57 86 97 100 95 86 82 80 80 98 100 100 100 100 100 100 100 100 100 100
14 13 18 23 24 25 23 22 25 27 28 25 23 22 22 25 27 23 24 27 47 74 81 81 79 80 77 70 65 48 29 21 16 13 16 30 60 89 98 99 100 96 88 84 92 100 100 100 100 100 100 100 100 100
13 14 21 24 25 22 22 20 22 24 26 26 22 21 22 24 26 25 22 23 31 46 61 66 64 64 64 64 61 58 49 36 21 19 18 12 15 36 56 80 94 96 97 99 92 93 100 100 100 100 100 100 100 100
15 19 21 20 20 20 20 20 20 22 25 24 21 21 22 23 24 24 22 23 28 38 46 48 51 52 53 51 50 36 23 21 19 15 15 18 14 12 17 33 48 70 84 89 89 96 100 100 100 100 100 100 100 100
19 17 13 14 18 20 21 20 20 24 23 21 20 19 19 22 21 22 23 23 24 28 34 42 47 54 49 30 12 11 12 12 12 12 11 12 15 15 13 11 21 40 50 71 87 93 98 100 100 100 100 100 100 100
17 14 13 18 20 20 20 21 22 21 20 19 18 17 20 20 21 20 21 22 28 32 38 44 48 35 15 11 11 8 9 10 10 9 9 10 12 14 15 14 12 16 28 44 61 91 97 98 99 100 100 97 99 100
17 18 19 20 19 18 20 21 21 20 18 17 16 18 19 18 19 21 25 30 32 37 44 40 24 12 10 8 7 6 6 6 7 8 9 10 10 12 16 17 14 12 14 23 39 63 86 92 97 99 99 98 99 100
18 19 20 17 17 20 21 22 20 18 16 16 17 17 18 18 20 25 33 37 38 46 33 14 12 9 6 4 4 4 4 4 4 5 6 8 9 10 13 17 15 13 12 12 18 30 48 77 86 90 92 96 99 98
16 17 17 18 19 21 21 20 18 15 15 16 17 17 19 22 27 36 39 38 42 26 14 11 8 5 4 3 3 3 3 3 4 4 5 5 6 8 11 14 15 11 12 14 14 16 26 43 54 67 77 81 80 73
15 15 16 18 19 20 18 16 14 14 16 17 18 21 28 35 38 40 43 35 24 14 11 7 4 3 3 3 2 2 2 3 3 3 4 4 5 7 9 12 12 8 9 14 18 19 20 28 41 52 54 54 52 60
12 16 19 19 17 15 14 13 14 16 18 20 23 36 49 51 47 45 34 21 14 11 7 4 4 3 3 3 3 3 3 3 3 3 4 4 5 6 8 9 9 6 6 10 17 21 22 22 25 28 28 26 28 30
17 18 17 13 11 10 12 16 17 19 22 24 41 62 60 54 52 44 22 15 12 7 5 4 4 4 4 4 4 3 3 4 4 4 4 5 5 6 7 6 4 4 5 6 11 16 18 20 20 20 20 19 19 19

GFSWCAN_250_rhum_015.txt.gz
RH
12 10 12 11 11 12 16 13 12 14 13 16 23 19 17 17 14 28 12 10 11 18 19 21 24 49 72 81 94 100 92 93 97 98 99 97 88 87 95 98 99 86 84 89 83 92 99 89 87 99 91 96 100 99
11 10 12 11 11 12 15 14 12 13 12 14 20 24 19 17 16 25 16 11 11 13 17 19 21 30 47 82 96 100 95 90 89 91 98 100 88 89 95 93 100 85 75 95 100 100 100 94 100 90 99 94 94 95
11 11 11 11 12 12 14 13 11 11 11 12 16 20 19 17 17 28 22 12 10 11 18 18 20 25 35 60 76 94 100 98 93 90 98 100 90 90 90 81 90 92 83 86 100 99 94 89 96 94 89 83 88 92
12 11 11 11 12 12 14 13 11 10 10 11 13 14 16 16 18 24 16 8 8 9 14 19 19 24 30 45 68 82 99 99 96 95 96 97 88 85 91 89 89 92 88 86 83 91 99 88 78 72 74 78 83 97
12 11 11 11 12 12 14 12 12 10 11 11 10 12 13 14 17 20 10 6 7 8 12 20 23 23 29 38 56 72 96 100 99 93 95 92 91 89 92 90 96 98 98 94 87 72 68 70 60 63 68 78 88 90
12 11 11 11 12 14 14 12 12 10 11 10 10 11 11 11 15 12 6 5 7 7 10 19 26 25 28 36 48 70 92 100 100 92 95 92 90 98 99 100 86 97 95 76 77 77 74 60 58 61 71 84 99 78
12 12 12 12 13 14 15 14 13 11 10 10 10 11 11 11 12 6 4 5 6 6 10 19 26 28 28 32 46 60 75 98 100 100 97 92 100 100 98 86 72 78 80 93 86 82 73 61 59 70 81 90 88 62
12 13 13 13 14 17 17 16 14 12 10 11 11 12 11 14 9 5 4 4 6 6 11 18 27 32 34 34 43 59 76 86 98 98 99 95 98 100 86 68 96 94 94 90 77 64 62 65 62 69 76 80 55 48
12 12 13 14 16 16 17 18 15 13 12 12 13 12 12 14 6 4 3 3 5 8 12 20 30 31 40 42 44 57 60 74 95 97 93 92 94 92 83 89 96 100 100 94 84 63 49 44 48 55 60 55 45 55
12 12 14 15 17 19 18 20 18 13 14 14 15 12 12 12 5 3 2 2 6 10 12 18 30 36 49 50 52 54 59 67 74 76 88 98 92 88 95 100 100 98 99 99 64 45 38 40 44 54 50 50 53 66
13 14 15 16 19 20 21 22 18 13 17 15 19 13 14 14 5 3 3 6 8 10 12 19 32 42 52 58 58 55 58 73 87 97 100 99 94 94 100 100 100 100 100 90 73 73 71 63 60 68 76 95 98 99
13 15 16 18 21 21 22 23 19 16 18 19 22 14 17 22 7 5 6 8 9 10 13 20 34 48 57 62 67 69 78 89 100 93 100 100 100 99 100 100 100 100 100 100 100 100 97 95 97 89 98 100 100 100
14 14 15 21 22 22 23 23 20 18 21 22 24 19 14 30 13 9 8 6 8 12 18 24 34 45 58 67 73 80 87 96 95 94 100 100 100 100 100 100 100 100 100 100 100 100 100 100 100 100 100 100 100 100
14 16 17 21 21 23 23 24 22 20 26 25 24 20 16 28 33 16 11 11 10 15 22 26 35 47 61 69 76 80 93 92 96 92 92 100 100 100 100 100 100 100 100 100 100 100 100 100 100 100 100 100 100 100
14 16 19 20 20 22 24 25 23 23 29 26 23 24 16 17 34 38 21 12 13 15 20 29 34 44 57 68 79 87 98 96 100 99 100 100 100 100 100 100 100 100 100 100 100 100 100 100 100 100 100 100 100 100
15 18 19 19 20 24 25 25 25 25 31 28 23 25 23 19 26 45 43 23 12 15 19 22 29 42 57 68 80 91 91 100 99 93 100 100 99 100 100 100 100 100 100 100 100 100 100 100 100 100 100 98 100 100
17 17 19 19 22 24 23 27 26 29 32 28 26 26 27 29 27 28 53 54 35 16 11 21 28 31 51 63 78 84 79 81 97 92 96 99 96 95 97 100 100 100 100 100 100 100 100 100 100 100 100 100 100 100
15 16 17 19 22 22 22 24 26 28 31 30 28 27 23 27 35 34 29 41 55 49 27 13 18 25 38 51 70 80 73 78 84 89 95 99 100 98 90 88 92 92 96 99 100 100 100 100 100 100 100 100 99 96
15 15 16 19 19 19 22 24 27 29 32 32 30 31 27 24 30 38 38 36 41 55 60 40 17 16 24 40 45 52 63 78 79 71 79 88 97 99 98 92 84 86 92 95 94 93 95 93 92 93 92 91 94 100
15 16 17 18 19 19 21 23 26 28 31 32 29 30 29 27 24 29 35 35 35 33 43 60 59 36 17 19 24 31 42 57 75 90 80 76 79 88 97 99 96 88 80 78 82 90 96 99 100 100 99 99 100 100
17 17 17 18 18 20 21 22 24 25 29 29 30 30 32 31 27 24 26 30 34 32 38 38 48 64 61 39 19 15 23 26 28 49 85 99 86 76 82 86 92 99 98 92 85 81 81 82 85 89 97 100 100 100
18 19 18 18 17 18 20 20 18 22 28 27 26 28 28 31 30 25 22 24 28 34 32 28 30 36 46 58 61 57 33 19 17 19 26 34 50 82 80 81 81 85 90 97 99 98 98 94 94 93 92 96 100 100
19 18 17 17 17 18 21 18 19 25 28 24 23 23 25 27 28 26 25 23 27 33 32 27 24 25 31 40 48 53 55 58 60 52 32 20 16 25 49 52 62 83 96 87 84 85 92 96 94 94 97 100 100 100
19 18 17 16 17 18 18 19 24 26 24 21 20 21 23 23 24 23 22 21 22 22 27 29 25 23 22 23 29 40 49 55 56 57 60 64 64 52 31 21 34 58 60 61 71 84 79 81 88 93 94 92 94 100
18 17 17 16 18 19 18 17 19 21 21 20 20 21 22 22 24 23 20 19 19 20 22 22 22 21 21 22 26 27 31 38 42 49 54 59 62 64 66 56 51 31 25 36 61 62 65 68 76 83 92 99 100 100
18 18 17 17 17 15 14 17 20 19 18 19 22 20 21 23 23 22 19 17 17 19 20 20 20 19 19 20 20 22 30 40 48 53 48 51 58 61 48 41 32 40 46 35 23 24 43 68 78 78 78 86 97 100
19 17 16 16 16 15 18 19 15 14 17 21 19 19 21 22 22 17 17 17 17 18 20 19 18 19 19 19 26 40 49 48 47 46 33 20 16 17 18 19 18 20 25 30 30 27 21 22 42 66 82 91 96 97
16 14 14 17 19 19 18 14 13 16 20 20 18 20 21 20 17 16 16 16 18 19 18 18 17 17 20 31 43 45 37 26 15 12 10 10 9 10 11 12 13 15 18 21 23 27 28 22 20 30 54 77 81 88
13 15 18 20 20 17 15 15 17 19 18 18 20 21 19 16 15 15 16 17 18 18 18 17 18 30 44 46 32 15 11 9 8 6 5 5 5 5 6 8 10 12 15 18 20 24 28 28 24 23 29 41 55 69
15 19 20 19 17 16 16 18 18 18 18 21 22 19 17 15 14 15 16 17 18 18 19 26 42 42 25 14 10 9 6 5 4 4 3 3 4 4 4 5 7 11 14 17 19 24 29 31 31 25 24 30 40 54
18 18 18 16 15 16 17 17 18 20 21 21 19 17 16 14 14 16 18 19 19 25 37 44 37 20 11 9 7 5 4 3 3 3 3 3 3 3 4 4 6 10 13 16 20 28 34 33 33 32 29 26 28 34
18 17 16 16 15 16 16 16 18 19 18 17 15 14 13 14 16 18 18 21 32 42 39 22 13 11 10 6 4 4 3 3 3 3 3 3 3 3 4 4 6 8 12 17 21 28 32 36 38 36 33 26 25 29
16 15 15 14 11 10 13 18 17 15 15 13 12 13 16 18 19 20 28 40 43 34 19 14 12 9 5 4 4 4 3 3 3 3 3 3 3 3 4 4 5 7 10 15 21 27 32 34 36 36 32 29 29 26

GFSWCAN_250_rhum_018.txt.gz
RH
14 15 13 13 12 12 12 12 12 13 14 15 15 14 14 16 17 14 12 11 23 29 17 25 25 36 65 84 78 91 98 100 100 100 99 93 93 75 73 82 92 94 97 93 72 83 83 87 94 99 100 98 93 82
14 12 12 12 12 12 12 12 12 13 14 13 15 14 15 18 18 18 13 11 11 29 15 16 24 24 36 85 94 86 96 98 94 95 93 94 89 79 81 84 94 97 96 95 82 83 88 84 72 89 88 82 72 70
12 12 11 12 12 12 12 12 12 13 14 11 11 12 13 16 17 18 14 12 12 18 26 14 16 23 25 52 77 91 95 90 92 91 97 97 87 90 84 87 99 100 100 89 82 73 86 84 82 75 88 73 61 63
12 12 12 12 13 13 12 12 12 13 13 10 10 11 11 12 15 15 12 12 13 20 27 14 11 20 19 25 57 90 91 94 91 92 91 95 83 82 86 86 99 100 95 92 91 92 81 77 64 62 68 76 66 70
13 13 12 12 13 14 13 12 12 12 13 10 9 10 10 10 12 11 9 11 16 17 15 9 9 15 21 20 33 81 93 95 92 95 89 91 90 90 85 98 96 100 97 99 100 100 86 69 61 64 69 68 71 79
13 13 13 13 13 15 13 12 12 12 13 10 9 9 9 9 10 8 7 10 7 6 7 7 9 13 20 20 26 54 95 99 100 93 91 92 89 100 100 96 91 97 99 99 100 97 73 70 65 61 65 75 76 82
12 12 13 13 13 14 13 12 12 12 13 10 9 9 8 9 8 6 6 6 5 5 6 8 9 13 21 20 23 33 56 97 100 100 96 90 93 100 97 92 92 100 100 100 100 78 74 87 78 63 65 71 79 79
11 11 12 12 13 14 13 13 13 12 14 10 9 9 9 10 7 6 7 4 4 5 7 8 10 16 22 23 24 29 39 68 99 100 99 95 97 100 97 98 100 100 100 100 73 81 85 82 82 72 72 68 73 71
9 10 11 12 12 12 12 13 14 14 15 11 9 10 9 10 6 9 6 3 3 4 7 8 10 16 25 28 27 30 38 48 80 93 95 100 100 100 100 94 98 100 100 85 84 86 87 92 78 59 44 48 57 72
9 10 10 13 12 12 14 13 13 15 16 12 10 12 11 8 8 11 4 2 2 4 7 9 13 21 29 34 32 32 39 48 64 77 88 100 100 100 100 100 98 97 88 82 89 94 100 81 58 43 45 53 62 49
10 10 11 13 12 13 14 14 16 18 18 14 12 15 13 11 11 13 5 4 5 9 12 14 20 30 40 46 42 38 42 47 57 69 89 94 100 100 95 100 100 96 88 80 78 100 89 78 74 57 52 62 61 60
9 10 11 12 12 14 14 16 18 20 19 16 14 15 14 16 14 15 7 6 6 11 16 20 26 35 45 47 47 42 41 46 63 74 82 93 100 100 99 100 100 93 80 76 96 99 92 97 87 77 78 85 97 100
9 10 11 11 13 14 16 17 18 22 21 19 16 16 17 17 19 23 12 9 11 11 17 24 30 36 45 51 57 57 49 50 63 73 85 98 100 99 99 100 99 91 82 94 98 100 100 99 97 98 100 99 100 100
10 11 12 11 14 14 17 20 19 22 22 21 18 18 19 18 21 27 33 14 12 16 18 24 31 40 45 62 68 82 67 67 77 85 82 93 100 100 100 100 100 98 94 100 100 100 100 100 98 96 100 100 99 96
11 12 12 13 14 15 18 20 21 22 21 22 20 21 22 22 21 22 44 28 13 18 19 24 31 39 47 53 68 80 86 75 88 98 96 99 100 100 100 100 100 100 99 100 100 100 100 98 95 92 96 97 98 98
13 13 12 14 15 18 19 21 23 22 22 22 21 24 25 24 24 21 24 50 27 14 17 22 27 38 45 52 59 75 85 91 96 96 100 100 100 100 99 100 100 100 100 100 100 100 100 100 98 96 96 100 100 100
15 14 14 16 17 18 18 20 21 22 22 22 21 25 30 28 29 25 22 22 50 38 18 16 21 29 38 50 61 66 75 82 89 94 99 99 99 100 100 100 100 100 100 100 100 100 100 100 100 100 100 100 100 100
17 16 16 18 17 17 19 20 23 23 22 22 21 25 29 31 28 29 25 27 26 44 60 33 16 19 24 39 57 58 62 77 83 85 94 100 99 98 98 100 100 100 100 100 96 97 97 95 99 95 94 99 100 100
18 17 17 18 18 18 20 21 22 21 21 20 21 26 27 30 27 28 28 24 28 29 34 61 63 26 16 18 19 23 39 51 80 87 86 93 98 98 99 98 98 100 100 100 94 92 92 97 97 95 92 87 86 89
18 17 17 18 18 19 20 20 20 20 20 20 22 24 28 30 29 27 27 27 26 26 29 26 45 72 70 32 18 20 22 26 43 66 78 86 86 91 92 91 94 94 95 99 100 100 100 96 88 88 93 97 100 100
17 17 18 18 18 18 20 20 20 20 19 20 22 26 29 29 30 28 27 26 26 25 26 27 28 24 39 58 66 36 18 19 24 27 31 51 84 94 92 92 99 100 99 97 95 99 100 100 100 100 100 100 100 100
18 18 19 19 19 20 21 21 20 19 19 20 23 26 26 27 28 27 24 24 24 25 26 24 23 26 26 25 38 56 70 54 26 17 22 33 36 35 45 61 86 93 91 97 100 100 100 99 100 100 98 97 97 98
20 19 18 18 19 20 21 20 19 19 20 21 24 24 22 26 28 26 24 21 22 26 24 23 22 21 23 25 22 22 30 43 60 64 48 25 17 22 31 39 44 50 55 66 85 95 93 96 98 99 100 100 100 100
20 20 19 19 22 23 22 20 20 19 22 25 24 22 22 24 26 26 23 20 21 23 23 23 22 20 18 18 20 20 20 20 21 25 40 59 60 55 49 35 22 24 32 38 48 59 68 73 81 90 96 98 100 100
20 20 22 23 23 24 22 21 20 20 21 22 21 20 20 21 24 24 20 19 20 20 21 23 22 20 17 16 17 18 20 22 22 21 18 22 30 38 48 56 60 65 62 43 30 27 27 28 35 51 74 80 79 85
18 20 23 24 24 23 22 20 19 18 18 19 19 18 18 20 21 21 19 18 18 18 20 22 20 18 16 17 17 18 19 19 20 20 18 19 20 25 30 36 42 47 55 65 77 84 86 79 65 46 32 30 37 53
19 23 23 24 24 22 21 20 19 18 18 18 16 15 17 19 18 17 19 18 18 19 18 18 17 16 15 15 16 16 16 17 18 19 20 22 26 32 40 45 47 46 46 51 57 65 78 87 90 91 90 84 68 50
21 23 23 22 22 22 20 19 17 17 16 15 15 17 17 15 14 16 18 19 20 19 18 17 16 15 14 15 14 15 16 17 20 27 35 39 39 42 44 48 50 50 50 47 47 46 56 62 66 82 88 81 77 76
20 21 22 23 22 21 19 17 16 16 16 18 18 16 14 14 15 17 18 20 20 19 17 16 14 14 14 14 15 18 24 40 46 37 33 32 26 20 18 15 14 14 15 16 17 19 22 25 30 36 48 57 60 58
20 21 21 21 22 21 19 17 17 18 19 19 17 16 15 16 17 18 19 20 20 18 16 14 14 14 14 17 31 43 42 40 32 21 14 11 10 8 8 7 7 7 7 7 8 9 11 14 18 23 28 34 42 49
18 18 19 20 20 17 16 16 16 18 18 17 17 18 17 18 18 18 18 18 17 14 13 13 14 16 23 42 47 40 24 14 11 9 8 6 4 4 4 4 4 4 4 4 5 6 8 10 13 17 22 28 33 39
19 19 19 18 16 16 15 15 18 18 17 17 17 17 17 18 17 16 15 14 13 13 14 15 18 37 48 43 31 18 12 9 6 4 4 3 3 3 3 3 3 3 3 4 4 5 6 8 11 16 22 28 32 36
16 17 16 15 14 15 17 18 18 17 16 16 14 13 15 17 16 14 12 12 13 15 17 26 45 45 34 20 13 11 8 5 4 3 3 4 3 3 3 3 3 3 3 4 4 5 7 9 13 19 25 29 32 35

GFSWCAN_250_rhum_021.txt.gz
RH
8 9 9 9 11 10 12 13 13 14 14 12 12 13 14 13 14 15 15 14 13 15 17 31 26 17 24 91 88 95 98 92 98 96 95 99 100 88 78 71 70 92 85 91 71 61 85 100 100 86 71 85 72 61
8 8 8 9 10 10 11 13 13 14 14 12 11 13 12 13 14 17 16 15 12 12 12 18 34 21 17 26 99 93 86 87 89 95 94 94 87 84 76 77 76 96 95 97 75 68 70 99 92 79 79 72 61 56
7 8 9 9 10 11 11 13 13 14 13 11 12 11 11 10 12 16 16 14 14 13 10 12 17 34 16 18 32 96 99 91 85 91 94 90 91 93 84 79 74 87 100 99 92 90 71 75 82 84 79 69 56 58
8 8 9 9 12 11 12 12 14 13 12 10 10 10 9 9 11 14 13 12 11 12 11 11 16 26 26 14 20 48 99 100 89 85 90 88 89 94 88 86 74 84 92 93 100 100 96 88 87 87 75 71 70 71
8 9 9 10 11 11 12 12 14 12 11 10 10 8 7 8 10 10 8 9 10 9 10 12 16 16 19 15 14 24 72 100 100 89 85 90 88 90 93 87 66 86 82 99 99 100 99 89 84 90 87 93 82 86
8 8 9 10 11 11 12 11 12 12 11 10 9 8 7 8 9 8 6 8 7 9 10 11 8 7 9 10 11 21 31 94 100 99 93 87 88 92 95 81 66 82 92 100 100 100 100 95 91 94 83 88 76 83
7 8 8 9 10 10 10 11 12 11 10 10 8 8 7 8 9 6 6 6 8 7 5 4 5 6 7 8 10 20 24 57 100 100 96 84 90 93 85 79 93 89 96 98 88 82 82 79 77 80 83 80 90 83
7 7 7 8 8 9 8 10 10 10 10 11 9 8 7 8 8 7 6 7 6 4 3 4 5 6 7 9 13 21 23 30 79 98 95 95 95 93 82 91 93 89 95 98 94 90 80 70 74 88 94 84 72 62
6 6 6 7 8 8 8 10 10 10 10 10 10 8 7 8 8 8 8 8 5 2 2 4 5 7 9 11 18 24 25 26 35 80 96 100 97 100 90 86 92 95 99 100 100 88 87 73 80 99 87 80 54 46
7 6 6 7 7 8 9 9 10 10 11 12 10 10 10 9 8 8 9 10 4 2 2 4 7 9 10 14 22 27 28 28 30 42 81 100 100 100 100 92 87 92 100 98 94 100 93 80 95 92 83 71 47 48
6 7 7 7 7 8 9 11 11 10 13 14 12 10 13 12 11 10 12 10 6 5 5 7 9 12 14 21 28 34 32 31 30 32 54 94 100 100 100 95 92 92 99 100 100 92 81 82 89 90 82 74 61 62
7 7 7 8 8 8 10 12 12 12 15 14 14 12 14 15 15 14 12 14 8 7 8 10 13 15 20 29 36 42 40 32 30 36 40 56 97 100 100 100 100 98 95 93 89 83 76 82 84 91 79 80 73 74
8 8 8 8 9 9 10 12 13 12 15 16 16 13 13 15 16 13 12 18 22 12 12 15 18 22 29 35 46 51 47 42 40 40 43 50 66 92 100 100 100 100 97 91 86 83 94 86 98 86 89 89 89 86
8 8 9 9 10 10 11 13 14 14 15 18 18 16 15 17 18 16 16 18 29 17 13 15 21 30 38 46 52 55 55 63 52 50 52 55 63 76 86 100 100 100 99 86 87 99 88 97 88 90 86 89 96 100
9 10 10 10 11 11 12 14 14 15 17 19 19 20 18 18 20 19 21 22 32 32 17 14 19 30 42 46 50 56 68 65 62 54 59 67 73 78 87 100 100 100 97 95 100 93 91 100 97 97 100 98 91 89
11 11 11 12 12 13 14 15 15 15 18 20 22 21 19 20 22 23 23 23 26 43 34 17 18 23 35 48 53 62 66 80 73 67 65 72 78 85 92 100 100 100 92 99 98 98 100 97 97 100 100 100 96 99
14 13 13 13 14 16 16 16 17 16 17 20 22 22 21 19 21 20 24 24 24 32 54 44 18 22 27 37 46 55 48 71 88 89 78 73 81 89 99 100 100 100 99 98 100 97 96 96 96 95 94 98 100 100
15 15 17 15 16 17 17 18 18 17 17 20 23 22 20 19 21 22 22 26 27 27 33 52 65 36 22 28 28 25 27 44 66 90 98 92 77 76 87 97 98 100 100 99 93 95 100 99 93 92 91 91 91 94
18 18 16 17 18 18 18 20 20 18 18 20 21 22 21 21 22 22 23 24 27 29 28 29 37 55 65 44 22 21 32 35 38 60 87 99 100 98 90 90 96 97 99 100 98 90 91 98 100 100 99 94 93 94
19 19 18 19 19 19 20 20 20 20 19 20 20 21 21 22 22 22 24 26 28 28 31 30 28 29 37 57 60 53 31 21 27 36 34 46 78 98 100 100 97 97 99 100 100 100 99 98 100 100 100 100 100 100
19 19 20 19 20 21 21 20 21 21 21 20 21 21 21 21 21 22 25 26 29 28 29 29 31 30 26 28 28 34 55 58 30 17 18 40 43 34 54 83 91 98 100 100 100 99 100 100 100 100 100 100 100 100
18 19 20 21 20 20 22 22 21 21 21 20 20 21 20 20 20 21 24 27 26 28 28 26 27 29 29 27 24 26 29 30 46 57 51 26 19 27 40 42 47 62 79 86 87 91 97 98 99 100 100 100 100 100
17 19 21 20 20 23 23 21 22 21 21 20 20 20 20 20 20 21 25 23 22 25 27 26 24 25 25 26 26 24 21 22 28 27 33 49 54 40 25 23 28 37 46 51 59 71 80 85 86 90 97 100 100 100
17 19 21 22 23 24 21 21 21 20 21 21 20 21 20 20 20 22 21 19 19 21 23 24 23 21 20 21 24 25 24 21 19 20 24 24 24 36 52 57 53 33 22 22 32 50 56 60 72 81 82 84 96 97
15 18 21 23 22 21 20 21 20 21 22 22 21 21 20 20 21 22 21 19 18 17 20 23 23 20 18 19 20 22 23 23 21 18 18 20 22 21 20 21 29 48 61 64 54 36 24 22 27 41 54 72 92 99
17 19 22 22 21 21 22 21 20 21 22 24 23 21 20 20 20 20 19 19 19 19 20 22 22 20 18 20 20 20 21 21 20 18 16 18 19 20 19 20 20 20 22 34 51 65 78 81 73 62 48 35 31 31
18 22 22 20 19 20 20 21 22 23 25 26 22 21 20 19 19 20 20 19 17 16 18 19 18 18 18 20 20 19 19 18 16 16 16 16 17 19 20 20 20 18 19 21 24 28 37 54 66 76 82 84 83 82
18 20 20 19 20 21 20 21 22 24 25 25 22 20 19 18 18 19 17 15 15 16 16 15 14 16 18 18 18 18 17 16 16 16 16 16 17 18 19 18 18 17 16 18 21 26 30 35 45 53 61 69 79 84
18 18 18 18 18 20 21 21 23 24 25 23 20 19 18 17 17 16 16 16 16 16 15 14 16 17 17 17 16 16 15 14 15 16 16 16 15 15 21 21 25 30 32 31 34 39 40 42 45 47 52 60 68 75
16 16 17 18 19 20 20 22 22 23 22 21 21 19 17 16 16 16 17 18 18 16 16 17 18 18 17 17 15 14 14 16 17 18 18 19 24 28 30 29 25 19 17 15 16 18 21 25 30 40 50 57 62 68
13 14 15 16 18 19 20 20 20 20 20 21 19 16 15 16 18 19 18 17 17 17 18 19 19 18 17 14 14 15 15 17 25 30 32 32 24 14 10 10 9 7 7 7 7 7 8 9 10 13 16 22 29 30
11 13 15 16 18 20 20 19 19 20 20 18 16 17 18 19 18 17 18 17 16 18 18 18 16 13 12 14 16 18 26 34 34 31 22 12 10 8 6 5 4 4 4 4 4 4 4 5 6 7 8 11 13 16
15 17 18 19 19 18 18 19 19 18 18 17 16 16 18 18 16 15 15 14 14 16 16 13 11 13 15 20 29 37 39 36 24 13 10 8 6 4 4 4 4 4 4 4 4 4 4 5 5 6 6 8 10 11

GFSWCAN_250_rhum_024.txt.gz
RH
8 8 8 8 8 8 8 8 9 9 10 12 14 13 12 11 12 12 13 13 15 14 13 22 24 18 23 22 35 78 91 90 86 88 87 91 92 86 81 81 91 90 87 76 65 66 71 76 64 84 94 77 86 96
7 7 7 7 7 7 7 8 8 9 11 13 13 12 11 10 11 12 12 12 14 14 11 12 19 21 18 30 20 46 84 88 89 89 91 94 92 95 93 90 92 88 89 79 67 71 64 66 70 89 79 89 100 95
6 6 7 7 7 7 8 8 8 9 12 11 10 10 9 9 8 9 10 11 14 14 14 9 10 16 24 19 30 19 50 91 89 92 95 94 90 94 90 95 88 86 90 84 76 75 76 80 86 82 84 94 96 78
6 6 6 7 7 7 8 7 7 8 10 9 9 9 8 8 8 9 9 10 10 13 13 9 10 12 18 19 24 30 20 70 98 100 95 95 96 90 87 88 83 81 77 87 91 93 98 95 89 80 81 83 84 81
6 6 6 7 6 7 7 7 8 8 8 8 8 8 7 7 8 8 8 8 7 10 9 8 10 10 12 16 22 34 24 32 87 92 96 98 97 93 88 81 75 86 83 90 87 100 100 100 97 89 83 88 99 90
5 6 6 6 6 6 6 7 8 8 8 9 8 7 7 6 7 7 6 6 6 6 6 7 9 11 11 17 24 34 39 21 46 84 92 94 99 100 99 75 79 87 82 88 84 95 78 80 87 87 88 100 98 84
6 6 6 6 6 6 6 7 7 7 7 8 7 7 6 6 7 6 7 6 5 5 6 6 5 5 6 11 19 28 35 24 26 58 79 82 99 100 95 78 90 86 79 83 75 82 71 72 80 87 100 100 99 88
6 6 6 6 6 6 6 6 7 7 8 8 7 7 6 7 8 7 7 6 5 6 7 4 3 4 5 7 8 11 20 20 19 36 60 79 99 98 91 88 91 89 76 77 81 82 70 77 84 90 99 94 82 75
6 6 6 6 6 5 6 6 7 8 8 8 7 7 6 6 7 7 8 6 6 7 6 3 2 4 6 7 8 10 13 15 17 25 49 93 100 96 88 97 93 90 79 74 79 82 82 80 80 88 88 77 74 77
5 5 5 5 6 6 6 6 8 8 8 9 8 7 7 8 8 8 9 8 8 11 9 5 4 6 8 10 11 12 13 15 21 23 41 77 99 100 95 97 99 92 86 76 79 80 82 82 86 81 74 84 88 81
5 5 6 5 6 6 6 6 8 8 10 9 9 8 8 9 10 9 11 11 12 13 10 6 6 7 9 11 12 13 16 22 24 25 28 55 93 100 99 100 100 100 97 89 84 88 87 84 86 78 84 85 80 89
6 6 6 6 6 6 7 8 8 10 10 12 11 11 10 10 12 13 13 14 15 15 15 10 9 10 11 12 15 20 24 26 26 26 28 36 75 95 100 100 100 100 100 100 100 99 90 92 98 87 81 66 70 91
7 6 6 7 7 8 9 8 9 10 11 13 12 12 11 12 16 16 16 16 17 16 16 15 11 11 15 17 21 25 28 34 36 36 33 31 37 80 100 100 99 100 100 100 100 100 99 96 95 79 69 72 79 89
9 8 7 8 8 9 10 10 10 11 13 15 14 13 14 16 17 18 18 16 18 18 18 21 15 13 17 25 30 32 37 45 53 46 39 37 38 42 83 100 100 100 100 100 100 98 99 97 88 73 76 75 80 97
9 10 9 9 10 10 10 11 12 13 15 16 16 16 16 17 19 20 19 18 19 20 22 25 22 16 19 24 32 32 33 44 54 63 52 45 45 44 47 72 99 100 100 100 97 99 93 93 80 80 92 92 88 94
10 10 12 12 12 12 12 13 14 16 17 18 17 17 16 20 20 20 20 20 20 22 23 28 28 21 18 21 22 28 32 39 52 70 68 57 49 51 52 54 67 93 99 100 98 94 96 91 79 98 100 100 100 96
12 11 12 13 14 13 14 15 16 18 18 19 18 19 20 22 21 21 22 22 22 25 27 26 34 40 24 21 20 19 16 32 45 62 84 85 63 55 60 62 70 87 100 94 100 100 100 98 80 94 100 100 100 98
11 12 14 14 14 15 16 18 20 20 19 18 19 21 23 23 22 21 24 22 22 25 29 28 28 35 48 35 22 20 22 30 34 45 69 100 99 84 68 72 72 80 94 99 95 100 100 100 98 91 94 96 100 100
10 13 15 15 15 17 18 19 20 20 20 20 21 23 24 23 23 22 23 24 22 22 26 29 29 25 33 49 54 49 31 19 26 36 37 45 71 87 95 86 81 83 91 99 100 98 97 100 100 99 97 99 93 89
10 13 15 15 17 18 20 22 24 22 20 20 22 23 24 24 23 21 22 23 22 23 25 28 30 32 32 32 32 35 61 60 37 21 30 39 40 42 46 56 71 75 82 88 94 95 97 100 100 100 100 99 97 97
11 12 15 16 18 19 24 23 24 24 22 22 23 24 24 24 22 21 22 22 22 22 25 28 31 30 29 33 33 30 28 30 35 60 61 26 22 23 39 58 55 70 75 82 88 94 96 97 94 96 100 99 99 100
10 11 13 16 18 20 25 23 25 26 24 23 23 24 24 22 21 21 21 22 20 20 24 28 27 28 29 30 30 31 30 28 26 27 27 36 62 48 25 18 25 53 66 63 67 75 81 88 94 96 95 97 100 100
10 11 14 16 20 22 24 24 25 25 24 23 22 23 23 22 22 22 23 21 19 21 25 25 25 25 25 27 28 27 28 29 29 27 25 23 24 30 47 64 57 35 20 30 51 65 71 73 75 79 82 85 89 96
9 10 15 19 22 24 24 24 23 23 24 22 21 22 22 21 21 22 22 20 19 24 25 22 24 25 22 21 26 26 24 23 23 23 25 26 25 21 21 24 29 42 58 54 33 24 30 44 66 82 85 87 87 84
9 12 16 23 24 23 22 21 22 22 22 21 20 20 21 21 22 22 21 19 21 23 20 20 22 20 19 18 22 25 25 23 21 20 21 22 21 22 21 20 19 21 24 29 44 52 52 43 27 23 32 51 75 94
11 14 18 22 21 22 20 20 20 20 20 20 21 22 21 22 24 22 20 20 22 21 20 20 19 18 18 19 21 23 22 21 20 20 20 21 21 22 21 19 17 17 19 21 22 23 25 38 53 54 49 32 27 34
12 17 22 22 19 17 18 18 18 19 20 21 22 22 22 24 23 21 20 20 20 19 19 18 17 17 17 18 18 18 18 17 18 19 20 20 19 19 19 18 16 15 15 17 19 19 20 22 24 29 35 47 56 58
15 17 16 16 16 18 19 17 17 19 21 22 23 23 24 24 23 22 22 20 19 18 17 17 17 16 16 16 16 16 15 15 17 19 20 17 15 15 17 17 15 14 14 14 16 17 18 18 18 19 21 24 33 46
16 16 15 16 16 18 18 17 19 20 20 21 22 23 24 24 25 24 22 21 19 17 17 16 16 16 16 16 15 15 16 18 20 20 19 16 14 13 15 14 13 12 12 13 14 15 17 18 18 18 19 20 22 24
14 16 15 16 17 17 17 17 18 19 20 21 21 22 24 24 24 23 21 20 18 16 16 16 16 17 17 16 16 17 18 18 18 17 15 13 12 12 12 13 13 14 18 26 31 34 38 40 42 46 45 45 46 44
13 15 15 16 16 15 15 17 18 20 21 21 22 22 22 23 22 21 20 18 16 16 16 18 18 16 16 18 18 17 16 16 14 13 13 12 12 12 13 19 25 27 23 17 14 13 12 12 12 13 15 20 31 48
11 12 12 12 12 13 15 17 20 20 20 21 21 21 21 21 20 20 18 16 16 18 18 17 17 17 15 16 16 14 12 12 12 13 14 15 24 27 26 19 11 10 9 7 6 5 5 5 5 6 7 9 12 16
6 8 9 11 14 15 16 19 20 20 21 21 21 20 19 19 17 15 16 16 16 17 17 18 15 14 15 15 12 11 12 13 16 21 27 26 18 10 9 7 5 4 4 4 4 4 4 4 4 5 5 5 6 8

GFSWCAN_250_rhum_027.txt.gz
RH
7 6 7 7 6 6 7 6 7 7 7 7 7 7 8 8 8 9 9 9 12 14 11 15 23 23 20 19 22 29 39 74 72 86 82 87 86 66 57 57 70 88 93 92 81 81 82 77 82 94 77 93 76 71
6 6 6 6 6 6 6 6 6 7 7 7 6 7 7 8 8 8 7 8 11 12 11 10 13 16 23 22 22 25 33 40 77 85 85 85 76 63 67 79 89 89 91 93 81 71 66 78 80 89 70 80 77 70
6 6 6 6 6 6 6 6 6 7 7 7 6 7 7 7 8 8 7 8 10 10 12 11 8 11 18 20 17 21 23 33 48 82 89 87 81 74 78 85 80 82 91 82 83 77 66 58 71 79 73 69 63 72
6 6 6 6 6 6 6 6 6 6 7 7 6 6 6 7 7 7 7 7 8 8 11 12 9 8 11 15 19 18 19 25 31 67 87 92 85 82 82 86 86 85 94 95 97 82 72 87 69 70 76 66 70 73
6 6 6 6 6 6 5 6 6 6 7 7 6 6 6 7 7 7 7 8 7 8 8 8 8 7 8 10 16 18 17 20 32 35 74 94 96 92 85 88 88 100 100 100 89 90 89 75 69 70 78 79 76 92
5 5 5 5 5 5 5 5 6 6 7 7 6 6 6 7 7 6 7 7 7 6 5 5 6 8 9 9 13 17 17 17 27 32 42 86 97 98 98 85 85 100 100 100 91 100 94 74 69 80 92 98 88 96
4 4 4 4 5 4 5 5 6 6 6 6 6 6 7 7 6 6 8 8 6 5 5 5 6 7 6 6 11 16 19 18 22 38 28 51 90 99 100 83 100 100 100 99 88 98 98 80 78 84 90 94 96 95
4 4 4 4 5 5 5 6 6 6 6 6 6 7 8 7 7 7 8 8 6 5 5 5 6 4 2 3 6 10 17 21 24 37 36 27 76 99 99 88 100 100 100 96 98 90 98 94 85 68 70 72 73 77
4 4 5 5 5 5 5 6 6 6 6 6 7 8 9 7 7 7 8 8 7 6 6 6 6 4 2 4 5 6 14 25 29 36 44 35 47 98 90 92 100 100 100 96 100 99 97 93 92 79 69 72 80 77
4 4 5 4 5 5 6 6 7 6 7 7 6 9 8 8 8 8 8 8 8 7 7 8 9 6 4 5 6 7 12 24 35 41 43 47 34 58 91 90 100 100 100 92 98 99 100 97 90 86 85 85 85 76
4 5 5 6 5 6 7 7 7 8 8 7 7 9 10 9 8 8 10 10 10 10 9 10 12 9 7 7 9 10 11 14 16 22 27 34 30 32 79 87 96 100 100 94 92 100 100 97 93 88 84 87 85 76
6 6 6 7 7 7 8 8 8 8 9 9 8 10 9 9 9 10 12 12 13 13 11 13 15 14 9 9 10 13 14 14 16 16 19 20 22 27 66 89 94 98 100 100 93 98 99 94 89 88 87 85 76 75
6 6 6 8 9 9 9 10 10 10 11 10 9 10 10 12 11 12 12 14 16 17 14 16 17 18 13 11 14 16 18 21 23 27 26 24 27 28 51 98 100 100 100 100 100 99 100 100 100 99 95 91 87 82
6 7 7 8 9 10 10 11 11 12 12 12 12 12 13 15 12 14 15 16 18 20 17 17 20 21 18 16 18 22 26 33 38 38 36 33 32 33 37 83 100 100 100 100 100 100 100 100 100 98 99 96 93 83
6 7 8 8 9 10 11 11 13 14 15 16 16 16 17 15 14 18 18 18 20 23 21 19 20 23 22 17 21 26 32 43 50 54 46 41 38 35 35 41 86 100 100 100 100 100 100 100 99 100 97 89 88 83
6 7 8 8 10 10 11 12 13 15 16 18 18 17 16 17 18 20 20 20 22 24 24 21 22 24 29 22 16 18 25 30 44 55 61 57 48 45 40 38 41 67 98 100 100 100 100 97 97 100 94 88 93 86
6 7 8 9 10 11 12 13 14 15 16 18 18 19 19 19 22 22 22 23 25 26 25 22 24 25 27 30 22 16 15 34 36 44 62 73 76 65 53 49 44 46 54 80 100 99 99 100 100 99 94 91 96 90
6 7 8 9 10 11 13 14 15 17 18 19 20 22 22 23 24 23 23 25 25 28 28 24 23 26 24 23 41 32 27 30 37 42 42 55 80 87 84 66 59 55 54 58 63 89 100 100 100 100 98 93 94 99
6 7 8 9 10 11 13 15 17 17 17 19 21 22 23 24 24 24 26 26 26 27 28 26 23 22 28 29 34 39 50 44 29 24 32 44 44 50 62 72 74 62 61 62 63 62 70 90 97 99 100 98 92 85
6 8 8 9 9 11 14 17 18 17 17 21 22 22 23 23 25 26 26 26 27 29 27 26 22 26 32 31 30 29 32 37 48 64 47 28 25 38 48 52 56 66 65 61 64 66 67 72 86 97 98 98 94 94
6 7 8 8 10 12 16 18 18 18 18 21 22 23 24 25 26 26 27 26 28 28 27 25 25 25 25 30 30 27 28 30 32 35 49 72 65 43 26 29 39 57 63 67 68 70 72 82 79 82 98 100 100 100
6 7 8 8 10 12 17 17 18 19 20 21 22 25 26 26 26 26 26 26 27 26 26 26 26 24 23 26 30 30 29 27 27 29 31 32 39 50 62 66 60 39 25 34 58 76 82 84 82 77 79 86 92 94
7 6 7 8 10 14 18 17 19 20 22 20 23 25 25 26 26 27 27 26 23 23 25 24 25 23 23 25 29 30 30 29 29 28 28 29 31 31 30 32 34 36 45 54 37 25 32 54 74 79 82 82 81 80
6 6 7 9 12 16 16 17 19 20 24 22 22 25 26 27 26 28 27 22 21 24 25 24 23 22 22 26 28 29 27 25 25 26 26 25 24 23 23 25 28 28 28 29 36 42 45 43 34 30 39 57 69 78
5 6 8 10 12 16 15 16 18 22 23 22 22 25 26 25 26 27 25 20 23 24 25 23 22 22 22 23 24 25 26 24 22 23 26 27 25 22 20 20 20 22 25 26 24 25 27 25 25 37 47 42 29 25
5 6 8 11 14 16 15 15 17 21 22 23 24 26 26 26 26 25 21 22 23 24 24 22 22 22 21 21 22 24 23 22 21 20 22 23 23 23 21 20 19 19 21 21 21 22 21 21 22 23 21 20 26 40
7 8 10 12 14 14 13 13 16 20 21 23 25 27 27 26 24 22 22 24 24 24 23 22 22 22 20 20 21 23 23 21 19 18 18 18 17 17 17 17 17 17 18 19 19 19 18 16 18 19 20 22 23 22
6 8 11 11 10 9 11 15 18 20 21 24 26 27 26 23 22 23 23 23 24 24 24 23 21 21 21 20 20 20 19 18 17 16 16 16 14 14 15 16 17 16 15 14 14 15 16 15 15 16 17 17 18 20
10 10 8 8 8 10 14 16 15 17 20 23 24 26 25 24 24 23 23 24 24 24 24 23 22 20 19 18 18 18 17 16 16 17 17 16 15 16 18 18 17 15 14 12 12 12 13 13 14 14 14 15 16 18
8 8 8 7 10 13 12 12 14 16 20 22 24 24 24 24 23 23 22 22 23 23 23 22 21 19 17 17 17 17 17 18 18 18 16 15 16 15 15 15 14 13 12 12 12 13 13 14 14 16 17 18 19 20
6 8 8 11 11 11 12 13 16 18 20 22 23 23 24 24 23 23 23 24 23 22 22 21 19 18 17 16 18 19 18 17 16 16 16 15 14 12 11 11 12 12 13 15 18 20 25 28 30 32 33 34 38 40
7 8 10 11 11 11 13 14 16 18 19 20 22 23 24 24 23 23 23 22 21 21 20 19 18 16 17 18 18 16 15 14 14 14 13 12 11 11 12 13 18 22 23 21 16 13 12 12 12 12 12 13 14 14
8 8 8 8 11 11 12 15 17 18 19 20 22 24 24 24 23 22 22 21 20 20 19 17 16 17 18 17 15 13 12 12 12 11 11 12 13 21 25 25 19 13 10 8 7 6 5 5 5 5 5 5 6 7

GFSWCAN_250_rhum_030.txt.gz
RH
9 9 8 7 7 7 6 6 6 6 6 6 6 6 6 7 7 7 7 8 9 10 10 12 13 12 16 18 22 21 26 27 30 44 84 68 75 90 89 89 90 89 96 87 91 80 82 86 83 98 100 100 98 89
8 8 8 8 7 7 6 6 6 6 5 5 6 6 5 6 6 7 6 7 9 10 10 11 10 11 16 18 20 21 22 22 24 31 71 75 74 87 98 89 93 76 68 62 65 80 82 92 95 100 92 84 84 80
8 8 7 7 7 6 6 6 5 4 4 4 5 5 5 6 6 7 7 7 8 9 10 9 9 10 12 16 18 23 24 19 23 25 36 86 76 81 96 86 68 55 54 63 81 92 93 95 95 98 94 85 77 74
6 7 7 6 6 5 5 5 4 4 4 4 5 5 5 6 6 6 6 6 7 8 10 9 10 8 7 11 16 20 18 20 21 24 30 58 81 75 95 84 63 59 68 75 89 99 96 91 87 81 72 71 73 66
5 6 6 6 5 4 4 4 4 4 4 5 5 5 5 6 6 6 7 7 7 9 8 9 9 6 7 8 11 14 14 16 17 22 24 32 72 78 89 94 69 75 84 96 76 98 93 84 76 64 65 70 65 72
5 5 6 5 5 4 4 4 4 4 4 5 6 5 5 6 6 6 7 6 7 7 7 8 7 6 6 7 8 8 11 14 17 19 22 28 40 85 87 94 82 97 90 92 84 95 90 87 91 85 88 77 78 85
4 4 4 5 5 4 4 5 4 4 5 5 5 6 6 6 7 7 7 6 7 7 6 6 6 6 5 6 7 8 12 14 15 17 19 23 31 77 90 94 88 100 97 100 89 95 93 80 92 99 97 94 88 81
3 4 4 4 5 5 5 5 5 5 5 6 5 6 6 6 8 8 7 7 8 9 6 6 6 6 6 5 4 3 6 13 16 18 18 21 35 48 99 88 95 100 99 100 98 96 96 91 86 96 99 90 85 84
3 4 4 4 5 5 5 5 5 6 6 6 6 6 6 7 8 8 8 7 9 9 8 7 6 6 6 4 3 3 4 13 18 20 18 21 34 44 67 85 91 100 100 100 99 100 100 99 100 100 100 100 88 76
3 4 4 5 5 5 6 6 7 6 6 7 7 8 6 6 9 9 8 8 10 9 8 7 7 8 8 6 4 4 5 9 16 18 23 24 32 43 38 65 92 96 100 98 92 100 100 100 100 100 100 100 99 96
3 4 4 5 5 6 7 7 7 7 7 8 8 8 8 7 11 10 10 10 10 10 10 9 9 9 11 9 6 6 7 9 12 20 26 28 28 42 48 40 66 92 100 100 92 91 98 99 100 100 100 97 100 97
3 4 5 5 6 7 7 8 8 8 8 9 8 10 10 11 12 12 12 12 12 12 12 12 10 11 13 12 10 9 9 11 13 18 32 34 33 42 55 54 39 69 100 100 99 92 100 98 100 100 100 100 98 100
4 4 5 6 7 7 8 9 8 9 9 9 9 10 12 13 13 13 13 14 15 15 15 15 13 13 14 17 14 13 13 14 15 16 17 20 35 36 42 51 56 41 74 100 100 96 100 100 100 100 100 100 98 99
4 5 6 6 7 8 8 9 9 9 9 9 10 13 15 15 15 13 15 17 18 17 17 17 17 16 18 19 19 17 17 18 17 18 19 20 20 21 23 28 37 42 38 94 100 100 100 100 100 98 100 100 100 100
4 5 6 6 7 8 9 9 9 9 9 11 12 14 16 15 17 16 16 18 19 19 19 20 20 20 21 24 24 22 22 23 28 29 32 32 30 29 26 23 23 26 31 52 100 100 100 100 100 95 100 100 100 100
4 4 5 6 6 8 8 9 9 9 9 10 13 15 17 17 18 18 19 21 20 22 21 22 23 23 24 25 28 24 24 34 45 50 48 43 43 43 38 34 32 31 29 41 80 100 100 100 99 96 100 100 100 99
5 5 5 6 7 8 9 9 9 9 9 11 13 16 18 19 20 20 22 23 23 24 25 25 26 26 26 27 27 31 26 43 47 53 58 64 62 62 55 46 40 38 37 36 48 96 100 100 98 98 100 100 99 100
5 5 5 6 7 7 8 9 9 9 10 12 13 15 17 20 22 23 23 24 25 26 27 29 26 30 27 24 28 38 32 28 38 44 49 47 44 52 56 56 51 48 42 40 39 46 81 97 100 96 93 97 100 99
5 5 5 5 6 7 8 9 9 10 10 12 12 14 17 20 23 24 23 24 26 28 28 31 31 28 25 26 34 32 35 42 32 27 29 38 48 57 58 58 57 49 44 44 43 40 39 46 66 88 98 98 97 94
5 5 5 5 6 7 8 9 9 10 10 11 13 15 17 20 21 23 25 25 28 30 31 34 28 22 30 32 29 30 33 36 52 62 54 43 31 31 41 51 59 67 73 68 57 53 49 46 44 48 53 64 78 90
4 5 5 6 7 7 9 10 9 10 10 11 13 15 18 20 22 25 26 27 31 32 30 26 24 29 31 29 27 31 34 34 35 36 43 47 55 68 61 39 34 40 55 62 74 79 79 75 64 57 54 62 70 72
5 6 6 6 7 8 10 10 9 10 11 12 14 16 18 19 21 25 29 32 30 26 24 26 28 31 30 27 28 26 28 32 37 38 37 36 35 35 37 42 51 59 55 40 33 43 59 67 73 81 83 79 75 74
5 6 6 7 7 8 11 10 9 10 12 12 15 18 19 20 22 27 30 30 26 24 26 29 29 31 28 25 23 23 24 27 31 33 36 36 35 35 38 39 37 36 37 40 42 46 50 50 40 32 40 48 61 73
5 6 6 7 8 9 11 10 9 10 12 12 14 19 19 21 26 29 29 25 24 29 30 30 30 27 27 27 25 25 24 23 27 31 33 32 32 32 32 32 32 32 32 32 33 31 28 26 27 30 41 44 32 25
4 5 7 7 8 10 9 9 8 9 11 12 16 18 18 24 31 31 26 24 27 29 29 29 28 26 25 24 25 25 25 24 24 23 25 26 24 26 26 27 26 25 26 24 23 22 22 24 24 23 21 21 24 30
5 6 7 8 9 10 9 9 8 9 10 13 16 16 19 26 31 30 25 26 27 28 29 27 25 24 24 24 25 25 24 22 22 22 23 23 22 20 20 21 22 23 25 23 21 20 19 19 20 21 22 22 21 20
5 6 6 7 8 8 9 8 6 8 10 15 15 15 21 27 29 27 27 28 27 27 27 26 26 25 25 25 24 23 22 22 22 21 21 21 20 20 19 19 19 19 18 18 18 17 17 17 17 18 19 19 20 20
5 5 6 6 6 6 6 5 7 9 11 12 13 16 23 24 25 27 28 27 28 28 27 26 25 25 24 24 23 23 22 22 21 20 18 18 18 18 17 17 16 16 15 15 14 14 14 15 17 18 18 17 16 17
5 5 5 6 6 6 6 6 6 8 11 11 13 20 23 22 24 26 25 26 25 25 25 25 24 24 24 24 23 23 22 20 19 18 18 17 17 16 16 15 14 14 14 13 12 13 14 16 16 16 16 16 16 16
4 4 5 6 6 7 8 8 8 9 10 13 17 20 21 22 24 24 25 25 25 25 24 24 25 26 25 24 23 22 20 19 18 17 17 16 16 16 16 16 16 15 15 15 15 14 14 13 12 12 13 13 13 13
4 4 4 5 5 5 7 9 10 13 15 17 18 19 19 22 22 23 24 24 24 24 25 26 25 25 24 23 22 22 21 19 17 16 16 16 15 15 14 14 14 15 14 14 12 12 12 12 13 13 14 14 14 15
3 4 4 5 6 7 9 10 12 14 17 19 18 18 19 20 21 22 22 24 24 25 24 24 23 24 24 23 23 22 18 16 16 16 16 15 14 13 13 13 12 11 11 11 15 21 27 27 26 26 28 26 24 24
4 4 6 7 7 8 10 12 13 14 16 17 18 18 19 20 21 21 23 21 22 23 22 22 23 23 23 23 20 17 16 16 16 16 14 12 12 12 11 10 12 20 24 21 15 12 9 8 8 8 7 7 7 8

GFSWCAN_250_rhum_033.txt.gz
RH
4 4 5 8 11 12 9 8 7 6 6 5 4 4 4 4 5 5 5 6 7 8 8 8 9 12 15 18 19 20 22 22 23 25 25 36 91 92 86 90 100 100 100 100 100 95 100 97 100 100 100 98 96 99
3 3 4 5 10 10 9 7 6 6 5 5 4 4 4 4 5 5 5 6 7 8 8 8 9 11 11 13 16 20 26 24 22 25 25 27 58 87 78 85 93 98 100 100 95 88 96 91 100 100 100 95 96 97
3 3 3 4 6 9 7 7 6 6 5 5 4 4 4 5 5 5 5 5 6 8 8 8 8 10 10 11 15 17 18 21 21 23 24 24 32 74 79 81 92 93 100 96 95 90 93 84 90 94 92 93 93 98
3 3 3 4 6 7 7 6 6 5 5 5 5 4 4 5 5 5 5 5 6 7 8 7 8 9 9 8 9 14 14 14 19 18 24 27 26 43 86 79 91 96 100 94 84 84 71 61 76 83 79 79 91 94
3 2 3 4 5 6 6 6 6 5 5 5 5 4 5 5 5 5 5 5 6 7 8 7 8 9 9 8 8 7 9 12 14 16 18 24 24 27 73 86 89 100 100 83 58 65 65 66 83 78 75 94 100 99
3 3 3 4 5 5 5 5 6 5 4 4 5 5 5 5 6 5 5 6 7 7 6 6 7 8 8 6 7 7 7 10 11 13 18 20 22 26 47 82 76 100 97 72 59 68 66 71 82 79 69 73 72 71
3 2 3 4 4 5 5 5 6 5 4 5 5 5 5 5 6 6 6 8 8 7 6 7 6 7 6 6 6 6 7 8 9 13 16 20 20 25 33 77 68 98 96 75 63 72 74 74 77 82 84 83 76 77
5 3 4 3 4 4 5 5 6 5 6 6 5 5 6 6 6 6 7 8 9 7 7 7 6 7 6 5 5 6 6 6 8 13 17 18 21 26 32 34 71 92 98 82 68 76 79 78 79 85 84 93 93 97
5 4 3 3 3 4 6 6 6 6 7 7 6 6 7 6 7 6 8 10 11 9 9 8 8 7 7 6 6 6 4 3 5 14 16 19 23 28 26 26 50 89 95 95 81 82 92 82 83 91 91 90 97 97
6 3 3 3 3 4 5 7 7 7 7 8 7 8 8 7 7 6 9 13 14 11 10 10 9 8 7 8 7 6 4 3 4 9 25 26 25 23 23 24 33 78 90 100 97 95 96 93 90 99 96 97 97 100
5 3 3 3 3 4 5 7 8 8 8 8 7 8 8 8 8 8 10 14 15 12 12 12 11 9 8 9 10 8 6 4 4 8 21 29 22 22 25 26 32 41 92 99 100 100 97 95 96 100 100 100 99 98
5 4 3 3 3 4 6 8 9 9 9 8 8 9 8 8 11 10 13 14 15 14 14 14 13 12 10 11 12 11 9 8 7 8 16 25 23 28 28 27 26 36 48 92 99 100 99 93 94 100 100 100 100 100
5 4 3 3 4 5 7 8 9 9 10 9 9 9 8 8 12 12 15 18 17 17 17 15 16 14 13 14 14 15 12 12 11 10 10 12 27 32 32 30 28 38 44 48 96 100 99 100 96 100 100 100 100 100
5 4 4 4 4 5 6 8 8 9 10 10 9 10 10 10 12 14 17 17 19 19 18 17 19 16 16 16 19 18 18 16 15 15 14 16 22 24 29 35 34 33 47 51 47 83 100 100 96 99 100 99 100 100
4 4 5 5 5 6 6 7 8 9 10 10 9 9 10 12 12 15 16 18 20 20 20 20 21 20 20 18 22 24 23 22 21 19 19 20 20 21 23 25 29 37 42 53 61 56 63 99 100 100 100 100 99 100
4 6 6 5 5 6 6 7 8 9 9 10 9 10 11 12 13 16 16 18 20 22 21 22 24 24 24 24 20 23 30 28 28 31 31 31 31 31 28 26 24 22 23 27 36 51 64 60 88 100 100 100 100 100
5 8 7 5 6 6 7 8 8 8 8 9 9 10 10 12 13 15 17 19 20 24 23 24 27 27 28 27 23 23 33 41 35 35 33 35 36 35 37 36 37 39 35 30 26 27 40 49 52 83 100 98 98 100
6 7 6 6 5 6 6 7 8 8 8 8 9 9 10 12 13 15 17 18 20 24 24 28 29 28 32 28 24 26 37 40 36 28 39 48 49 45 45 49 48 46 42 38 34 32 30 33 42 50 86 96 97 96
5 6 7 7 5 6 6 7 7 8 8 8 8 9 9 11 13 16 18 20 21 26 27 32 34 33 26 24 29 34 30 36 42 39 27 33 47 53 56 55 52 55 57 56 47 38 36 37 38 39 55 82 91 94
5 6 7 6 5 5 6 6 7 8 8 8 8 8 9 10 12 16 20 21 24 26 31 34 31 23 21 28 35 36 30 29 37 44 44 35 33 34 38 44 52 55 58 69 75 79 72 57 46 41 43 46 54 70
4 5 6 5 5 5 6 7 8 8 7 7 7 8 9 11 13 17 21 22 24 25 22 23 23 24 29 38 38 34 30 29 32 35 37 43 54 56 55 55 47 33 30 36 43 54 67 79 81 72 60 55 55 54
4 5 6 5 4 5 6 6 8 7 7 7 6 9 10 11 14 18 22 21 21 20 24 26 30 33 35 36 37 32 31 30 30 34 39 40 39 39 40 44 48 53 62 64 57 42 35 38 45 53 61 63 63 63
4 5 5 5 5 6 6 6 8 7 7 7 7 9 11 12 15 20 20 22 23 23 26 27 29 30 32 32 31 29 32 33 30 29 32 40 43 44 44 44 46 42 39 36 33 34 40 48 52 51 48 44 40 35
5 5 5 6 6 6 7 7 7 8 7 7 7 10 11 12 15 19 18 24 26 25 27 28 30 28 28 29 29 31 32 32 30 28 30 32 38 44 44 43 38 36 37 37 35 33 34 34 32 32 30 28 27 26
5 5 6 6 6 6 6 6 6 7 7 7 8 10 11 12 14 16 18 26 25 26 28 28 29 29 28 29 31 30 28 28 27 27 26 26 25 26 29 33 35 38 37 32 31 31 31 30 27 26 25 24 22 22
4 4 5 4 4 4 6 6 5 6 6 7 9 10 10 11 13 16 18 22 25 27 28 28 28 27 27 28 28 28 28 27 25 23 25 24 23 24 24 25 24 26 26 24 23 24 25 25 24 22 22 22 22 21
4 4 4 4 4 4 5 5 4 5 6 7 9 8 9 10 13 15 16 22 24 27 28 28 28 29 29 28 27 26 26 25 24 24 23 22 22 22 22 22 21 21 21 20 19 18 18 19 19 18 18 17 17 18
3 3 3 3 3 5 5 5 5 5 6 7 8 7 9 10 11 13 16 21 23 25 28 29 28 28 28 28 27 27 26 24 24 24 23 22 23 22 21 20 19 19 19 18 17 16 15 15 15 15 15 15 14 15
2 2 3 3 4 4 5 4 5 6 7 8 8 8 9 10 11 14 16 20 23 25 26 27 26 25 25 24 24 24 24 23 23 24 24 23 22 21 20 19 18 17 16 15 14 14 14 14 15 16 16 16 16 17
2 3 3 4 4 4 4 4 5 6 8 10 10 10 11 11 14 16 18 20 22 25 27 26 24 24 24 23 23 23 23 23 24 24 22 22 22 21 19 17 15 14 14 15 15 15 15 15 14 14 14 14 14 13
3 3 3 3 3 3 4 5 5 7 9 10 10 11 12 15 17 18 20 21 22 23 24 25 25 23 23 23 23 24 24 24 23 23 22 22 20 18 15 15 15 16 16 16 14 13 13 13 13 12 11 11 11 11
3 3 3 3 4 5 6 6 7 8 8 8 8 11 14 16 19 20 20 21 21 21 22 23 22 22 22 22 23 23 24 23 23 22 20 18 16 15 15 15 15 14 13 12 12 11 10 11 13 16 19 22 22 23
3 3 3 4 5 5 5 6 6 7 7 7 9 13 14 14 16 19 22 22 20 19 20 20 20 21 21 22 22 22 22 22 20 18 16 14 14 14 15 13 12 11 10 11 14 19 23 23 22 19 14 11 10 10

GFSWCAN_250_rhum_036.txt.gz
RH
6 5 4 4 6 7 9 11 9 7 6 6 6 5 4 4 4 4 5 5 5 5 6 7 9 9 11 12 13 14 19 18 18 24 24 25 29 64 89 92 100 100 100 93 91 96 100 98 96 98 96 100 100 100
10 6 4 4 5 6 7 7 11 7 5 6 5 4 4 4 4 5 5 5 5 5 6 7 8 9 10 11 14 15 17 17 18 19 22 23 27 30 82 85 93 100 100 100 96 92 97 100 100 100 99 96 96 95
18 7 4 4 5 5 5 8 8 7 6 5 4 4 4 4 4 5 5 5 5 5 6 7 9 10 10 10 12 13 13 14 17 19 19 23 26 25 37 80 80 96 100 96 95 93 100 98 94 100 100 95 89 92
29 16 5 4 5 6 6 6 6 7 6 5 5 4 4 4 4 5 5 5 5 5 6 8 8 8 8 9 10 11 11 12 14 16 18 20 25 26 27 51 80 86 98 92 94 95 91 98 95 96 95 90 90 95
28 22 10 6 5 6 6 6 7 7 6 5 5 4 5 5 4 5 5 5 6 6 7 8 8 8 9 9 9 10 9 9 11 13 17 22 22 26 26 28 75 75 86 90 90 94 90 88 99 97 91 86 85 100
33 18 9 13 5 6 4 6 7 9 6 6 4 5 5 5 5 5 5 6 7 7 8 9 10 8 8 8 8 8 8 7 8 12 14 18 22 21 26 29 29 76 72 86 84 93 93 88 88 90 82 75 83 88
31 23 17 11 7 5 4 5 7 9 6 6 5 5 6 6 6 6 6 7 8 8 8 9 9 8 8 6 6 7 7 7 7 9 11 15 16 18 28 30 23 52 83 72 81 85 88 70 74 67 66 77 81 80
31 27 24 13 8 4 4 5 8 8 6 6 5 6 7 7 6 6 7 8 9 10 10 10 10 10 8 6 6 6 6 5 6 8 9 12 16 19 27 24 24 31 75 77 74 83 76 62 62 64 66 80 82 78
37 23 21 16 11 7 4 6 8 7 7 7 7 7 8 7 7 8 8 8 10 11 11 10 10 10 8 6 6 6 6 5 6 6 8 12 15 23 20 20 24 30 40 81 77 82 73 61 65 71 66 75 88 84
44 32 20 17 11 6 6 5 7 6 8 8 8 8 7 7 7 8 9 10 13 13 14 12 12 11 9 7 7 7 7 6 5 4 5 9 14 15 17 20 24 29 31 63 90 80 80 61 67 77 72 75 80 84
40 29 29 14 8 4 4 6 6 6 9 9 9 8 8 7 8 8 10 13 14 15 15 14 13 12 11 9 9 8 8 8 5 4 8 11 13 17 20 23 26 28 29 34 72 85 76 68 62 77 81 82 81 86
41 42 27 11 7 4 5 6 5 7 9 9 9 8 8 8 8 8 10 14 15 16 16 15 16 14 13 12 11 10 10 9 7 7 10 14 20 23 25 24 25 28 29 31 37 74 83 76 69 73 94 98 90 88
66 42 8 8 6 5 5 5 6 8 9 9 10 10 8 9 8 8 12 15 15 17 18 17 19 17 16 16 14 12 13 13 11 9 9 15 25 30 29 30 28 27 28 31 35 41 78 82 77 78 93 100 100 100
66 14 9 6 6 6 5 5 7 8 8 8 9 9 8 8 8 8 11 14 15 16 19 19 21 21 19 18 18 16 16 16 14 14 14 14 20 22 24 25 28 31 30 30 31 35 41 72 91 89 84 94 100 100
38 10 7 5 5 5 5 7 8 8 8 8 8 9 9 7 8 9 11 13 15 16 19 21 22 23 22 23 21 18 20 23 22 18 16 15 16 18 20 26 31 35 36 35 32 31 39 44 64 98 97 90 95 100
12 8 6 4 4 6 7 8 9 8 8 8 8 9 9 8 8 9 10 13 14 15 19 23 24 25 25 25 26 24 20 22 26 25 25 21 18 19 20 20 21 25 31 35 36 36 36 49 49 52 86 93 95 99
8 7 6 5 4 6 8 9 7 8 7 8 8 8 8 8 8 9 10 12 14 16 19 23 25 25 27 31 27 24 24 27 34 33 29 27 24 24 26 26 25 22 20 19 22 31 39 41 50 57 53 57 81 95
8 6 6 6 5 6 8 9 9 6 8 7 8 8 8 8 8 9 10 11 13 16 18 23 27 28 29 28 26 24 25 29 44 41 36 29 30 34 35 38 41 44 45 42 37 34 28 27 29 40 56 64 63 63
7 6 5 5 6 6 8 9 10 7 7 8 7 7 7 7 8 9 9 10 12 14 18 22 27 25 21 20 24 28 32 33 33 32 40 37 32 29 40 42 40 45 48 53 57 61 55 44 38 32 31 34 45 59
7 6 6 6 6 6 7 9 11 6 6 7 6 6 6 7 7 9 9 10 11 13 18 22 24 24 22 27 30 36 36 39 32 29 37 47 43 33 32 40 47 49 47 44 44 49 56 61 67 62 49 43 39 39
8 7 6 7 5 6 7 9 8 5 5 6 5 5 6 7 8 9 9 9 11 14 20 21 23 25 25 28 33 36 34 34 32 28 27 32 40 44 42 35 36 34 31 30 28 30 39 48 55 65 69 69 62 52
8 8 8 6 4 5 6 7 5 4 4 5 5 5 7 8 8 9 8 9 11 15 17 18 22 28 30 28 32 35 30 24 26 32 32 31 32 35 40 51 55 55 59 61 65 65 60 43 33 35 45 52 63 72
7 6 5 4 4 5 7 6 4 3 4 5 6 6 7 8 8 9 8 9 13 14 16 18 23 28 29 29 30 33 32 25 30 36 31 26 26 30 32 33 33 34 34 33 32 32 34 37 42 50 53 53 52 46
4 3 3 3 5 5 5 4 4 4 5 6 6 6 7 8 8 7 8 11 12 13 15 18 22 26 28 28 29 33 36 31 30 32 35 37 31 27 27 30 31 33 34 34 32 33 34 34 31 32 32 32 32 33
3 3 4 5 6 5 4 4 4 5 6 6 6 6 7 8 7 7 8 10 12 12 14 19 21 25 28 28 29 30 31 31 31 31 33 35 32 29 27 26 26 27 28 30 33 33 32 31 31 32 31 30 27 25
4 4 5 5 4 4 4 4 4 4 4 5 5 6 7 7 7 7 8 10 12 12 14 17 19 23 26 27 29 31 32 31 29 28 28 28 27 26 26 26 26 26 25 24 25 27 28 28 26 25 24 23 22 22
4 3 3 3 3 3 3 3 4 4 4 4 5 6 6 7 7 7 8 10 12 12 14 17 19 22 25 26 27 28 30 30 28 26 26 26 25 25 25 24 23 23 23 22 21 21 21 21 21 22 21 20 18 18
2 2 2 2 2 3 3 3 3 3 4 4 5 6 8 8 7 7 9 10 11 12 14 17 19 22 25 26 27 28 28 27 27 26 25 25 24 24 23 23 23 22 22 22 21 20 20 19 18 18 17 16 16 16
2 2 2 2 2 3 3 3 3 3 4 5 6 7 8 8 7 8 9 10 11 12 15 18 19 21 24 25 26 27 26 26 25 25 25 25 25 24 24 23 22 22 21 20 20 19 18 16 15 15 16 16 15 15
2 2 3 3 3 3 3 3 3 3 4 5 6 6 7 6 6 9 10 10 12 15 16 18 20 23 24 25 25 24 24 23 24 24 24 24 23 23 23 23 22 22 20 18 17 16 16 15 15 16 16 16 16 15
2 2 2 2 2 2 2 3 3 4 5 5 6 6 5 6 8 9 10 11 14 16 18 20 23 24 24 24 23 23 23 23 22 22 22 22 22 23 23 22 20 19 18 16 15 14 14 15 15 14 13 12 12 12
2 2 2 2 2 3 3 4 5 5 5 5 5 5 5 6 7 8 9 12 14 16 19 21 23 24 24 23 23 23 22 21 21 21 21 21 21 20 18 18 18 17 15 14 14 14 13 12 11 10 10 10 11 14
2 2 3 3 3 4 4 4 4 4 4 4 4 5 5 6 7 7 11 13 15 17 19 21 23 24 23 22 22 22 22 21 21 21 19 18 17 17 17 15 13 13 13 12 11 10 10 10 12 17 19 18 15 13

GFSWCAN_250_rhum_039.txt.gz
RH
48 40 23 14 8 10 14 13 17 12 14 10 10 9 4 4 3 3 4 5 6 7 6 6 7 7 9 10 12 12 15 16 14 16 17 20 24 28 34 67 70 76 82 90 95 80 84 86 93 94 98 94 100 100
44 40 41 18 7 7 10 12 14 11 12 10 11 8 4 4 3 4 4 5 5 6 7 7 7 8 9 10 12 12 13 15 16 19 19 18 22 29 29 42 74 73 77 86 87 97 82 77 87 96 100 100 100 100
59 47 44 23 6 6 9 6 8 8 11 12 11 6 5 3 3 4 4 5 5 5 7 8 8 8 10 11 13 14 12 13 16 19 21 20 22 26 31 30 42 83 79 75 85 90 96 89 90 96 99 97 96 99
62 57 51 33 20 10 7 6 8 8 8 10 11 7 6 4 4 4 5 5 6 6 7 9 9 9 11 12 12 12 12 12 12 14 17 19 22 26 25 32 33 56 82 76 78 85 96 97 96 92 91 91 91 88
68 55 45 29 23 8 13 9 7 6 7 8 10 8 7 5 5 5 5 6 6 6 7 9 10 10 12 13 12 10 10 12 14 14 15 17 20 23 24 24 35 39 58 77 74 82 89 95 98 97 100 97 96 93
72 54 44 30 23 8 7 8 6 6 6 9 9 19 18 6 6 6 7 6 7 7 8 10 11 12 12 11 10 8 11 14 13 11 11 12 17 18 19 23 31 32 39 63 74 75 88 92 94 92 93 95 98 94
69 59 47 34 19 5 10 8 6 5 8 9 9 13 11 7 8 7 7 7 8 8 9 12 13 13 12 12 9 10 10 10 8 8 10 12 12 13 18 23 30 24 32 39 57 77 81 86 96 90 93 93 94 100
57 47 47 29 16 14 8 8 6 6 7 11 9 14 8 8 8 8 7 8 8 9 10 12 13 14 12 11 9 9 9 8 7 7 8 9 8 9 19 26 19 18 28 34 38 56 82 82 87 88 88 93 99 100
57 46 47 39 24 14 14 6 7 6 6 11 10 14 10 9 9 8 8 8 8 9 10 13 13 13 12 11 10 10 8 7 7 7 7 8 8 11 18 14 16 19 27 31 35 45 76 82 87 87 86 84 83 97
60 46 57 51 25 16 10 8 8 7 8 9 13 10 11 10 10 9 9 10 10 10 10 12 13 13 13 12 10 11 8 7 7 6 6 7 8 13 14 14 18 20 25 31 36 37 56 84 86 89 88 65 71 85
64 55 64 46 34 23 16 10 7 7 8 7 11 11 10 10 10 10 10 10 11 11 11 12 13 12 14 13 12 12 9 8 8 7 6 5 5 8 11 14 15 18 24 30 37 36 35 56 84 88 84 63 63 82
62 76 64 39 44 28 20 12 8 5 6 8 11 11 11 11 10 10 9 9 11 11 11 12 12 13 14 15 14 14 12 11 10 9 7 6 5 7 11 14 17 19 22 27 32 32 31 33 62 87 91 70 65 78
78 77 45 53 44 33 26 26 8 5 5 9 9 12 11 11 10 10 9 8 10 11 11 12 14 14 15 18 17 17 16 16 13 12 10 8 11 12 15 18 22 25 25 26 30 31 29 30 35 73 93 87 66 71
68 61 50 53 45 43 33 21 9 7 7 7 9 12 11 11 10 9 8 9 10 11 12 12 14 17 16 18 21 20 19 18 15 17 14 12 12 13 18 22 26 26 26 27 29 31 32 30 30 35 75 96 88 73
64 69 77 53 48 37 27 10 7 8 8 8 9 10 13 12 10 9 9 10 10 12 12 12 14 18 20 20 21 21 22 20 20 18 20 17 16 15 15 16 20 22 25 29 31 32 31 30 30 32 36 61 98 97
84 86 92 73 68 48 14 7 6 8 7 9 10 10 11 11 9 8 8 9 10 11 12 13 14 18 21 22 24 22 23 23 23 22 22 24 22 18 16 15 16 19 21 23 24 29 34 32 29 28 30 35 45 91
86 84 63 68 68 26 10 9 8 6 8 8 10 11 11 10 9 8 8 8 9 10 11 13 13 16 20 22 24 26 26 24 26 26 26 25 24 25 24 20 20 22 22 22 22 26 29 33 34 33 30 29 32 42
73 57 58 34 20 13 10 8 7 8 8 8 10 11 8 9 8 9 8 8 8 9 10 12 14 15 16 20 24 27 27 28 32 33 30 28 25 30 31 30 32 33 29 25 24 24 24 26 34 38 40 37 36 40
50 17 13 12 12 9 7 8 9 8 9 8 10 10 8 8 8 8 7 7 7 8 10 11 13 13 15 19 25 29 30 35 39 44 38 30 26 33 34 30 30 35 41 44 43 45 47 43 36 32 31 36 43 46
14 11 10 9 9 8 8 9 9 9 9 8 10 10 6 6 7 6 6 5 6 7 9 10 11 12 13 18 26 28 31 32 36 42 44 36 30 30 35 34 32 33 42 44 49 54 57 59 63 60 52 42 37 36
11 9 8 9 10 10 9 10 10 9 8 8 7 7 5 5 6 5 5 5 5 7 8 9 11 12 13 17 24 26 29 33 40 39 33 29 28 29 33 39 36 30 30 35 38 39 45 47 46 49 58 60 56 50
9 9 9 10 10 10 10 11 10 9 6 5 5 4 4 5 5 5 4 4 6 7 8 9 10 11 13 15 19 23 28 33 36 36 34 36 32 33 30 29 31 36 38 36 35 34 35 35 33 30 30 38 46 53
8 9 9 10 9 10 11 10 8 6 4 4 3 3 4 4 4 4 4 4 6 7 7 8 9 11 12 14 16 20 26 32 34 33 32 37 33 32 31 33 32 32 32 36 43 46 46 44 44 43 45 50 52 52
9 8 7 8 9 8 8 6 4 3 3 3 3 3 4 4 4 5 5 5 6 7 7 8 9 11 12 13 15 19 23 27 31 32 31 35 37 32 30 29 31 32 32 33 35 37 36 35 35 33 34 33 32 32
6 5 5 5 5 4 3 3 2 2 2 2 3 4 5 5 5 6 6 6 7 8 8 8 8 10 12 13 15 18 20 25 31 33 30 33 35 30 28 26 25 26 26 25 25 25 26 26 27 28 29 30 31 31
4 3 4 3 2 2 2 2 2 3 3 3 4 5 5 5 6 6 6 6 7 8 8 9 9 9 10 12 14 16 18 24 30 31 30 30 32 32 31 29 25 24 24 24 24 23 23 23 24 24 24 24 24 24
4 3 2 2 2 2 2 3 3 3 3 3 4 4 4 5 5 6 5 6 8 8 8 8 9 10 10 12 14 16 19 24 27 29 29 29 29 30 30 29 26 24 24 24 24 24 24 24 24 23 23 22 22 22
2 2 2 3 3 3 3 3 3 3 3 4 4 4 4 4 4 4 5 6 7 8 8 8 9 10 10 12 14 16 20 23 26 28 28 28 28 29 29 28 27 26 25 24 23 23 23 23 22 22 21 21 20 19
3 2 2 2 3 3 3 4 4 3 3 3 3 3 3 3 4 4 4 5 7 8 8 8 9 10 11 13 15 18 21 23 26 27 27 27 27 26 26 26 25 24 23 22 22 22 22 22 22 21 20 19 18 18
3 3 3 3 3 3 2 2 2 2 2 2 2 2 3 3 4 5 5 5 7 7 7 9 10 11 12 15 17 19 21 23 25 26 26 26 26 26 26 25 24 23 22 22 22 22 22 22 20 20 19 18 16 15
3 2 2 2 2 2 2 2 2 2 2 3 3 4 3 4 4 5 5 6 6 7 8 8 10 12 15 17 19 20 21 24 25 25 25 26 26 25 23 23 22 21 21 20 20 20 20 20 19 18 16 14 14 14
2 2 2 2 2 2 2 2 3 3 3 3 3 4 4 4 4 4 5 6 6 6 6 8 11 13 16 18 21 22 24 24 24 25 25 24 23 22 22 21 21 20 20 20 20 19 17 15 14 13 12 12 11 11
2 2 2 2 2 2 2 3 3 3 3 3 3 4 4 5 6 8 8 6 7 7 8 8 9 12 16 19 20 22 23 23 23 22 21 20 20 20 20 21 21 21 20 19 16 14 13 12 11 10 10 10 12 16

GFSWCAN_250_rhum_042.txt.gz
RH
55 47 46 36 25 24 24 27 36 27 23 27 23 18 11 10 6 5 4 5 3 3 4 5 7 9 10 12 13 12 12 13 13 15 16 16 22 23 25 27 32 48 73 67 61 62 70 78 83 86 82 75 84 88
59 54 47 38 33 35 25 19 30 25 22 20 20 18 12 10 5 5 6 4 3 3 4 5 7 9 11 13 13 14 13 13 15 15 20 18 18 28 27 28 29 39 64 80 80 74 64 68 77 88 85 81 82 86
70 62 58 51 43 35 26 16 17 18 21 19 15 18 11 11 6 5 6 5 4 4 5 6 8 9 10 12 12 13 14 13 15 18 22 30 24 21 27 27 28 34 39 69 80 86 82 76 72 71 82 88 92 96
78 74 71 46 41 33 27 21 19 19 19 17 14 14 12 10 5 6 9 5 4 4 6 7 9 10 11 11 13 14 15 14 15 14 18 23 26 26 21 24 28 31 38 40 60 81 91 91 93 89 79 86 93 96
80 73 71 48 42 34 32 19 16 22 18 16 10 13 10 14 6 10 9 6 5 6 7 7 10 11 12 13 13 15 15 14 15 16 16 18 20 20 22 19 29 29 31 34 37 66 86 88 97 99 92 86 88 94
85 78 66 54 46 41 34 23 22 19 15 8 12 12 10 17 12 19 12 7 6 6 8 8 10 12 13 13 14 14 14 14 14 14 17 18 21 14 16 21 28 25 20 27 35 39 79 91 88 99 100 100 97 91
92 78 68 56 52 47 38 32 23 14 17 18 25 14 13 20 13 29 12 8 7 8 9 9 10 12 13 13 14 14 14 11 11 13 14 15 15 9 11 16 26 18 19 21 32 33 54 96 95 98 100 99 94 94
98 91 78 60 53 62 49 34 27 17 16 17 19 18 15 19 12 46 15 8 8 9 9 9 10 12 13 13 13 13 12 11 11 11 13 12 11 7 10 21 20 17 18 19 26 29 34 50 92 96 100 100 100 99
99 89 75 63 70 57 48 28 27 20 24 17 19 11 14 19 15 48 16 9 9 10 10 10 10 12 13 14 14 12 12 11 11 10 9 8 7 8 8 10 14 15 17 21 26 29 32 36 51 81 97 100 97 98
90 76 80 74 69 72 64 50 35 24 19 20 16 15 12 25 18 56 16 10 9 10 10 10 10 11 12 13 12 12 11 11 12 9 8 8 8 8 8 11 12 13 17 22 24 29 31 36 38 43 74 100 96 91
99 87 90 88 92 77 72 60 38 30 23 20 15 18 16 20 16 21 15 11 10 9 9 9 10 11 12 12 13 13 11 10 12 10 9 8 8 7 8 9 13 18 22 24 26 29 33 34 36 37 43 81 100 97
94 97 94 98 91 88 74 56 58 36 31 18 13 11 18 14 17 16 14 13 12 10 9 10 10 11 12 13 13 13 12 12 12 12 10 9 8 6 5 6 10 14 19 22 24 27 29 32 32 36 37 50 89 98
100 100 100 95 94 92 76 62 51 42 35 21 19 18 12 16 14 14 14 13 11 10 9 10 11 12 12 13 13 13 14 13 14 14 12 12 10 8 6 8 11 17 21 23 26 28 27 29 31 32 36 38 56 97
100 100 100 100 100 95 74 73 43 41 22 36 17 19 12 10 12 13 14 12 10 9 9 10 10 11 12 13 15 12 14 17 17 18 16 16 14 12 11 9 13 18 23 25 25 24 26 30 33 35 36 37 38 59
100 100 100 100 99 79 76 52 47 36 32 22 16 14 15 11 11 12 14 12 10 8 8 9 10 12 11 13 15 15 15 17 22 22 20 20 18 17 15 14 15 19 22 24 25 27 29 30 32 34 34 34 33 34
100 100 100 87 88 79 63 51 36 32 29 18 17 18 11 10 11 11 11 11 9 8 8 8 9 11 11 11 14 16 14 15 19 26 24 22 23 22 22 19 16 16 19 26 30 32 33 33 31 31 32 32 32 33
100 100 98 91 81 67 45 37 31 26 18 19 28 14 10 9 10 12 11 9 8 8 7 8 8 9 10 11 13 14 12 15 19 28 30 29 29 29 26 25 24 24 22 22 25 26 28 31 30 31 34 34 33 32
100 100 100 81 58 47 36 29 21 16 18 28 19 11 11 10 9 12 11 7 8 7 7 8 8 8 9 10 11 14 16 15 17 24 30 31 30 33 35 35 32 31 29 25 23 22 23 23 21 21 24 30 35 34
100 100 83 50 39 33 28 19 18 15 21 22 12 11 10 9 8 9 10 6 6 6 6 7 8 7 8 10 11 12 14 14 17 23 26 28 28 30 30 34 32 32 33 35 36 35 34 34 32 28 24 23 28 36
80 62 35 29 24 22 16 17 21 17 13 14 12 11 9 8 7 7 7 5 5 5 5 6 6 7 7 8 10 12 13 14 15 22 28 30 30 28 29 27 27 32 36 35 35 42 49 53 54 55 51 44 36 31
26 23 20 20 17 17 19 17 11 12 14 16 13 10 9 8 6 6 5 4 4 4 4 5 5 6 6 7 9 11 12 14 14 17 25 27 29 29 29 30 29 28 35 36 33 34 41 46 54 59 58 58 53 52
18 17 14 14 15 13 10 10 13 14 14 12 10 8 7 6 5 4 4 4 4 4 4 4 5 5 6 6 8 11 12 13 13 14 20 25 27 28 28 28 31 33 33 31 36 35 31 34 38 40 43 43 43 46
13 12 10 9 8 8 11 14 15 13 10 9 7 6 5 5 4 3 4 4 4 4 3 4 5 5 6 7 8 9 11 12 12 12 17 22 26 26 29 30 31 32 30 28 30 35 42 42 40 38 37 38 43 46
10 8 8 7 10 12 14 13 10 8 7 5 4 4 4 3 3 4 4 4 5 4 4 4 5 6 6 7 8 9 10 11 12 13 17 21 23 24 28 29 29 28 30 29 26 27 30 32 36 36 36 34 32 32
7 8 9 10 11 10 9 8 7 5 4 3 3 3 3 3 4 4 4 4 5 5 5 5 6 6 7 7 8 9 9 10 11 12 16 22 22 24 28 28 28 25 27 29 29 27 25 27 29 29 30 30 30 30
9 10 10 9 8 6 4 4 3 3 3 3 3 3 3 4 4 4 4 4 5 5 5 5 6 6 7 8 8 9 9 10 11 12 17 22 22 22 26 27 30 27 27 29 30 29 28 26 26 25 25 25 24 24
7 6 5 4 3 2 2 2 2 2 3 3 3 3 3 3 3 3 3 3 4 4 4 4 5 5 6 7 8 8 9 10 11 13 18 22 23 22 25 27 30 30 28 28 30 30 29 27 26 26 25 24 24 24
6 4 3 2 2 2 2 3 3 3 3 3 3 3 2 2 2 2 2 2 3 3 4 4 5 5 6 7 7 7 9 10 12 14 18 22 22 22 24 25 25 27 27 26 26 28 29 28 27 25 24 23 23 23
3 2 2 3 3 4 4 3 3 3 2 2 2 2 2 2 2 2 3 3 4 4 4 4 5 5 5 6 7 8 9 10 12 16 20 22 22 21 24 25 26 27 27 26 26 25 25 24 24 24 23 22 22 23
3 3 4 4 3 3 2 3 2 2 2 2 2 2 2 2 2 3 3 3 3 4 4 5 6 6 6 6 7 9 10 12 15 18 20 21 21 22 24 24 24 24 24 24 24 23 23 22 22 22 22 22 22 22
4 4 3 2 2 2 2 2 2 2 2 2 2 2 2 3 3 3 3 3 4 5 6 6 7 8 8 8 8 10 12 14 17 19 20 21 22 22 23 22 23 23 23 22 22 22 22 21 21 21 22 22 22 21
3 2 2 2 2 3 3 2 2 2 2 2 2 3 3 3 3 4 4 5 5 4 5 5 4 5 5 6 7 9 12 14 16 18 20 21 22 22 22 22 22 22 21 21 20 20 20 21 21 21 19 17 16 15
2 2 3 3 3 2 2 2 2 2 2 2 2 3 3 4 4 5 4 4 5 5 5 6 7 8 8 8 8 10 12 14 16 19 20 20 20 20 19 19 20 20 20 20 20 19 17 16 14 13 12 11 11 10

GFSWCAN_250_rhum_045.txt.gz
RH
58 59 40 41 35 27 32 37 43 55 50 38 31 21 20 20 21 20 15 14 15 22 5 3 5 7 6 8 10 11 13 12 11 11 13 14 16 18 18 24 26 28 32 44 82 81 69 60 76 67 54 58 66 65
66 62 51 53 42 35 37 41 47 60 56 40 28 19 19 18 19 21 20 12 15 16 6 4 5 7 8 8 10 11 13 14 14 13 15 16 18 24 24 23 25 31 32 31 48 78 81 76 68 75 74 65 66 77
77 63 62 57 52 50 47 49 49 56 48 35 26 23 17 15 17 24 18 11 13 12 5 4 5 7 8 9 11 12 13 14 15 15 17 28 34 31 27 26 26 27 32 35 37 50 73 85 80 81 80 85 79 72
83 85 82 71 58 60 63 53 50 43 43 34 23 22 13 15 20 22 15 14 14 19 6 4 5 7 8 9 11 13 12 13 14 16 17 19 27 34 31 29 36 33 30 30 34 35 61 86 86 88 77 81 81 87
78 75 80 73 75 71 64 57 53 31 34 28 27 19 14 14 19 16 24 21 17 14 6 5 6 8 8 9 11 13 12 12 14 16 20 18 20 20 31 25 41 44 27 24 26 35 38 53 76 91 91 85 90 86
99 92 91 96 81 83 72 63 58 37 22 27 32 17 13 13 18 16 24 20 19 16 6 5 7 8 9 10 11 13 13 13 15 14 14 16 16 17 26 44 70 38 33 26 29 38 37 37 53 79 98 92 96 97
100 99 100 100 90 87 76 76 67 49 35 30 21 21 16 16 22 21 26 17 19 23 7 6 7 8 10 11 12 14 14 14 15 14 13 13 15 14 16 22 36 22 20 30 29 44 39 38 39 52 88 99 96 94
100 100 100 92 89 95 86 83 72 63 40 23 19 17 16 19 17 16 28 20 20 27 9 7 8 8 9 10 12 13 14 14 14 12 14 14 13 12 14 16 17 12 10 13 16 23 32 38 37 42 52 82 98 100
100 100 100 100 100 88 87 83 68 55 36 21 18 24 24 31 28 26 29 21 18 27 10 8 9 8 9 10 12 13 13 13 14 12 15 15 11 10 10 10 12 12 13 13 14 16 22 33 38 39 38 44 80 94
100 100 100 100 94 100 88 74 62 51 38 36 23 32 34 25 25 19 35 28 18 30 10 9 9 9 9 9 11 12 13 14 14 15 13 15 13 10 9 8 9 10 10 10 12 17 20 27 30 34 36 39 40 69
100 100 100 100 92 81 75 67 71 69 59 46 42 53 45 33 32 30 43 38 18 28 11 11 10 10 10 9 10 11 12 13 13 15 14 14 13 10 9 8 8 8 8 14 16 20 22 27 33 37 37 37 42 43
100 100 100 94 89 80 65 82 82 66 78 63 58 54 61 55 27 30 34 27 17 24 12 13 11 10 10 9 10 11 11 12 12 14 15 14 14 11 9 8 7 7 9 13 18 23 24 26 30 33 37 38 37 39
100 100 100 86 88 72 76 83 78 86 89 79 74 62 53 50 39 26 22 19 19 16 14 13 12 10 11 10 10 11 11 12 12 13 14 16 17 13 11 9 7 6 7 11 16 21 25 28 32 34 35 37 36 35
98 95 94 82 80 89 94 96 88 100 92 84 69 55 42 44 37 26 24 14 15 12 13 13 12 10 10 10 10 11 12 12 12 12 14 17 19 16 14 12 10 7 8 12 16 22 24 27 31 34 33 31 32 35
92 82 81 96 99 90 97 96 90 90 78 81 64 65 56 40 28 21 17 16 12 10 12 12 12 10 9 9 10 12 11 11 11 12 19 18 21 20 18 17 15 12 10 14 20 25 29 31 30 30 29 30 34 40
100 98 92 100 100 100 98 98 94 84 73 75 85 56 47 41 14 15 14 13 12 11 11 12 12 10 9 9 10 10 9 8 10 12 18 20 21 23 21 20 20 19 16 16 19 25 29 30 30 30 32 34 38 42
100 100 100 100 100 100 100 99 93 100 80 72 66 51 54 33 21 16 10 11 11 10 10 10 11 9 9 9 9 9 9 9 11 14 18 21 24 26 25 22 22 22 21 21 21 24 28 31 33 35 37 38 36 35
100 100 100 100 100 100 100 100 83 84 78 68 66 63 49 34 22 13 10 10 10 9 10 9 10 8 8 9 8 8 8 9 10 12 14 15 23 28 28 26 22 21 24 26 25 25 27 29 30 27 29 32 35 36
100 100 100 100 100 97 94 83 75 74 81 74 68 56 49 16 13 11 10 9 8 8 8 10 8 7 6 7 7 6 7 8 9 11 12 15 17 22 27 28 29 22 22 26 28 30 29 26 25 25 25 26 27 27
100 100 100 100 100 100 92 81 70 65 75 74 60 59 20 12 10 12 11 9 8 8 7 8 8 6 5 5 5 6 6 7 8 10 10 14 16 18 24 26 27 28 26 28 29 30 31 30 31 32 30 31 31 30
100 100 100 100 100 87 85 77 65 66 67 70 47 20 11 10 12 12 12 9 8 6 5 6 6 4 3 4 4 5 5 6 7 9 9 12 16 15 20 26 28 27 26 24 27 34 43 44 44 42 41 42 42 42
100 100 100 100 95 73 50 46 45 56 44 16 11 8 10 12 14 13 10 10 7 4 3 4 3 3 3 3 4 4 5 5 6 8 9 10 14 15 16 20 26 27 30 29 27 27 34 42 43 43 48 56 55 55
99 92 98 94 77 58 64 37 19 14 11 9 8 9 11 14 12 9 8 7 5 2 2 3 3 3 3 3 4 4 4 5 6 7 8 9 11 14 14 17 22 24 27 28 30 28 28 30 36 36 32 33 37 42
86 79 88 64 50 46 21 13 11 8 8 9 10 11 13 10 7 6 5 4 2 2 3 3 3 3 3 4 4 4 5 5 6 6 7 8 9 11 14 16 21 24 26 28 30 30 29 28 29 32 36 37 37 38
84 81 76 79 49 15 11 8 7 8 8 10 12 12 7 6 4 4 3 2 2 2 3 3 3 3 4 4 5 5 5 6 6 6 7 8 8 10 12 15 19 22 26 27 30 30 28 28 28 29 28 26 26 27
67 49 24 12 9 8 7 8 8 9 11 11 8 5 4 3 3 2 2 2 2 3 3 3 3 3 4 4 5 5 6 6 6 6 7 7 8 10 12 14 18 22 26 27 29 30 29 28 29 29 28 28 26 25
14 12 8 7 7 8 8 9 9 8 7 5 4 3 3 2 2 2 2 2 2 3 3 3 3 3 4 4 5 5 5 6 6 7 7 8 8 10 11 13 17 21 24 26 27 27 27 27 27 27 27 28 29 27
10 10 8 7 7 8 8 7 6 4 3 2 2 3 2 2 2 2 2 2 2 2 2 2 3 3 4 4 4 5 6 6 6 7 7 8 9 10 11 14 18 21 24 24 25 26 28 29 28 27 25 24 25 26
13 11 9 8 6 6 5 4 2 2 2 2 2 2 2 2 2 2 2 2 2 2 2 3 3 4 4 4 5 6 7 7 7 7 7 8 10 11 13 16 19 21 23 25 24 24 24 26 28 27 26 25 25 25
8 5 4 4 4 4 2 2 2 2 2 2 2 2 2 2 2 2 2 2 2 2 3 3 3 4 4 4 4 5 7 7 7 7 8 9 10 12 14 16 18 19 21 24 24 24 24 22 22 23 23 23 22 22
4 5 4 3 3 2 2 2 2 2 2 2 2 2 3 2 2 2 2 2 2 3 3 3 4 4 4 4 4 5 5 6 6 7 7 9 11 14 15 16 17 20 22 22 22 22 22 22 21 21 21 21 21 21
4 3 3 2 3 2 2 3 3 2 2 2 2 2 2 2 2 2 3 3 3 3 4 4 4 4 4 5 6 6 5 5 6 7 7 9 12 14 16 17 18 19 20 20 20 20 20 20 19 19 19 19 18 18
2 2 2 2 3 3 3 2 2 2 2 2 2 2 2 2 2 3 3 3 3 3 3 4 4 4 5 6 6 7 9 9 8 8 8 10 12 15 17 18 18 19 19 19 19 18 18 17 17 17 16 16 16 15

GFSWCAN_250_rhum_048.txt.gz
RH
70 61 56 54 48 40 40 37 42 49 48 42 41 38 34 31 30 33 28 17 26 33 12 12 8 6 6 6 7 8 10 12 14 16 16 16 20 22 21 24 24 25 27 30 36 36 55 72 75 74 78 69 57 54
57 76 75 67 56 42 28 39 44 40 52 44 46 44 40 29 27 29 26 16 27 33 15 7 8 6 6 7 8 9 10 11 13 14 14 15 16 22 23 30 34 30 28 28 31 34 42 56 77 79 82 92 82 63
75 88 76 75 74 46 42 46 43 49 53 48 49 49 39 33 27 34 20 15 24 20 17 10 9 7 7 8 8 9 11 12 13 15 17 18 17 21 26 25 26 40 35 32 34 31 33 42 56 85 84 80 93 96
96 92 87 73 82 65 54 48 58 52 50 46 51 46 39 37 29 30 19 13 28 23 22 15 8 6 7 8 9 10 11 12 13 15 17 19 21 25 27 32 37 42 43 47 46 33 36 38 45 58 82 91 87 94
97 98 94 86 81 75 75 66 59 56 52 50 46 42 39 35 34 29 20 16 22 27 19 13 11 7 7 9 9 11 12 12 13 14 17 20 21 24 28 29 45 36 37 29 39 31 48 39 42 46 60 85 95 93
100 99 100 100 100 90 90 81 73 65 62 45 43 36 28 33 30 22 15 18 26 30 25 15 11 8 7 8 9 11 12 12 13 16 17 17 20 25 28 28 29 32 26 32 35 24 46 44 39 41 50 55 88 96
100 100 100 100 100 100 100 92 83 65 62 55 45 37 29 27 28 29 16 17 24 26 35 30 25 11 9 8 9 11 12 12 13 14 15 17 18 18 19 24 26 21 19 23 32 27 32 38 36 35 38 44 57 86
100 100 100 100 100 100 100 99 92 83 68 62 50 42 38 34 28 24 14 16 20 26 30 42 48 36 11 8 9 11 12 12 12 12 14 13 14 18 21 14 14 22 20 16 21 20 27 28 24 33 34 37 44 60
100 100 100 100 100 100 100 100 98 88 80 69 55 42 38 29 25 19 11 16 26 28 28 43 53 47 14 10 9 10 11 12 12 13 12 12 13 13 16 10 13 18 13 11 12 16 14 20 27 27 27 32 38 46
100 100 100 100 100 100 100 100 100 95 82 70 56 51 45 34 28 13 12 20 27 19 30 40 48 74 15 12 10 10 12 12 12 12 11 10 10 12 14 11 10 12 12 10 12 14 16 17 22 24 27 31 34 41
100 100 100 100 100 100 100 100 100 90 88 64 62 55 49 35 33 23 22 28 39 28 22 31 43 70 16 13 11 11 12 12 12 12 12 10 11 12 14 11 14 11 10 11 12 13 16 19 23 26 28 28 33 34
100 100 100 100 100 100 100 100 97 89 90 69 70 57 59 52 34 28 36 48 48 43 30 26 37 63 17 15 13 11 11 12 12 12 11 10 13 14 16 13 12 12 10 9 11 11 11 17 23 24 25 31 34 37
100 100 100 100 100 100 98 100 95 84 79 72 74 70 51 44 38 45 44 48 72 57 33 20 25 18 14 15 14 12 11 11 11 10 10 11 12 14 15 18 16 11 11 7 8 11 16 23 24 27 28 31 34 39
100 100 100 100 100 100 99 100 100 88 81 76 74 73 60 46 56 51 59 75 60 65 23 25 14 14 13 14 14 12 11 10 8 9 11 12 12 15 16 16 19 16 13 9 6 7 12 17 18 22 28 31 35 40
100 100 100 100 100 100 100 100 97 86 74 75 74 74 61 59 61 58 64 59 62 54 21 25 13 11 12 14 15 13 10 9 9 9 10 12 14 13 18 18 19 17 16 12 10 7 8 12 18 24 28 32 34 36
100 100 100 100 100 100 100 80 87 76 68 72 69 69 73 64 59 57 56 59 69 58 28 23 11 11 12 11 14 13 10 9 9 8 9 11 15 15 16 20 20 20 17 16 14 10 9 13 16 21 27 31 33 34
100 100 100 100 100 100 95 90 82 85 73 68 87 73 61 62 62 59 61 67 66 38 40 23 10 9 10 13 10 12 10 9 8 7 8 10 13 15 14 16 20 22 20 20 18 16 14 14 19 24 28 32 35 37
100 100 100 100 100 97 90 90 88 77 79 94 92 80 66 64 68 58 73 73 71 36 37 33 10 8 7 9 10 9 9 8 7 6 6 9 10 13 14 15 16 21 24 24 23 24 21 19 19 22 26 30 34 38
100 100 100 100 100 94 90 81 100 100 100 95 85 72 54 60 58 64 64 66 72 57 31 45 10 7 7 7 7 6 6 7 6 5 5 6 9 10 12 14 17 18 23 27 26 24 24 25 26 26 24 23 27 32
100 100 100 100 98 100 100 100 100 100 97 88 79 58 68 67 64 70 61 78 67 60 46 25 8 6 6 6 5 4 3 4 4 4 4 5 7 9 10 12 14 18 19 25 27 25 25 28 29 30 31 30 27 27
100 100 96 100 100 100 100 100 100 96 90 92 75 68 61 67 73 69 66 72 56 70 35 8 7 4 4 4 3 3 3 3 4 4 4 4 6 7 8 10 12 14 17 19 26 27 25 25 30 33 37 39 38 37
100 100 100 100 100 100 100 100 100 100 100 87 71 63 73 71 66 68 69 56 72 39 7 7 4 3 3 3 2 3 3 3 3 4 4 4 5 6 7 8 10 12 14 16 21 28 30 31 30 27 27 31 34 38
100 100 100 99 100 100 100 100 95 88 72 71 67 73 76 74 71 57 62 52 21 9 8 5 3 3 3 2 2 2 3 4 4 4 4 4 4 5 6 7 10 11 12 14 18 24 27 28 31 34 34 36 36 35
100 100 100 100 100 100 100 98 77 71 73 76 81 71 68 52 45 36 44 16 10 7 4 3 3 3 2 2 3 3 3 4 4 4 5 4 4 5 6 6 8 10 11 13 15 19 26 28 28 27 30 32 34 37
100 100 100 100 100 100 96 88 84 78 67 64 60 64 68 39 45 19 8 8 5 3 2 3 3 3 3 3 3 3 3 4 4 4 5 5 5 5 6 6 7 8 10 11 14 18 23 28 30 30 29 28 30 32
100 100 100 100 94 80 79 82 74 65 60 58 62 45 45 27 12 6 5 3 3 3 3 3 3 3 3 3 3 3 3 4 4 5 5 5 5 6 6 6 7 8 10 11 13 17 21 25 28 31 31 30 28 28
100 100 94 76 69 77 71 65 55 64 50 43 37 23 11 8 6 4 2 2 2 3 3 3 3 3 2 3 3 3 3 3 4 4 5 5 5 6 6 6 7 8 10 11 12 15 19 23 27 30 30 29 28 26
98 86 64 52 59 73 67 46 36 38 22 10 10 9 6 4 3 2 2 3 3 3 3 3 2 2 2 2 2 3 3 3 3 3 4 5 6 6 7 6 7 8 9 11 13 15 17 20 24 26 27 27 27 26
80 70 56 49 34 21 10 9 10 9 8 7 5 3 3 3 2 2 3 3 3 3 2 2 2 2 2 2 2 2 3 3 3 3 4 4 6 7 7 6 7 8 9 11 13 15 17 19 21 23 24 25 26 25
14 12 11 10 9 9 8 8 8 5 4 2 2 2 3 2 2 3 2 2 3 2 2 2 2 2 2 2 3 3 4 4 4 4 4 5 6 6 6 6 6 8 9 11 14 15 17 18 20 22 22 22 23 24
8 8 10 10 9 7 5 4 3 3 3 3 2 2 2 4 5 2 2 2 2 2 2 2 2 2 3 3 3 3 4 4 4 5 5 5 5 6 6 6 7 8 9 12 14 16 16 18 19 20 20 20 21 21
11 9 7 5 4 3 3 3 3 3 2 2 2 2 4 4 3 2 2 2 2 2 2 3 4 4 4 4 4 4 4 4 4 5 6 6 6 6 7 8 8 9 11 12 14 15 16 17 17 18 18 19 19 19
5 5 4 4 4 4 3 3 3 3 2 2 3 3 3 2 2 2 2 2 3 3 3 4 4 4 4 4 4 4 4 4 4 5 6 7 7 8 9 9 10 11 12 14 15 15 15 16 16 16 17 17 16 16

GFSWCAN_250_rhum_051.txt.gz
RH
100 100 100 95 89 99 99 86 67 60 53 51 54 58 55 41 44 40 38 43 31 36 34 47 26 12 9 7 6 7 8 9 11 13 13 15 18 17 18 20 21 23 24 27 32 32 33 39 53 62 59 69 79 72
100 96 82 93 98 100 95 73 59 59 53 59 58 68 58 48 48 42 37 45 36 36 28 35 40 29 17 6 7 8 8 10 12 13 14 18 20 23 23 24 30 31 31 31 34 29 30 38 49 62 71 63 66 80
100 98 96 98 97 87 72 74 73 56 59 62 78 68 63 58 49 48 45 45 42 35 27 30 44 21 11 8 7 8 10 11 13 13 15 17 19 18 21 27 37 44 42 39 39 34 30 31 36 48 65 80 69 67
99 100 100 97 85 77 89 81 77 62 62 77 88 73 74 63 50 51 51 48 34 30 32 31 40 21 15 7 7 7 9 11 12 14 15 16 19 18 20 26 27 27 30 34 35 28 35 38 36 42 51 70 91 88
100 100 100 90 83 98 88 89 88 65 70 74 82 78 75 57 57 52 57 48 37 29 31 33 48 52 21 9 9 8 9 11 12 14 14 16 18 23 24 24 19 23 25 28 40 42 42 39 37 34 33 42 70 94
90 85 85 100 100 99 88 86 82 77 78 83 91 79 64 58 57 47 58 41 40 32 26 33 52 61 30 20 10 8 9 10 12 12 14 15 18 22 24 24 23 24 22 22 27 32 42 56 51 35 32 38 36 54
100 100 100 100 95 98 100 100 100 91 89 85 86 73 62 55 49 48 46 41 34 32 26 32 46 61 49 33 10 8 9 10 11 12 13 15 16 18 20 21 19 20 19 20 28 39 39 43 53 53 46 44 44 41
96 98 94 100 100 100 100 100 100 99 99 91 87 70 54 50 40 38 34 31 24 24 30 28 44 56 61 50 40 13 10 10 10 11 12 13 14 16 18 18 19 20 19 21 24 31 35 20 23 40 36 41 43 51
100 100 100 100 100 100 100 100 100 100 100 100 90 72 56 49 36 32 34 26 19 20 26 29 38 57 66 69 87 56 15 12 11 10 10 12 12 13 15 16 16 13 15 16 20 18 16 13 12 18 24 34 36 35
100 100 100 100 100 100 100 100 100 100 100 95 88 78 57 55 46 31 32 23 22 19 23 26 36 51 60 54 87 78 43 14 12 11 10 10 11 12 13 16 15 12 14 14 15 14 12 14 18 19 20 28 34 34
100 100 100 100 100 100 100 100 100 100 100 100 88 81 74 71 53 44 35 30 25 28 23 26 36 42 52 62 66 81 64 34 16 12 10 9 10 10 11 12 13 12 13 13 12 13 12 13 15 16 17 20 30 34
100 100 100 100 100 100 100 100 100 100 100 99 96 90 87 74 72 57 42 41 40 26 24 27 35 49 52 53 65 77 82 68 17 13 12 12 11 10 11 12 13 12 11 12 12 12 11 11 12 12 20 25 30 34
100 100 100 100 100 100 100 100 100 100 100 100 100 99 97 83 76 62 50 41 44 37 30 34 41 45 54 54 61 52 76 40 16 14 12 13 12 10 10 12 12 14 11 13 14 12 11 10 12 14 19 21 25 29
100 100 100 100 100 100 100 100 100 100 100 100 96 100 86 78 72 65 48 45 43 35 42 49 49 38 50 44 52 67 74 68 17 16 12 12 14 12 11 11 12 13 13 11 16 14 12 8 8 13 19 25 26 27
100 100 100 100 100 100 100 100 100 100 100 100 98 94 90 78 68 55 48 46 49 49 58 65 54 50 47 63 26 45 58 42 17 15 13 10 11 13 12 12 12 13 13 14 16 18 16 11 8 8 16 24 26 26
100 100 100 100 100 100 100 100 98 99 97 97 95 93 81 75 63 60 46 61 56 47 61 52 47 47 44 58 67 37 28 40 17 13 10 10 9 11 11 11 12 12 13 14 16 18 19 15 12 8 9 17 24 28
100 100 100 100 100 100 100 100 100 100 100 100 92 88 79 67 64 55 55 67 48 68 58 50 45 44 47 29 62 54 33 19 14 12 8 8 8 9 10 9 11 11 12 14 15 19 20 20 17 14 10 11 16 23
100 100 100 100 100 100 100 100 100 100 100 95 89 77 65 64 65 53 58 68 58 79 56 55 45 45 37 43 45 17 25 7 8 9 6 6 6 6 9 7 7 10 11 13 13 15 22 23 21 17 15 15 16 21
100 100 100 100 100 100 94 93 98 99 98 96 84 68 76 74 60 56 64 59 64 81 57 51 35 53 56 27 29 37 11 6 6 6 5 4 5 4 6 7 6 7 10 10 13 14 16 23 25 23 22 19 18 20
100 100 100 100 100 100 97 99 100 100 97 86 67 66 70 62 59 69 67 78 92 62 57 38 61 45 28 49 20 21 6 4 4 4 4 4 4 4 4 5 5 5 7 10 10 13 15 18 24 26 26 27 26 24
100 100 100 100 100 100 100 100 100 100 84 73 66 65 63 61 71 68 76 87 73 58 44 44 57 37 40 22 30 8 4 3 3 3 4 3 3 4 4 4 4 4 5 8 10 10 13 16 20 26 28 27 29 28
100 100 100 100 100 100 100 100 99 84 76 73 68 69 73 77 85 88 73 82 67 42 42 54 54 22 26 22 7 5 3 3 3 3 3 3 3 4 4 4 4 4 5 6 8 10 12 13 15 19 26 31 30 30
100 100 100 100 100 100 100 99 90 90 64 70 73 71 88 98 88 77 78 73 52 44 51 48 26 26 17 8 5 4 3 2 3 3 3 4 4 3 4 4 4 4 4 5 7 8 10 13 15 16 20 26 31 33
100 100 100 100 99 100 100 92 64 52 76 81 74 82 89 84 71 75 77 41 34 45 51 17 30 13 6 4 4 3 2 2 3 3 3 3 4 4 4 4 4 4 4 5 6 7 8 11 14 16 18 23 26 27
100 100 100 100 100 99 81 68 62 64 80 88 80 83 84 68 69 70 60 36 38 36 13 20 8 4 3 4 3 2 2 2 2 2 2 3 3 3 4 4 5 4 4 5 6 6 7 9 12 14 16 21 28 31
97 85 88 87 74 64 64 68 79 88 82 84 86 78 75 73 63 53 44 26 13 17 9 5 3 3 3 3 2 2 2 2 2 2 2 2 2 3 4 4 5 5 5 5 6 6 7 9 10 13 15 17 22 27
81 91 100 87 64 67 78 89 82 80 79 75 77 68 58 57 64 34 14 10 8 6 4 3 3 3 2 2 2 2 2 2 2 2 2 2 3 3 4 4 4 5 6 6 6 6 7 8 10 12 13 16 21 24
100 90 66 63 71 78 84 82 81 81 74 68 62 56 45 34 30 10 7 7 5 3 2 3 2 2 2 2 2 2 2 2 2 2 2 3 3 4 4 4 4 5 5 6 6 6 7 8 9 10 12 14 18 21
74 68 78 87 88 88 93 83 79 68 55 45 45 36 17 9 8 6 6 6 3 2 3 3 2 2 2 2 2 2 2 2 2 2 2 3 4 4 4 4 4 5 5 6 6 6 7 8 9 10 11 13 17 20
82 79 76 66 64 61 50 50 42 25 14 11 10 8 7 6 6 5 5 3 2 2 3 2 2 2 2 2 3 3 3 3 3 3 3 4 4 4 4 4 5 5 5 6 6 6 7 8 8 9 11 14 16 18
39 38 35 30 25 18 14 13 13 11 10 8 7 5 4 3 5 6 2 2 2 2 3 2 2 2 3 3 3 3 4 4 3 4 4 4 4 4 4 5 6 5 6 6 7 7 8 9 9 10 12 14 16 17
13 13 12 11 10 11 9 9 10 9 9 7 4 3 2 4 4 2 3 3 2 2 2 2 2 2 3 3 4 4 4 3 4 4 5 5 4 4 4 5 5 6 6 7 7 8 9 10 12 13 14 15 15 16
9 9 8 9 8 8 8 7 7 7 5 4 2 2 4 3 3 3 3 3 2 2 2 3 3 4 4 4 4 4 4 4 4 4 4 5 5 4 5 5 6 6 7 8 9 10 11 12 13 14 14 14 14 14

GFSWCAN_250_rhum_054.txt.gz
RH
56 93 100 100 100 100 95 100 100 100 99 100 96 75 70 64 44 51 53 50 57 39 38 42 44 47 67 41 11 7 6 7 8 9 11 13 16 21 22 24 26 25 24 32 37 38 28 33 30 38 46 70 74 70
84 75 81 96 100 96 92 100 100 100 100 96 90 69 76 60 50 59 56 54 51 41 41 40 39 46 58 81 19 10 10 9 10 10 11 13 14 18 22 24 28 30 28 28 30 31 29 36 37 33 37 47 68 73
57 77 90 99 96 88 81 99 100 100 100 98 84 76 73 61 65 65 57 52 50 42 44 38 36 40 50 67 55 22 16 9 11 11 12 14 15 16 20 23 23 25 30 32 38 34 37 35 34 38 46 45 50 71
62 78 79 84 92 87 100 100 100 100 96 87 80 76 69 66 74 63 58 48 50 51 48 44 41 36 47 58 69 45 22 11 9 12 12 14 16 16 17 19 20 22 43 50 36 26 34 34 34 37 39 38 41 55
70 78 85 67 90 100 100 100 100 97 88 89 88 76 77 81 74 67 60 54 53 51 50 43 41 38 39 50 56 63 52 32 9 10 13 13 15 18 17 16 15 25 24 28 36 36 38 32 42 56 54 43 44 48
86 85 89 88 86 98 100 100 95 91 91 88 81 95 82 79 73 72 67 55 55 46 44 44 40 33 34 51 62 65 60 35 24 13 11 14 14 16 16 14 19 19 21 22 26 28 37 36 26 35 64 58 67 54
94 93 89 87 95 100 100 100 98 97 91 86 93 87 82 83 76 82 63 51 56 46 40 44 44 33 32 47 62 62 70 84 39 24 14 12 14 15 16 18 19 22 21 21 26 31 31 32 36 30 34 51 50 64
100 99 97 100 100 100 100 100 100 100 92 91 88 91 81 79 82 76 55 51 51 48 39 43 40 38 30 45 58 55 69 86 65 51 22 14 14 16 17 17 18 18 17 18 21 25 34 32 22 23 18 31 38 42
100 100 100 100 100 100 95 100 100 100 100 94 78 82 87 77 64 59 55 52 45 40 34 42 35 36 33 39 57 59 62 69 68 63 38 15 14 16 17 17 17 18 17 17 18 18 19 18 17 16 14 14 22 26
100 100 100 100 100 97 100 100 100 100 100 96 79 90 83 76 64 58 54 45 47 33 33 32 28 31 32 33 50 48 56 65 70 60 49 22 12 14 15 16 15 16 16 16 16 16 15 14 14 16 11 14 23 24
100 100 100 100 100 100 100 100 100 100 100 100 90 90 83 78 63 64 52 53 46 41 45 33 32 27 26 36 58 46 66 74 98 82 72 27 16 11 12 14 14 14 14 15 15 16 15 13 12 14 14 16 20 22
100 100 100 100 100 100 100 100 100 100 100 100 96 78 88 76 73 65 64 60 53 49 45 37 31 30 30 35 52 42 66 68 92 72 91 37 14 11 11 12 12 12 12 12 12 14 15 13 14 16 15 13 15 21
100 100 100 100 100 100 100 100 100 100 100 100 100 87 94 86 86 82 72 68 66 57 60 57 38 34 32 36 52 53 52 71 61 75 70 28 15 11 9 10 10 11 11 11 11 12 14 15 15 16 12 12 15 17
100 100 100 100 100 100 100 100 100 100 100 100 100 86 86 92 92 92 82 69 68 73 78 48 38 32 35 42 54 60 73 67 60 100 73 30 15 12 9 8 9 9 10 11 11 11 12 14 17 16 12 10 13 26
100 100 100 100 100 100 100 100 100 100 100 100 100 100 97 100 100 96 89 84 80 77 69 42 39 34 38 47 66 57 50 96 54 51 48 61 20 11 9 7 7 7 8 9 10 10 11 14 16 19 14 10 9 23
100 100 100 100 100 100 100 100 100 100 100 100 100 100 100 100 99 100 98 90 89 78 66 47 40 34 46 58 61 63 71 63 58 48 40 28 18 13 8 6 6 6 6 8 8 10 11 12 15 19 19 14 9 11
100 100 100 100 100 100 100 100 100 100 100 100 100 100 100 95 100 100 100 99 78 79 65 43 36 50 49 54 62 54 83 76 61 27 21 7 9 10 7 4 4 4 4 6 8 8 10 12 14 17 20 19 14 10
100 100 100 100 100 100 100 100 100 100 100 100 100 100 100 100 100 100 100 93 79 70 64 54 43 46 44 60 68 61 57 30 43 34 14 5 5 5 5 4 3 3 3 4 5 7 8 10 12 14 19 21 20 17
100 100 100 100 100 100 100 100 100 100 100 100 100 100 100 100 100 97 94 78 68 78 59 52 45 52 58 68 68 59 46 56 19 36 8 3 3 4 4 3 3 3 3 3 4 6 7 8 11 12 15 20 22 23
100 100 100 100 100 100 100 100 100 100 100 100 100 100 100 100 100 94 80 78 84 77 51 48 57 56 65 73 51 41 60 17 18 8 5 3 3 3 3 3 2 3 3 3 3 4 5 6 8 12 13 16 22 23
100 100 100 100 100 100 100 100 100 100 100 100 97 91 94 98 90 76 66 85 73 52 42 54 58 64 74 63 42 42 13 16 7 3 3 3 3 3 3 3 3 3 3 3 3 3 4 5 6 9 11 13 19 24
100 100 100 100 100 100 100 100 100 96 98 100 100 100 100 92 75 66 79 74 59 31 57 61 63 72 73 52 60 16 16 7 4 3 2 2 3 3 3 3 3 3 3 3 3 3 4 4 5 7 9 11 14 21
100 100 100 100 100 100 100 100 100 94 98 100 100 98 82 70 80 77 64 70 35 55 57 66 72 76 50 39 21 13 5 4 3 2 2 2 3 3 3 3 3 3 3 3 4 4 4 4 5 6 8 9 11 14
100 100 100 100 100 100 100 100 99 95 93 100 88 69 80 74 58 64 86 46 54 61 66 69 64 24 31 14 6 4 3 3 2 2 2 3 3 2 2 3 3 3 3 3 4 4 4 4 5 5 7 8 9 12
100 100 100 100 100 100 100 95 83 72 71 64 64 61 62 54 58 66 59 57 56 58 66 39 17 19 8 5 4 3 2 3 2 2 2 3 2 2 2 2 3 3 3 3 4 4 5 4 4 5 6 7 8 10
100 100 100 100 100 86 78 75 67 62 62 56 59 60 62 52 48 53 48 57 61 45 33 18 9 6 5 3 3 2 2 3 3 2 2 2 2 2 2 2 2 3 3 3 4 5 5 4 4 5 6 6 8 9
100 100 98 79 64 62 68 71 68 60 59 67 74 62 45 53 57 54 55 41 40 25 23 10 6 3 3 3 3 2 2 2 2 2 2 2 2 2 2 2 2 3 3 3 4 5 5 5 5 5 5 6 7 8
100 88 81 78 81 89 86 68 58 66 77 69 52 51 57 63 65 43 32 24 22 18 8 6 3 2 2 2 3 2 2 2 2 2 2 2 2 3 3 3 3 3 3 3 4 5 6 5 5 5 5 6 7 8
80 71 65 64 64 69 74 71 73 62 53 59 66 64 65 61 36 20 25 12 10 7 5 3 2 2 3 3 2 2 2 2 2 3 3 3 3 3 3 3 4 4 3 3 4 4 5 6 6 5 6 6 6 8
65 66 71 81 84 79 72 65 60 64 59 57 51 49 35 29 21 7 10 10 6 4 3 2 2 3 3 3 2 2 2 2 3 3 4 4 4 4 3 3 4 4 4 4 4 5 5 5 5 6 6 6 7 8
69 68 63 58 56 55 54 61 60 55 60 56 35 27 12 9 10 11 12 6 4 3 3 3 3 3 2 2 2 2 3 4 4 4 4 4 3 3 3 4 4 4 4 4 5 5 5 5 5 6 6 6 7 8
64 69 74 72 65 68 76 72 69 50 55 42 19 9 5 4 8 10 6 5 4 3 3 3 3 2 2 3 4 4 4 4 4 4 4 4 4 3 3 4 4 5 4 4 5 5 5 6 6 6 7 8 8 9
69 54 53 45 37 38 36 35 26 22 16 12 9 5 3 3 6 5 5 4 4 4 3 3 2 3 4 4 4 4 4 4 4 4 4 4 4 4 4 4 5 5 5 5 5 6 6 7 7 8 9 10 10 11

GFSWCAN_250_rhum_057.txt.gz
RH
55 45 51 51 50 83 100 100 100 100 100 100 100 100 92 90 90 80 71 55 36 40 39 45 42 41 55 51 59 81 56 43 17 10 8 8 10 12 16 19 23 24 24 25 27 29 28 29 31 33 39 35 32 36
59 53 63 56 62 82 100 100 100 100 100 100 100 100 93 95 87 77 69 50 39 43 44 46 46 43 52 56 50 75 64 66 31 15 12 10 10 11 12 16 20 24 26 28 31 29 32 32 40 42 34 33 32 33
61 66 72 62 57 66 100 100 100 100 100 100 100 100 97 98 82 74 69 50 44 45 50 46 44 48 46 60 54 63 65 64 53 33 17 14 12 11 12 14 17 21 28 36 43 37 36 37 42 47 43 35 31 31
65 74 75 64 59 67 96 100 100 100 100 99 100 100 100 90 86 75 63 50 50 57 58 55 49 50 46 62 56 54 69 70 57 47 32 22 15 12 11 12 15 24 28 42 48 50 53 45 42 51 62 70 63 56
58 83 84 73 62 62 79 91 100 100 100 100 100 100 100 96 78 74 59 59 56 60 57 56 49 46 50 62 57 46 57 59 66 50 44 30 18 14 12 12 14 20 27 34 36 46 64 37 48 57 58 62 71 68
78 83 90 86 69 59 65 68 100 100 100 100 100 100 99 89 74 70 68 55 60 62 62 59 44 52 48 58 55 46 54 60 67 61 55 37 28 25 18 13 13 16 21 26 31 35 42 40 33 36 58 57 68 80
87 95 98 90 77 69 66 75 98 100 100 100 100 100 99 87 75 74 71 52 63 65 66 53 55 54 54 61 62 45 48 51 66 86 67 59 43 31 24 16 12 13 14 17 25 28 30 37 37 25 33 43 58 62
94 100 99 93 82 80 84 87 100 100 100 100 100 99 100 86 76 75 56 50 57 66 62 56 52 53 54 56 57 51 46 51 72 78 82 72 56 56 23 20 14 13 13 14 16 20 23 24 23 25 24 30 30 37
100 100 100 99 92 88 93 99 100 100 100 100 100 100 92 79 77 70 69 59 67 62 63 57 47 46 51 59 54 56 42 48 63 66 88 76 72 56 28 17 15 14 13 14 14 16 18 22 25 23 20 17 23 22
100 100 100 100 98 86 100 100 100 100 100 98 100 100 96 81 79 69 64 68 62 56 62 49 43 41 46 48 41 58 39 55 64 80 92 93 93 79 41 24 15 14 14 13 12 12 15 17 17 18 14 12 13 16
100 100 100 100 100 98 100 100 100 100 100 100 97 90 93 79 72 80 73 70 62 60 53 49 41 43 38 45 47 53 44 54 60 77 64 83 95 92 78 28 15 13 12 12 12 12 12 13 13 14 12 11 12 14
100 100 100 100 100 100 100 100 100 100 100 100 99 92 94 88 84 74 78 78 73 62 55 48 41 40 47 49 57 54 51 55 56 54 53 95 85 100 80 33 16 11 10 10 10 10 11 12 13 14 12 12 12 12
100 100 100 100 100 100 100 100 100 100 100 100 96 95 94 91 90 88 80 73 62 61 53 56 58 44 44 45 67 60 60 47 50 62 68 71 79 99 71 36 18 12 9 8 7 8 9 10 12 12 11 11 12 13
100 100 100 100 100 100 100 100 100 100 87 100 100 100 96 94 91 86 78 71 74 58 62 62 53 46 55 55 75 57 60 55 59 71 66 75 48 70 43 24 15 12 8 6 6 5 6 8 10 11 11 11 12 14
100 100 100 100 100 100 100 100 100 100 100 100 100 100 100 100 89 84 87 86 78 75 69 62 55 49 65 71 74 66 57 61 62 84 70 69 50 52 35 20 12 8 7 6 5 4 4 5 7 10 9 11 11 13
100 100 100 100 100 100 100 100 100 100 100 100 100 100 89 98 92 91 99 100 90 84 75 62 54 67 76 80 72 68 54 62 74 62 66 60 30 40 26 12 8 7 5 4 4 3 4 4 4 8 8 10 11 13
100 100 100 100 100 100 100 100 100 100 100 100 100 100 100 100 100 100 100 100 92 88 68 52 72 84 93 95 82 64 54 64 68 65 67 52 34 23 14 8 6 4 4 3 3 3 3 4 4 4 7 8 11 12
100 100 100 100 100 100 100 100 100 100 100 100 100 100 90 88 91 100 99 94 91 86 57 64 87 100 83 83 86 48 53 58 61 52 71 20 24 11 7 5 4 4 3 3 3 3 3 3 4 4 5 7 8 11
100 100 100 100 100 100 100 100 100 100 99 100 100 100 100 100 97 97 98 96 100 91 54 77 93 89 86 90 57 56 64 69 54 87 39 34 9 6 5 3 3 3 3 3 3 3 3 3 3 4 4 6 7 9
100 100 100 100 100 100 100 100 100 100 100 100 100 100 100 100 97 95 91 96 100 66 75 99 94 88 87 67 51 66 86 65 56 38 29 17 6 4 3 3 2 3 2 2 3 3 3 3 3 3 4 5 6 7
100 100 100 100 100 100 100 100 100 100 100 100 100 100 100 98 96 93 87 99 97 66 100 97 96 80 78 47 59 75 75 86 26 12 6 6 4 3 2 2 2 2 2 2 3 3 3 3 3 4 4 4 5 6
100 100 100 100 100 100 100 100 100 100 100 100 100 100 100 97 96 94 97 100 71 99 97 95 83 78 51 60 67 66 84 35 29 8 4 3 3 2 2 2 2 2 2 2 2 2 2 3 4 4 4 4 5 5
100 100 100 100 100 100 100 100 100 100 100 100 100 100 98 98 96 95 98 80 89 96 94 75 72 57 53 61 62 74 27 15 7 5 4 2 2 2 2 2 2 2 2 2 2 2 2 3 4 4 4 4 4 5
100 100 100 100 100 100 100 100 100 100 100 100 100 100 100 90 86 87 89 91 99 92 76 70 51 51 59 67 64 51 9 5 4 3 2 2 2 2 2 2 2 2 2 2 2 2 2 3 3 4 4 4 4 4
100 100 100 100 100 100 100 100 100 100 100 97 97 96 92 84 82 93 93 91 93 82 64 42 51 58 60 58 60 11 5 3 2 3 2 2 2 2 2 3 2 2 2 2 2 2 3 3 3 4 5 5 5 4
100 100 100 100 100 100 100 99 100 100 100 95 95 88 78 83 95 83 83 80 74 48 43 57 58 64 72 48 9 5 4 4 3 2 2 2 2 2 2 3 3 2 2 2 2 2 2 3 3 4 5 5 5 5
100 100 100 100 100 100 100 100 100 100 98 93 88 86 90 89 90 77 74 64 45 47 54 57 56 55 32 7 3 3 3 3 3 2 2 2 2 2 3 3 3 3 3 2 3 3 3 3 3 4 4 5 6 5
100 100 100 100 100 100 100 100 100 100 97 93 90 89 87 77 72 57 45 48 54 64 58 49 28 18 4 2 2 2 3 3 2 2 2 2 2 3 3 3 3 3 3 3 3 3 4 4 4 4 4 5 6 5
100 100 100 100 100 100 100 100 100 100 96 88 80 78 79 60 44 47 52 57 44 48 38 33 10 4 3 3 2 2 2 3 3 2 3 3 3 3 3 3 3 3 4 4 3 4 4 4 4 4 5 5 5 5
100 100 100 100 100 99 98 97 93 88 83 77 61 50 50 50 48 52 52 48 48 33 12 5 4 3 3 3 3 2 2 3 4 4 3 3 3 3 3 3 3 4 4 3 3 4 4 4 4 5 5 6 6 6
86 90 90 87 85 88 85 76 62 50 45 47 52 54 55 68 67 50 44 35 17 6 5 3 3 3 4 4 4 3 3 4 4 4 3 3 3 3 4 4 4 4 4 4 3 4 4 4 4 4 5 5 5 6
81 75 66 57 52 47 46 49 57 62 61 61 64 71 74 56 47 22 14 12 7 5 4 4 4 4 4 4 4 4 4 4 4 4 4 4 4 4 4 4 4 4 4 3 3 4 4 4 4 5 5 5 6 6
70 60 54 53 54 58 64 65 65 75 92 94 71 28 11 8 6 8 10 7 5 5 4 5 5 4 4 4 5 5 6 6 6 5 5 5 5 5 5 5 4 4 4 5 5 5 5 5 5 5 5 6 6 6

GFSWCAN_250_rhum_060.txt.gz
RH
38 44 49 34 52 42 31 70 100 100 100 100 100 100 100 100 100 97 94 71 85 80 55 43 44 52 52 50 62 65 61 65 63 57 42 29 22 16 12 10 12 16 20 22 25 28 30 36 47 55 66 57 45 48
50 64 67 60 46 35 42 69 100 100 100 100 100 100 100 100 99 100 95 75 82 78 59 48 50 48 53 49 56 55 63 65 66 59 48 35 25 21 23 16 11 14 18 22 25 27 29 32 34 39 46 55 52 39
46 42 43 50 52 41 62 77 100 100 100 100 100 100 100 100 100 87 92 70 94 87 59 51 52 48 52 55 55 53 65 64 73 64 64 49 33 27 22 23 16 15 18 22 22 25 28 30 33 39 48 44 47 50
62 78 76 54 47 52 65 79 100 100 100 100 100 100 100 100 100 98 94 84 88 73 56 53 50 50 60 56 61 58 64 68 70 79 67 55 45 35 26 21 22 16 16 17 20 24 28 28 32 38 37 41 40 44
60 54 60 64 58 60 66 69 91 100 100 100 100 100 100 99 100 100 83 92 89 68 57 50 48 55 64 54 60 55 63 63 68 67 62 62 55 44 33 26 23 22 20 16 17 23 25 22 33 41 38 41 44 43
48 56 51 51 65 67 67 71 80 100 100 100 100 100 100 100 100 100 94 87 81 63 57 57 57 65 63 51 59 54 63 64 68 82 62 70 57 49 46 41 30 23 20 22 22 21 25 24 23 31 43 46 54 65
60 58 64 51 56 66 74 70 86 86 100 100 100 100 100 100 100 100 96 80 76 71 65 59 64 70 65 55 68 63 60 65 63 78 66 72 70 53 44 39 37 33 25 18 22 24 24 25 23 21 30 36 41 48
66 70 80 80 75 77 86 75 81 96 100 100 96 100 100 100 100 100 92 77 72 74 66 66 64 70 62 57 74 70 62 61 59 72 59 57 61 74 46 42 52 40 28 20 17 19 23 22 19 19 20 26 32 31
60 72 78 80 88 89 92 90 80 85 98 100 100 100 100 100 100 97 83 75 85 78 69 73 63 68 63 74 80 72 57 64 71 71 69 59 59 76 68 57 59 54 36 24 16 14 16 18 21 20 17 17 19 20
76 86 87 81 84 97 96 94 87 93 100 100 100 100 100 100 95 97 89 99 93 71 78 72 69 73 67 79 77 66 52 58 67 75 72 66 53 86 72 65 81 91 41 28 20 15 12 11 14 16 17 18 17 15
85 100 100 79 84 98 100 98 99 100 100 100 100 100 100 100 100 100 99 94 80 74 70 61 79 64 62 72 71 57 50 48 59 59 70 79 42 54 46 44 45 79 55 33 23 16 13 10 8 9 13 14 15 15
99 100 95 96 98 100 100 100 100 100 100 100 100 100 100 100 100 100 99 88 73 67 62 62 68 58 66 64 63 45 49 51 55 62 68 88 58 54 36 28 33 40 41 28 24 18 12 10 8 7 6 8 11 14
100 100 99 100 100 100 100 100 100 100 100 100 100 100 100 100 100 100 91 73 71 61 60 63 63 64 78 70 65 46 59 60 60 66 78 77 66 57 62 44 41 44 28 18 17 15 11 8 7 6 6 6 7 10
100 100 100 100 100 100 100 100 100 100 100 100 100 100 100 100 100 97 90 87 78 66 59 58 63 75 72 66 62 53 64 68 64 67 87 73 89 60 60 49 42 41 23 13 12 10 7 6 5 5 5 5 6 8
100 100 100 100 100 100 100 100 100 100 100 100 100 100 100 100 100 94 91 82 80 67 60 55 59 83 73 57 56 60 55 63 66 64 75 70 81 62 54 57 47 45 17 9 7 6 5 4 4 3 4 4 4 6
100 100 100 100 100 100 100 100 100 100 100 100 100 100 100 100 100 100 95 88 78 64 57 52 67 97 72 60 74 70 70 71 74 80 77 74 68 52 54 62 48 21 12 8 5 4 3 3 3 3 3 3 3 4
100 100 100 100 100 100 100 100 100 100 100 100 100 100 100 100 100 98 94 83 72 69 56 76 95 94 63 85 78 72 80 70 78 79 78 80 58 63 52 42 23 10 6 5 4 3 3 3 3 3 3 3 3 4
100 100 100 100 100 100 100 100 100 100 100 100 100 100 100 100 100 100 100 100 81 61 78 100 98 80 85 80 67 70 79 76 73 81 76 76 58 54 32 19 12 5 4 3 3 2 2 2 3 3 3 3 3 3
100 100 100 100 100 100 100 100 100 100 100 100 100 100 100 100 100 98 100 99 79 91 100 100 82 80 85 72 68 72 70 66 68 72 95 64 45 31 20 12 6 4 3 3 2 2 2 2 2 3 3 3 3 3
100 100 100 100 100 100 100 100 100 100 100 100 100 100 100 94 89 81 77 89 84 95 96 100 88 73 70 69 77 70 67 68 60 80 85 56 30 22 13 6 4 3 3 3 3 2 2 2 2 3 3 3 3 3
100 100 100 100 100 100 100 100 100 100 100 100 100 100 100 98 86 79 86 81 72 82 92 86 78 85 69 73 71 68 63 63 66 69 52 38 26 13 7 3 3 3 3 3 2 2 2 2 2 2 3 3 3 3
100 100 100 100 100 100 100 100 100 100 100 100 100 100 100 100 100 100 94 79 85 92 82 83 88 76 70 78 61 55 55 58 68 56 28 19 10 7 3 3 3 3 3 3 2 2 2 2 2 2 2 3 3 3
100 100 100 100 100 100 100 100 100 100 100 100 100 100 100 100 99 98 100 100 100 95 93 94 86 83 76 60 55 51 55 68 59 28 14 6 4 3 2 2 3 2 2 2 2 2 2 2 2 2 2 3 3 4
100 100 100 100 100 100 100 100 100 100 100 100 100 100 100 98 100 100 99 98 99 91 84 82 77 79 69 51 52 50 35 49 28 18 6 4 2 2 2 2 2 2 2 2 2 2 3 2 2 2 2 3 3 4
100 100 100 100 100 100 100 100 100 100 100 100 100 100 100 100 100 100 100 98 84 82 79 70 67 69 53 51 55 51 54 26 16 7 4 3 2 3 2 2 2 2 2 2 2 3 3 3 2 2 3 3 3 3
100 100 100 100 100 100 100 100 100 100 100 100 100 100 100 100 100 94 95 92 90 85 78 67 68 64 50 52 47 51 41 18 6 3 3 3 3 2 2 2 2 3 4 4 3 4 4 3 3 3 3 3 3 3
100 100 100 100 100 100 100 100 100 100 100 100 100 100 100 100 98 95 97 92 88 71 60 55 59 47 52 57 51 24 10 5 3 3 3 3 2 3 3 3 3 3 4 4 3 4 4 4 3 3 3 4 4 3
100 100 100 100 100 100 100 100 100 100 100 100 100 98 94 91 84 79 74 73 68 49 49 54 52 51 54 34 20 8 4 4 4 3 3 2 3 4 4 4 4 4 4 3 3 3 4 4 4 4 3 4 4 4
100 100 100 100 100 100 100 100 100 100 100 100 98 93 87 80 77 69 66 56 52 51 54 53 52 43 38 21 5 4 4 4 4 3 2 3 4 4 4 4 3 3 3 3 3 3 4 4 4 4 3 4 4 4
99 100 100 100 100 100 100 100 100 97 88 90 91 82 82 76 70 60 58 52 51 52 49 51 47 48 22 8 4 4 4 4 4 3 4 6 5 4 4 4 4 3 3 3 3 4 4 4 4 4 4 4 4 4
100 100 100 100 100 100 100 99 95 93 93 90 81 75 71 63 57 54 53 52 49 46 52 52 38 14 8 5 5 4 4 4 4 4 6 6 5 5 5 5 4 4 4 4 4 4 4 4 4 4 4 4 5 5
100 100 100 100 100 100 98 99 95 89 80 74 71 65 60 58 59 54 46 46 55 61 59 34 23 5 6 6 5 4 4 4 4 6 6 6 6 6 6 5 5 5 5 4 4 4 4 4 4 4 4 4 4 4
100 100 100 99 94 87 87 86 78 68 62 58 53 50 48 44 43 50 48 57 61 42 24 8 5 7 6 5 4 4 4 4 6 6 6 6 6 6 6 6 5 5 5 5 5 5 5 4 4 4 5 5 5 5

GFSWCAN_250_rhum_063.txt.gz
RH
35 78 81 73 72 66 46 72 72 89 100 100 100 100 100 100 100 100 96 98 97 94 82 82 81 56 52 44 43 47 55 66 80 89 76 63 50 39 38 28 26 22 18 15 16 21 29 31 34 33 38 45 53 48
48 77 57 97 100 89 64 66 74 85 100 100 100 100 100 100 100 100 100 100 99 83 88 93 84 62 53 48 44 42 53 54 71 73 86 74 56 44 38 29 27 25 22 20 18 17 18 23 27 29 32 40 45 43
42 64 90 100 73 91 68 61 77 85 100 100 100 100 100 99 100 100 100 100 95 91 91 93 85 64 58 51 50 47 49 55 59 67 80 93 67 54 48 37 31 26 27 24 22 21 22 23 25 32 35 35 37 43
53 95 82 75 65 51 58 74 77 93 100 100 100 100 100 100 100 100 100 100 89 86 92 89 79 66 60 58 55 44 46 53 54 59 70 80 72 59 50 48 39 31 29 26 24 22 21 21 24 27 32 36 40 40
68 93 98 81 64 67 71 68 60 79 99 100 100 100 100 100 100 100 100 99 81 98 95 90 82 78 72 63 64 50 50 51 54 57 63 72 83 63 66 41 44 38 39 26 24 24 22 19 21 24 28 32 42 44
97 100 89 75 77 73 78 57 51 72 86 100 100 100 100 100 100 92 97 92 87 96 87 95 89 81 78 70 74 53 49 60 57 61 55 66 75 67 73 48 35 25 23 25 26 23 21 22 20 19 23 27 28 36
83 87 78 71 74 74 75 58 60 73 92 100 100 100 100 100 86 90 89 93 98 100 87 97 90 87 78 77 78 60 54 56 58 57 59 65 69 70 82 73 47 42 42 48 46 64 29 25 22 21 18 20 24 28
84 67 49 58 63 68 60 61 68 80 84 100 94 92 100 100 97 95 94 93 100 93 89 97 86 94 82 75 72 61 55 50 57 62 62 58 70 70 85 84 82 62 66 61 62 55 38 26 24 24 22 19 16 19
74 38 52 70 81 63 57 64 73 87 94 94 94 100 100 100 99 92 89 88 94 89 99 90 94 90 79 73 73 57 58 58 61 70 66 54 56 68 80 67 78 82 58 56 58 62 45 22 22 19 18 19 20 16
70 61 80 78 85 80 68 72 75 88 90 100 100 99 100 100 100 90 88 98 96 87 100 89 88 86 77 76 70 59 60 66 78 78 63 62 56 57 71 70 94 91 59 61 51 56 50 34 13 16 19 16 14 13
70 68 70 76 90 80 78 85 88 94 96 100 100 100 100 100 97 98 100 100 84 90 97 83 98 87 77 80 67 62 60 74 97 62 57 49 52 59 73 62 94 88 55 57 47 47 40 27 16 11 9 11 11 11
90 64 68 80 95 88 87 96 100 100 100 100 98 99 100 100 99 98 100 99 94 92 84 95 97 82 81 78 68 60 67 88 88 54 47 50 54 62 61 76 90 88 60 54 39 33 29 22 13 10 9 7 6 5
82 62 74 100 100 95 94 97 98 100 100 90 100 100 100 100 100 97 90 99 99 93 99 100 85 90 87 78 81 61 98 100 74 60 57 60 58 64 56 69 85 69 83 59 42 28 20 15 8 7 6 5 5 4
100 86 100 100 100 90 89 99 100 100 100 100 100 100 100 100 96 95 100 100 99 94 99 90 78 86 79 85 79 80 90 88 70 59 56 57 67 60 70 68 93 73 98 74 35 24 15 8 5 4 4 4 4 3
100 100 100 100 100 100 99 100 100 100 100 100 100 100 100 100 97 100 100 97 87 96 100 83 79 81 76 87 88 72 73 60 55 49 53 57 60 66 62 68 84 90 88 58 21 17 8 4 4 3 3 3 3 3
100 100 100 100 100 100 100 100 100 100 100 100 100 100 100 100 100 100 100 95 98 100 94 88 72 70 69 79 80 77 69 56 48 58 56 52 51 65 60 73 83 76 58 22 13 8 4 3 3 2 2 2 2 2
100 100 100 100 100 100 100 100 100 100 100 100 100 100 100 100 100 100 100 100 100 100 98 86 84 78 72 75 67 88 75 63 69 67 54 45 55 54 69 69 88 50 21 9 7 3 2 2 2 2 2 2 2 2
100 100 100 100 100 100 100 100 100 100 100 100 100 100 100 100 100 100 100 100 100 94 100 89 80 70 73 78 86 76 72 67 69 60 47 49 48 60 59 69 61 22 10 5 4 2 2 2 2 2 2 2 2 2
100 100 100 100 100 100 100 100 100 100 100 100 100 100 100 100 100 100 100 100 92 85 94 88 80 90 88 81 94 79 69 72 70 57 49 49 53 62 61 60 28 13 5 3 3 2 2 2 2 2 2 2 2 2
100 100 100 100 100 100 100 100 100 100 100 100 100 100 100 100 100 100 100 96 83 90 97 88 78 86 86 83 88 79 65 64 61 56 54 46 56 63 43 27 12 6 3 2 2 2 2 2 2 2 2 2 2 2
100 100 100 100 100 100 100 100 100 100 100 100 100 100 100 100 100 100 100 90 95 100 91 82 83 82 71 78 78 67 60 63 57 47 45 50 55 48 49 19 6 3 3 2 2 2 2 2 2 2 3 2 2 2
100 100 100 100 100 100 100 100 100 100 100 100 100 100 100 100 100 100 100 100 87 88 83 74 79 89 80 81 68 59 60 56 46 45 40 50 54 43 25 6 3 3 3 3 2 2 2 2 2 2 3 3 2 2
100 100 100 100 100 100 100 100 100 100 100 100 100 100 100 100 100 98 98 83 80 90 84 85 94 83 83 74 62 55 49 46 42 39 44 43 55 33 9 3 3 3 3 3 3 4 3 3 2 3 3 3 2 2
100 100 100 100 100 100 100 100 100 100 100 100 100 100 100 100 98 84 83 100 100 98 94 89 79 79 84 68 47 44 44 36 40 33 38 42 46 12 4 3 2 3 5 4 4 3 4 3 3 4 4 4 3 2
100 100 100 100 100 100 100 100 100 100 100 100 100 100 100 95 89 94 100 99 95 90 95 90 89 85 63 51 45 44 37 45 38 45 37 31 12 6 4 3 2 4 5 4 3 3 4 4 3 4 4 4 4 3
100 100 100 100 100 100 100 100 100 100 100 100 100 100 99 99 100 100 100 93 93 98 95 90 86 74 52 44 40 45 50 44 42 44 35 14 7 4 4 3 3 4 4 4 4 4 4 4 3 4 4 4 4 3
100 100 100 100 100 100 100 100 100 100 100 100 97 100 100 100 100 100 96 94 97 87 81 84 72 56 53 40 49 44 39 36 41 32 17 10 4 4 3 4 5 5 5 5 4 4 4 4 4 4 4 4 4 4
100 100 100 100 100 100 100 100 100 100 100 100 100 100 100 100 100 96 99 100 96 85 83 70 57 50 41 43 43 43 44 35 30 21 8 4 3 3 4 5 6 5 5 5 4 4 4 4 3 4 4 3 4 4
100 100 100 100 100 100 100 100 100 100 100 100 100 100 100 98 90 91 93 87 83 72 61 60 56 47 43 41 35 33 32 32 18 7 4 3 3 3 4 5 5 5 5 5 4 4 4 4 4 3 4 4 4 4
100 100 100 100 100 100 100 100 100 100 100 100 100 100 100 100 100 94 82 75 67 63 58 47 44 40 40 40 34 29 22 13 7 4 4 3 3 4 5 5 5 5 5 5 5 5 5 5 4 4 4 4 4 5
100 100 100 100 100 100 100 100 100 98 97 94 95 97 99 99 82 68 63 68 63 50 44 38 36 38 43 28 25 16 8 8 4 4 4 4 4 5 6 6 6 6 5 5 5 5 5 5 5 5 4 4 4 4
100 100 100 100 100 100 100 100 96 95 96 95 91 87 82 72 67 71 64 54 46 42 41 38 41 33 25 20 14 12 8 4 4 4 4 4 4 6 6 6 6 6 5 5 5 5 5 5 5 5 5 5 5 5
100 100 100 100 100 98 95 96 96 93 85 80 82 82 75 68 62 52 47 48 47 42 42 42 32 27 13 12 9 8 5 4 4 4 4 4 5 6 6 6 6 5 4 4 4 4 4 4 4 4 5 5 5 5

GFSWCAN_250_rhum_066.txt.gz
RH
5 5 6 37 100 100 100 100 92 100 92 93 93 100 93 96 98 100 100 98 100 100 100 100 89 85 79 63 57 46 44 41 44 50 57 70 82 83 68 39 41 31 27 25 25 31 29 26 22 20 24 30 43 58
5 5 15 62 100 100 100 100 100 100 100 94 100 100 100 95 91 100 100 93 100 100 100 100 86 91 78 72 66 51 51 39 36 41 48 54 64 71 71 76 57 39 36 33 28 20 38 37 30 26 26 30 34 36
5 7 16 80 100 100 100 100 100 100 87 75 100 100 100 98 95 100 100 100 100 100 100 100 94 91 84 78 67 56 49 43 40 36 42 50 51 55 74 91 71 57 44 31 35 36 36 34 30 30 29 25 26 33
6 24 47 98 100 100 100 100 100 99 93 77 86 100 100 99 100 100 100 100 100 100 99 100 99 92 83 85 75 63 53 46 42 41 43 44 48 52 58 67 85 61 42 44 44 41 40 36 31 29 31 28 26 24
9 30 100 100 93 100 100 100 99 99 100 88 88 98 96 97 100 100 100 100 100 100 100 100 91 95 90 85 75 68 61 55 45 40 46 53 49 52 57 61 62 69 62 43 38 42 25 25 36 37 27 29 29 29
18 50 89 100 100 100 100 100 98 89 88 78 80 79 95 96 100 100 100 100 100 100 100 98 85 93 96 91 78 75 66 62 51 47 48 50 54 52 55 62 64 83 58 61 38 34 40 29 28 30 35 25 24 31
42 68 100 100 100 100 96 93 100 100 99 87 82 78 88 93 93 95 99 94 93 100 99 97 93 98 95 91 82 87 70 70 61 51 54 59 65 52 54 54 64 76 60 68 53 45 44 48 39 32 33 32 21 20
43 86 100 100 100 100 100 96 100 100 96 77 78 79 83 88 92 81 82 80 92 97 97 98 98 98 90 89 89 92 76 71 55 59 64 63 59 53 49 57 65 74 69 81 75 79 60 43 48 37 25 27 25 16
58 100 100 100 100 100 100 93 97 94 80 78 81 84 86 79 90 89 81 84 91 99 100 98 90 91 90 92 98 99 74 83 71 68 71 63 62 54 54 62 68 68 74 68 84 86 92 72 57 42 28 22 16 17
56 89 99 100 100 100 94 78 88 72 75 88 81 88 87 96 94 88 83 83 92 100 100 92 79 90 93 98 100 100 81 90 85 77 75 76 64 52 50 60 58 64 64 76 68 68 63 52 41 28 22 22 16 10
74 95 100 100 100 99 94 75 70 57 70 91 98 90 93 100 96 90 85 92 100 100 98 88 79 78 86 94 98 100 80 88 79 73 76 68 63 51 51 53 49 62 61 68 66 67 57 50 36 19 13 11 11 10
82 75 100 100 100 100 94 80 65 61 71 100 100 100 91 89 88 92 94 99 100 100 98 89 87 89 98 96 100 100 78 80 81 72 60 66 60 54 56 48 57 68 60 62 58 72 54 42 21 10 8 7 6 5
50 66 100 100 100 100 91 87 80 68 95 100 100 100 96 100 100 100 100 100 100 100 100 96 86 95 93 94 97 100 87 79 71 62 60 62 68 49 59 51 48 62 60 72 60 72 52 32 15 6 5 4 4 4
59 83 100 100 100 99 96 89 71 82 100 100 91 100 100 100 100 100 97 100 100 100 100 93 93 98 91 90 100 100 96 78 63 65 63 64 56 46 52 50 51 56 56 54 76 51 41 19 8 4 4 4 4 3
67 98 100 100 100 100 99 81 74 90 90 86 99 100 100 100 100 100 100 100 100 100 100 94 95 92 97 99 100 100 90 71 65 63 59 48 43 38 50 48 47 57 60 57 66 36 18 8 4 4 3 3 3 3
78 100 100 100 100 100 100 83 80 86 86 93 100 100 100 100 100 100 100 100 100 100 100 96 97 89 92 100 100 96 81 75 68 54 56 44 44 41 48 42 61 60 69 48 36 16 6 3 3 3 3 2 2 2
100 88 100 100 100 100 100 91 85 85 97 100 100 100 100 100 100 100 100 100 100 100 97 93 100 91 94 99 100 92 73 75 68 62 51 45 44 41 44 43 53 56 51 48 18 9 3 2 3 2 2 2 2 2
100 85 100 100 100 100 100 96 97 94 100 100 100 100 100 100 100 100 100 100 100 100 99 100 92 95 100 100 100 86 79 74 66 61 47 44 43 46 41 49 50 51 46 24 14 5 2 2 2 2 2 2 2 2
100 85 100 100 100 100 99 99 100 100 100 100 100 100 100 100 100 100 100 100 100 100 100 98 95 100 98 93 97 86 76 64 66 64 50 49 50 47 42 50 52 42 30 16 7 3 2 2 3 3 3 3 2 2
100 100 100 100 100 100 99 100 100 100 100 100 100 100 100 100 100 100 100 100 100 100 100 95 100 100 100 100 98 79 71 63 73 68 54 50 51 41 50 47 48 35 13 10 5 3 2 3 4 4 4 4 3 2
100 100 100 100 100 100 100 100 100 100 100 100 100 100 100 100 100 100 100 100 100 100 100 100 93 100 100 100 95 76 73 72 74 60 52 47 43 44 48 53 36 24 11 6 4 3 3 4 4 4 4 4 4 3
100 100 100 100 100 100 100 100 100 100 100 100 100 100 100 100 100 100 100 100 100 100 99 92 100 100 95 94 84 75 67 73 71 60 46 41 45 48 54 39 40 13 9 3 3 3 4 5 4 4 4 4 4 4
100 100 100 100 100 100 100 100 100 100 100 100 100 100 100 100 100 100 100 100 100 100 100 96 97 96 97 82 79 69 71 72 67 54 42 43 45 45 48 33 12 10 6 3 3 3 5 5 4 4 4 4 4 4
100 100 100 100 100 100 100 100 100 100 100 100 100 100 100 100 100 100 100 100 98 93 89 88 96 99 83 79 75 67 66 56 46 45 37 43 47 49 47 21 9 5 3 3 3 5 5 5 4 4 4 4 4 4
100 100 100 100 100 100 100 100 100 100 100 100 100 100 100 100 100 100 100 99 95 88 94 93 96 83 77 70 64 57 52 46 44 38 43 44 44 45 24 12 5 3 3 3 4 5 5 5 5 4 4 4 4 4
100 100 100 100 100 100 100 100 100 100 100 100 100 100 100 100 100 100 89 87 80 88 88 86 86 78 72 68 67 64 54 45 40 44 45 44 37 30 14 8 4 3 3 3 4 5 5 5 5 5 5 4 4 4
100 100 100 100 100 100 100 100 100 100 100 100 100 100 100 100 100 93 95 95 93 90 93 82 83 72 70 65 58 51 45 43 41 46 43 37 29 13 9 4 4 3 3 4 5 5 5 5 5 5 5 4 4 4
100 100 100 100 100 100 100 100 100 100 100 100 100 100 100 94 96 97 100 94 89 89 84 82 82 76 68 59 52 48 44 46 51 46 34 24 13 7 4 3 3 3 4 5 6 5 5 5 5 5 5 4 4 4
100 100 100 100 100 100 100 100 100 100 100 100 100 94 96 100 100 96 91 94 91 89 95 88 72 69 56 51 50 48 43 47 48 36 31 18 6 4 3 3 3 3 4 5 5 5 5 5 4 4 5 5 5 4
100 100 100 100 100 100 100 100 100 100 100 99 98 100 100 94 89 90 92 96 86 80 78 74 63 59 57 54 48 42 45 40 31 33 22 7 4 3 3 3 3 4 5 5 5 5 4 4 4 4 4 5 5 4
100 100 100 100 100 100 100 100 100 100 100 100 100 100 97 92 88 88 82 76 78 79 72 68 60 56 52 46 43 46 42 32 32 18 7 4 4 3 3 3 4 5 5 5 4 4 4 4 4 4 4 4 4 4
100 100 100 100 100 100 100 100 100 100 100 100 100 97 91 86 81 80 76 81 80 73 62 56 50 51 38 37 41 41 34 36 14 6 4 4 4 4 4 4 6 6 6 5 4 5 5 5 5 5 5 5 4 4
100 100 100 100 100 100 100 100 100 100 100 95 98 99 94 84 81 83 78 74 64 57 52 47 45 39 38 37 35 33 34 16 7 5 4 4 4 4 4 6 6 6 5 6 6 5 5 4 3 3 3 4 4 5

GFSWCAN_250_rhum_069.txt.gz
RH
4 7 7 7 6 5 15 38 92 100 100 100 100 100 100 100 100 100 95 93 99 100 100 98 85 96 87 77 73 75 58 47 36 34 37 45 49 56 59 67 70 60 46 39 43 43 55 50 42 37 36 30 30 33
6 7 8 8 14 24 45 78 100 100 100 100 98 100 100 100 100 100 96 99 100 91 100 100 100 90 99 77 85 86 69 59 47 37 31 33 38 44 54 54 63 67 58 52 46 41 36 40 44 43 41 39 33 28
7 7 8 14 29 37 60 93 100 100 100 100 98 97 100 100 100 100 100 100 100 100 100 100 99 82 88 76 84 98 86 65 58 54 42 38 34 38 46 48 51 61 55 48 50 36 31 27 29 30 33 30 32 38
7 8 9 26 54 52 90 98 100 100 100 99 98 99 97 98 98 100 100 91 91 98 96 100 97 85 91 78 87 89 90 78 71 66 57 49 40 41 42 48 51 57 60 61 54 49 58 40 43 36 34 35 24 27
8 9 16 38 56 79 81 87 100 100 100 86 100 98 84 97 100 100 100 99 100 98 99 100 100 92 90 75 80 94 100 87 91 74 65 58 52 46 50 53 52 50 56 63 50 54 58 42 42 34 34 33 26 20
7 8 17 37 49 84 81 100 100 100 100 95 100 92 86 88 100 100 100 99 100 100 100 100 99 90 88 78 79 87 97 97 93 84 71 70 62 50 55 53 55 52 54 55 57 55 54 45 40 40 43 38 28 18
7 9 26 73 100 69 100 100 100 100 100 87 82 79 66 81 94 93 98 100 100 100 94 98 93 90 89 82 88 89 100 100 100 78 79 73 66 63 59 62 53 54 53 54 65 64 62 72 44 52 46 41 27 21
9 13 57 86 77 96 100 100 100 100 91 94 82 82 76 85 96 97 100 100 100 100 97 100 96 93 90 88 85 93 97 100 100 80 95 76 73 73 62 70 56 56 51 55 60 70 71 66 57 56 50 42 42 19
11 16 57 91 90 96 100 100 100 99 100 96 91 84 85 78 94 94 100 99 96 99 100 100 96 96 90 85 81 87 89 100 89 98 100 86 81 72 73 68 53 55 48 57 56 67 66 60 51 52 46 38 35 24
12 23 46 100 100 98 100 100 93 92 97 96 93 90 92 96 91 89 84 85 86 97 92 94 99 88 85 83 79 77 88 100 97 100 100 87 81 69 64 64 50 50 48 51 57 62 63 50 52 51 36 33 21 15
14 23 36 84 85 98 100 100 98 100 99 94 100 100 99 97 89 86 82 86 95 90 91 96 87 87 86 88 82 80 89 100 97 100 100 82 75 69 61 62 56 50 49 49 63 63 60 39 56 40 24 20 11 6
14 17 47 78 88 100 100 100 100 97 83 96 97 82 73 94 100 100 100 99 86 92 95 93 87 85 88 95 92 82 88 100 97 100 97 78 73 81 72 69 73 45 49 48 55 62 56 49 38 24 17 11 6 4
14 32 76 99 98 100 100 100 100 97 81 76 62 58 77 100 100 100 100 97 88 92 97 92 89 87 97 99 92 88 95 94 99 94 89 76 82 74 72 61 68 45 45 49 61 58 51 48 33 15 13 6 4 4
26 68 93 100 100 100 100 100 100 97 76 65 55 71 93 100 100 100 100 100 98 92 93 93 94 97 97 93 96 97 90 84 100 96 76 85 78 71 67 64 60 45 47 54 58 59 51 32 22 11 7 4 4 4
38 48 72 100 100 94 100 100 100 100 87 67 67 86 99 100 100 100 100 100 100 95 93 94 97 98 98 95 100 98 89 88 93 99 82 78 76 81 78 75 64 44 47 51 59 50 32 27 12 9 4 3 4 4
33 49 80 100 100 95 100 100 100 100 91 86 84 100 100 100 100 100 100 100 100 100 91 94 92 99 100 100 100 95 85 80 91 96 90 80 84 82 72 63 48 41 46 47 52 50 28 18 10 7 3 3 4 4
33 53 84 100 98 100 100 100 100 100 98 92 81 90 96 100 100 100 100 100 100 100 94 97 97 100 100 100 93 90 86 84 87 94 87 86 88 73 60 57 46 44 42 51 47 39 26 8 7 4 3 3 4 4
50 71 94 100 100 100 100 100 100 100 94 97 77 84 90 100 100 100 100 100 100 97 100 100 100 100 100 93 86 94 83 84 87 84 78 85 78 65 61 48 42 44 46 56 47 26 13 8 4 3 3 3 4 4
48 84 100 100 100 100 100 100 100 100 100 100 80 76 93 100 100 100 100 100 91 100 100 100 100 100 100 88 83 80 71 75 82 76 81 80 74 60 54 44 46 44 53 50 30 17 7 6 3 3 3 4 4 4
76 87 98 100 100 100 100 100 100 100 100 100 95 98 100 100 100 100 100 100 100 100 100 100 100 100 93 92 79 74 74 85 82 83 78 77 60 59 47 46 48 51 54 32 22 9 7 4 3 3 4 4 4 4
71 82 100 100 100 100 100 100 100 100 100 100 100 100 100 100 100 100 100 100 100 100 100 100 99 92 91 82 75 76 83 82 82 73 74 73 61 50 47 48 53 52 37 19 12 8 4 3 3 3 4 4 5 4
60 99 100 100 100 100 100 100 100 100 100 100 100 100 100 100 100 100 100 100 100 96 100 96 96 100 96 76 72 85 82 75 70 74 68 57 56 45 43 50 51 49 26 10 7 6 3 3 3 4 5 4 4 4
100 100 100 100 100 100 100 100 100 100 100 100 100 100 100 100 100 100 100 100 97 92 99 100 100 95 80 74 76 77 67 69 76 62 60 53 48 43 48 45 47 27 12 6 5 3 3 3 3 5 5 5 4 4
100 100 100 100 100 100 100 100 100 100 100 100 100 100 100 100 100 100 100 100 100 97 98 100 97 81 76 76 68 66 65 72 59 64 45 48 45 46 46 50 31 15 7 5 4 3 3 3 4 5 5 5 4 4
100 100 100 100 100 100 100 100 100 100 100 100 100 100 100 100 100 100 100 100 99 100 100 100 89 83 73 70 62 66 69 58 52 53 52 45 51 51 50 40 26 9 5 4 3 2 3 4 5 5 5 4 4 4
100 100 100 100 100 100 100 100 100 100 100 100 100 100 100 100 100 100 100 100 100 100 100 97 81 75 71 67 65 62 59 54 55 55 48 48 45 45 46 31 19 6 4 3 3 3 3 4 5 4 5 4 4 4
100 100 100 100 100 100 100 100 100 100 100 100 100 100 100 100 100 100 100 100 100 100 94 75 74 73 70 72 59 56 56 54 53 46 44 44 46 42 28 20 6 4 4 3 3 3 4 5 5 5 5 4 4 4
100 100 100 100 100 100 100 100 100 100 100 100 100 100 100 100 100 100 100 100 100 89 79 82 78 79 70 63 58 54 54 50 47 43 44 42 39 27 16 7 4 3 3 3 3 4 5 5 5 4 4 4 4 4
100 100 100 100 100 100 100 100 100 100 100 100 100 100 100 100 100 100 100 100 96 91 87 76 78 73 65 58 56 55 53 51 45 46 45 49 40 19 11 4 3 3 3 3 4 5 5 4 4 5 5 5 4 4
100 100 100 100 100 100 100 100 100 100 100 100 100 100 100 100 100 100 96 94 98 87 81 81 70 70 64 59 53 47 47 41 44 41 45 45 28 18 5 4 4 3 3 4 4 5 5 4 4 4 4 4 5 5
100 100 100 100 100 100 100 100 100 100 100 100 100 100 100 100 100 97 93 87 81 84 76 72 71 67 57 54 50 51 42 42 43 42 45 29 27 8 4 4 4 3 4 5 6 5 5 4 4 3 3 3 3 4
100 100 100 100 100 100 100 100 100 100 100 100 100 100 99 94 85 80 82 86 81 78 76 78 67 58 51 51 50 42 39 41 41 40 31 27 12 5 5 4 4 3 5 6 6 5 4 4 3 3 3 3 3 3
100 100 100 100 100 100 100 100 100 100 100 100 100 98 92 86 84 88 89 85 85 81 74 63 57 56 52 47 41 40 39 39 37 33 29 14 5 5 5 4 4 5 6 6 6 5 4 3 3 3 3 3 3 3

GFSWCAN_250_rhum_072.txt.gz
RH
4 5 11 11 10 8 8 7 10 28 52 100 100 100 100 99 100 100 100 100 100 100 100 84 88 96 84 80 75 73 72 66 62 58 52 43 46 48 46 43 44 51 55 57 59 55 54 46 49 38 42 47 47 46
5 7 14 12 11 10 9 12 23 30 54 100 100 100 100 90 100 100 100 100 100 100 99 81 91 99 86 81 78 84 84 73 67 66 66 62 59 55 45 43 47 45 47 47 52 53 54 48 47 51 40 39 48 46
6 10 15 14 12 11 10 17 43 52 63 100 100 100 100 88 100 100 100 100 100 100 93 84 85 98 88 82 82 82 82 70 62 64 68 80 76 68 62 61 51 42 48 47 46 50 55 54 57 47 43 36 38 47
6 10 13 13 13 16 22 34 62 81 88 100 100 100 100 87 100 100 97 100 100 100 99 89 79 89 94 92 81 76 82 89 71 63 68 87 82 82 85 76 61 58 54 49 45 51 59 62 73 50 45 41 28 34
6 12 15 13 25 31 37 52 75 88 95 100 100 100 99 82 93 97 91 100 100 100 100 94 88 91 93 95 85 79 80 88 89 72 70 84 95 89 88 82 70 65 64 56 46 50 54 63 62 52 41 50 41 34
6 12 14 18 40 38 66 79 100 100 100 100 100 100 100 100 100 100 84 99 100 100 98 92 97 86 88 89 89 86 91 99 89 73 74 91 100 87 87 77 72 71 62 62 55 57 56 66 72 68 48 50 41 34
6 12 15 19 52 54 64 86 94 86 87 100 100 100 100 100 100 100 91 83 97 98 92 95 100 91 90 88 93 90 88 92 89 81 81 92 85 81 87 82 75 78 74 78 79 72 62 59 60 69 61 58 43 43
5 11 17 20 48 63 71 94 97 81 84 100 100 90 91 100 100 100 100 97 100 100 93 93 88 84 91 94 91 92 94 93 84 79 78 80 84 86 90 89 82 83 83 95 90 89 69 57 54 69 66 57 40 33
5 11 16 17 52 60 79 100 98 87 91 100 86 76 95 100 100 100 100 100 100 100 96 85 93 94 100 96 87 91 98 95 91 82 80 79 86 90 99 99 93 84 82 95 93 83 56 63 57 72 60 48 33 26
5 8 11 14 50 62 81 100 100 92 91 100 86 80 99 100 100 100 100 99 96 89 89 90 92 93 99 91 84 92 100 100 99 96 82 82 80 77 86 83 88 83 93 90 88 65 58 64 62 67 53 41 26 22
4 8 12 17 36 55 73 100 100 100 80 82 89 86 92 100 100 98 100 99 93 90 99 95 94 98 98 88 86 90 99 97 93 99 88 87 76 73 73 84 99 94 100 95 78 64 56 61 69 55 50 39 28 20
4 7 12 23 37 60 82 100 100 100 92 92 100 87 74 83 99 100 99 94 92 95 96 94 93 100 99 92 87 91 99 96 98 97 94 92 78 76 89 87 98 96 100 96 78 66 59 58 63 49 36 29 19 12
4 8 19 33 36 78 98 97 100 100 92 90 98 98 70 68 80 96 100 100 100 97 100 98 92 95 100 100 95 100 100 92 91 92 94 94 81 80 90 82 92 88 97 73 63 61 57 53 50 44 28 18 10 6
4 7 38 33 40 90 94 100 100 100 100 97 93 95 92 73 87 100 97 91 96 99 93 79 82 86 94 100 99 100 96 89 90 90 96 88 77 81 80 74 81 79 76 73 68 60 53 67 50 27 17 10 6 3
4 7 52 45 41 63 100 100 100 100 100 93 93 87 91 91 80 92 100 100 100 100 100 93 92 94 96 96 100 94 90 88 88 94 92 79 71 65 67 75 72 78 70 53 58 53 56 56 41 20 10 7 4 3
4 8 46 43 46 64 100 100 100 100 100 99 100 94 100 99 86 94 100 100 100 100 100 97 96 95 95 100 99 86 86 86 84 85 78 77 72 62 73 71 74 75 57 54 55 51 61 47 25 15 9 5 3 3
4 18 52 38 41 60 99 100 100 100 98 92 98 100 100 96 98 100 100 100 100 100 100 92 92 99 98 100 97 89 94 88 81 72 80 75 62 58 67 68 78 59 49 48 52 55 55 38 16 10 6 3 3 2
5 22 46 40 51 67 100 100 100 100 100 98 100 100 100 100 100 100 100 100 100 95 85 85 90 96 100 100 95 88 90 79 70 82 82 67 60 64 71 70 64 56 39 51 54 54 47 18 11 7 4 3 2 2
5 11 36 37 68 99 100 100 100 100 100 97 98 100 100 100 100 100 100 100 95 79 80 90 90 96 100 100 91 85 81 70 73 79 69 65 67 65 58 60 57 42 44 53 58 49 24 13 8 4 3 3 2 3
5 16 51 79 100 100 100 100 100 100 100 100 100 100 100 100 100 100 100 96 87 90 92 92 92 100 100 95 87 86 80 75 83 79 71 64 62 61 59 53 54 45 48 50 54 33 16 10 5 3 3 2 3 4
8 29 70 94 100 100 100 100 100 100 100 100 100 97 100 100 100 100 100 100 100 100 100 100 100 100 97 97 86 78 72 79 79 71 71 73 63 63 57 57 50 46 47 46 37 26 13 6 3 3 3 2 3 5
9 32 60 95 100 100 100 100 100 100 100 100 100 100 100 100 100 100 100 100 100 100 100 100 100 100 100 94 92 82 75 88 78 73 68 65 61 59 54 49 45 43 42 42 26 12 8 4 3 3 3 3 4 5
11 36 69 90 100 100 100 100 100 100 100 100 100 100 100 100 100 100 100 100 100 100 100 100 100 100 98 90 84 82 95 81 74 68 61 58 56 48 49 45 41 43 47 25 18 9 4 3 3 3 4 5 5 5
11 41 51 65 93 100 100 100 100 100 100 100 100 100 100 100 100 100 100 100 100 100 100 100 100 100 94 91 93 98 87 81 79 65 61 59 48 47 48 40 42 46 42 23 11 5 4 3 3 3 4 5 5 5
13 42 71 96 100 100 100 100 100 100 100 100 100 100 100 100 100 100 100 100 100 100 100 100 100 99 97 98 98 98 90 84 74 64 59 53 50 47 46 39 41 44 26 16 8 4 3 3 3 4 5 5 4 4
11 32 78 100 100 100 100 100 100 100 100 100 100 100 100 100 100 100 100 100 100 100 100 100 100 100 100 100 100 95 85 74 64 61 49 48 46 44 43 42 48 45 24 10 5 4 3 3 4 5 4 4 4 4
18 43 77 100 100 100 100 100 100 100 100 100 100 100 100 100 100 100 100 100 100 100 100 100 100 98 97 98 87 82 75 60 57 54 49 43 42 42 39 40 42 31 15 8 4 3 3 4 5 5 4 4 4 4
28 68 100 100 100 100 100 100 100 100 100 100 100 100 100 100 100 100 100 100 100 100 100 100 100 99 100 96 88 77 64 56 51 44 40 42 43 38 36 37 31 16 10 4 4 3 3 5 5 5 5 4 4 3
92 100 100 100 100 100 100 100 100 100 100 100 100 100 100 100 100 100 100 100 100 100 100 100 100 100 94 86 74 62 56 54 44 39 40 42 37 38 34 29 18 10 5 4 3 3 4 6 6 5 5 3 3 3
100 100 100 100 100 100 100 100 100 100 100 100 100 100 100 100 100 100 100 100 100 100 100 99 99 92 81 68 60 56 50 41 39 37 41 39 35 35 38 29 13 8 4 4 3 3 5 6 6 5 4 3 3 3
100 100 100 100 100 100 100 100 100 100 100 100 100 100 100 100 100 100 100 100 100 99 97 98 87 76 75 64 52 42 37 38 38 39 36 34 36 34 39 20 13 5 4 4 4 4 5 6 6 4 3 3 3 3
100 100 100 100 100 100 100 100 100 100 100 100 100 100 100 100 100 100 100 100 100 96 94 88 80 75 62 49 43 42 42 40 36 38 33 36 34 39 23 16 7 4 4 4 4 5 6 6 5 3 3 3 3 3
100 100 100 100 100 100 100 100 100 100 100 100 100 100 100 100 100 100 100 100 90 80 79 78 74 66 52 46 45 41 37 36 38 36 35 37 36 27 19 10 5 4 4 4 4 6 6 6 4 3 3 3 3 3

GFSWCAN_250_rhum_075.txt.gz
RH
5 5 7 12 12 12 12 12 11 16 28 46 66 99 100 100 100 90 89 100 100 100 96 84 83 91 90 78 69 68 64 59 55 57 61 67 64 60 70 77 68 63 58 63 58 65 66 63 64 62 58 55 58 52
6 5 10 13 12 10 11 12 14 33 51 60 77 100 100 99 100 89 74 100 100 100 100 86 93 94 88 79 73 81 76 66 67 60 58 65 61 66 65 74 88 76 66 66 70 81 76 74 67 65 69 61 61 53
7 6 9 18 16 11 10 14 23 23 46 77 91 93 100 99 100 94 82 99 100 100 100 92 93 98 92 89 82 82 80 71 70 63 65 71 77 68 70 71 89 90 73 79 80 85 89 82 75 61 70 62 59 55
8 6 8 19 21 17 17 16 40 56 69 87 92 96 100 96 100 100 94 100 100 100 100 90 90 97 97 98 88 85 90 84 73 68 70 72 73 79 74 81 82 79 79 80 89 87 90 81 95 71 69 71 69 72
8 7 6 13 24 29 46 32 41 56 81 97 100 99 100 98 100 100 93 99 100 100 100 84 97 93 90 92 92 88 90 83 71 73 77 76 72 78 79 77 80 82 86 89 94 88 95 92 91 86 81 79 74 73
8 6 5 9 20 26 52 50 54 69 94 100 99 100 100 100 92 100 93 92 100 100 100 88 90 88 92 88 94 87 92 81 73 79 82 81 80 85 84 75 78 80 77 78 93 94 99 100 94 92 91 87 75 65
8 5 4 8 15 25 38 49 65 88 97 100 100 100 100 100 90 100 100 98 99 100 100 100 98 92 85 88 94 92 92 85 85 84 85 88 91 93 87 86 81 74 68 73 75 79 90 92 94 79 76 71 78 67
8 5 4 7 13 19 34 42 66 90 100 100 100 100 100 100 100 100 100 100 99 100 100 100 96 89 84 91 100 99 99 95 94 88 84 89 93 92 88 84 83 75 68 72 70 75 84 80 93 76 79 75 66 54
8 4 4 6 9 19 27 28 60 91 100 100 100 100 100 100 99 91 95 100 98 98 99 100 95 92 85 96 100 100 100 99 93 90 90 90 88 94 80 81 89 77 67 67 71 68 83 90 81 79 78 78 64 36
7 4 4 4 9 15 20 45 69 92 100 100 100 100 100 100 100 99 100 100 99 100 88 90 83 84 83 99 100 100 100 100 91 92 95 91 92 80 74 77 72 68 70 66 65 76 78 86 86 74 68 74 39 33
7 4 4 4 8 14 22 38 71 92 100 100 100 100 100 100 100 100 100 100 100 96 95 88 92 97 95 100 100 100 100 100 96 95 94 90 88 68 59 63 62 66 74 69 69 79 78 86 86 61 67 65 42 24
7 4 4 4 6 14 25 60 78 88 98 100 100 95 100 100 100 100 100 100 100 97 94 97 91 92 100 100 100 100 100 100 97 84 87 86 76 65 58 62 67 77 72 73 68 70 76 75 74 63 69 52 30 16
7 4 3 4 6 13 32 66 62 82 94 97 100 90 100 100 100 100 100 100 100 100 100 97 99 100 100 100 100 100 100 100 90 86 82 76 68 58 59 67 78 78 69 69 66 65 69 72 69 62 62 34 23 12
6 4 3 3 6 12 38 61 71 87 100 90 96 100 100 100 100 100 99 92 92 91 99 100 100 100 100 100 98 100 100 93 86 86 78 69 58 58 66 75 79 75 70 63 68 65 68 61 62 62 38 28 14 7
6 3 3 3 5 16 38 48 74 80 99 94 86 97 100 100 100 100 100 90 83 82 95 100 100 99 95 99 100 100 98 91 86 82 74 67 63 67 78 81 82 66 63 62 64 69 70 55 55 57 32 16 7 4
5 3 3 3 5 14 35 40 65 72 88 95 86 89 100 100 100 100 100 100 97 98 93 89 91 88 90 99 99 94 92 84 81 78 72 69 74 81 87 76 74 68 60 62 61 65 65 50 54 50 25 9 6 3
4 3 3 3 4 18 27 40 42 76 69 86 100 90 100 100 100 93 94 92 95 90 94 93 93 90 96 95 86 86 88 85 82 81 74 78 82 85 85 78 73 62 54 67 60 63 61 53 52 29 16 8 4 3
3 3 3 3 4 7 18 31 29 66 80 96 100 100 100 100 100 100 100 97 99 98 100 98 95 98 94 89 92 95 96 97 90 86 82 81 90 88 83 81 63 56 63 64 62 56 50 52 42 20 9 6 3 3
2 3 3 3 3 6 15 24 36 70 100 100 100 100 100 100 100 100 100 100 100 100 95 97 100 100 100 100 100 100 100 97 95 86 82 86 91 86 83 62 61 60 68 54 49 54 51 45 24 15 7 5 3 3
2 3 3 3 3 7 20 43 51 81 100 100 100 100 100 100 100 98 100 100 100 100 100 100 100 100 100 100 100 100 100 100 100 95 93 98 90 83 70 58 62 61 57 62 49 46 53 40 20 10 6 4 3 3
2 3 3 2 3 7 13 38 52 90 100 100 100 100 100 100 100 100 100 100 100 100 100 100 100 100 100 100 100 100 100 100 100 100 100 95 83 80 77 66 56 60 58 51 42 49 42 24 16 7 4 3 3 3
2 2 3 3 3 7 17 34 57 96 100 100 100 100 100 100 100 100 100 100 100 100 100 100 100 100 100 100 100 100 100 100 100 100 100 98 88 82 79 62 60 63 52 40 42 46 37 19 10 5 4 3 3 4
2 2 2 2 4 6 18 36 63 100 100 100 100 100 100 100 100 100 100 100 100 100 100 100 100 100 100 100 100 100 100 100 100 100 100 88 83 78 58 60 54 47 42 39 41 40 26 14 6 4 4 3 3 4
2 2 2 3 4 9 24 50 77 99 100 100 100 100 100 100 100 100 100 98 100 100 100 100 100 100 100 100 100 99 99 100 94 93 96 93 82 66 52 46 48 41 36 40 42 32 18 9 5 4 3 3 4 5
2 2 2 3 4 10 34 69 100 100 100 100 100 100 100 100 100 100 96 97 100 100 100 100 100 100 100 100 100 100 100 97 99 100 95 81 77 54 52 46 42 35 38 45 36 29 12 7 5 3 3 4 5 5
2 2 3 3 6 15 59 100 100 100 100 100 100 100 100 100 100 100 100 100 100 100 100 100 100 100 100 100 100 100 99 100 100 82 77 80 54 54 49 44 38 37 40 41 32 20 10 6 4 3 3 4 5 4
2 3 4 4 9 46 96 100 100 100 100 100 100 100 100 100 100 100 100 100 100 100 100 100 100 100 100 100 100 100 100 98 76 73 73 56 48 48 42 33 37 40 37 38 31 12 8 4 4 3 4 5 5 4
3 4 6 8 26 77 100 100 100 100 100 100 100 100 100 100 100 100 100 100 100 100 100 100 100 100 100 100 100 100 88 83 82 73 56 48 44 39 34 35 39 39 43 32 15 10 5 4 3 3 5 6 5 3
4 5 9 28 74 100 100 100 100 100 100 100 100 100 100 100 100 100 100 100 100 100 100 100 100 100 100 100 98 92 88 82 74 56 45 38 35 32 33 37 37 39 30 22 13 8 4 4 3 4 6 6 4 3
5 8 25 64 94 100 100 100 100 100 100 100 100 100 100 100 100 100 100 100 100 100 100 100 100 100 100 98 91 87 84 77 62 53 47 38 32 35 37 36 35 36 33 14 11 5 4 4 3 5 6 5 4 3
10 36 70 99 100 100 100 100 100 100 100 100 100 100 100 100 100 100 100 100 100 100 100 100 100 100 100 96 87 81 78 68 62 48 39 37 37 37 35 37 38 37 24 12 6 4 3 3 4 6 6 5 4 3
30 60 100 100 100 100 100 100 100 100 100 100 100 100 100 100 100 100 100 100 100 100 100 100 100 100 100 90 79 73 65 63 46 41 38 37 36 36 34 40 32 28 12 8 4 4 4 4 6 6 6 4 4 4
94 100 100 100 100 100 100 100 100 100 100 100 100 100 100 100 100 100 100 100 100 100 100 100 100 96 86 82 73 63 62 48 43 41 38 38 34 35 38 34 27 13 9 4 4 4 4 5 6 6 5 4 4 3

GFSWCAN_250_rhum_078.txt.gz
RH
29 8 7 12 19 22 17 28 25 17 21 38 73 83 95 98 95 100 100 100 91 92 89 79 79 83 82 79 66 61 58 58 57 54 56 58 55 60 59 58 57 64 64 62 69 68 72 71 75 79 86 79 77 82
84 13 9 8 16 20 20 19 24 25 28 37 78 99 100 100 98 100 100 100 97 95 100 84 80 82 81 76 76 68 61 63 65 62 64 66 68 68 72 69 68 73 68 67 70 65 72 82 78 82 85 75 83 82
75 84 18 8 10 18 20 23 29 46 43 44 77 96 100 100 99 100 100 100 100 100 100 94 86 84 89 88 86 79 72 70 66 66 69 73 81 82 88 85 87 79 78 82 70 65 73 80 88 84 95 98 89 99
73 97 68 12 10 13 16 25 54 56 64 62 64 88 98 100 99 98 100 100 100 100 100 100 96 92 84 92 94 94 87 88 73 73 77 78 87 91 87 84 88 85 84 87 69 65 72 86 82 89 83 87 92 100
70 70 69 31 13 8 17 31 52 62 68 70 66 76 98 100 100 99 100 100 100 100 100 100 100 92 90 90 97 99 99 98 86 85 81 79 85 85 85 84 82 79 79 70 64 79 78 85 81 94 96 89 100 100
55 62 52 26 11 8 14 30 69 66 75 79 72 76 100 100 100 100 95 100 100 100 100 99 100 100 90 86 89 95 95 96 89 92 84 84 81 81 78 87 76 71 67 65 70 77 73 81 73 82 100 88 100 99
99 51 39 29 9 9 13 30 58 75 84 85 91 87 100 100 100 100 100 96 99 100 100 100 100 100 96 86 83 93 99 95 94 96 92 90 89 85 76 82 76 69 59 63 74 78 78 81 82 86 100 95 96 94
86 46 36 21 8 8 8 28 49 78 82 92 100 100 99 100 100 100 100 100 100 100 100 100 100 100 99 89 84 98 100 98 92 88 89 91 88 83 77 78 77 70 60 67 72 76 81 76 77 90 94 94 91 80
88 76 56 14 6 9 6 21 41 43 78 96 90 100 100 100 97 92 100 100 100 100 100 100 100 100 87 86 87 99 100 99 90 86 86 91 88 81 75 74 72 63 61 66 76 86 80 73 78 83 88 95 75 73
82 98 48 19 6 8 6 10 28 62 86 100 98 100 100 100 99 100 100 100 100 100 100 100 100 100 94 96 90 98 100 100 100 88 80 81 83 81 78 74 70 62 71 80 84 84 74 70 85 65 78 81 68 63
76 73 52 18 6 8 6 7 18 72 85 100 94 93 100 100 100 99 98 100 100 100 100 100 98 100 100 95 97 100 100 100 99 89 80 81 81 76 75 68 63 70 78 84 86 82 71 72 77 62 68 60 57 55
92 72 48 13 6 7 7 6 14 40 55 90 100 94 100 100 100 100 100 100 100 100 100 100 100 100 100 100 100 100 100 100 100 92 86 85 75 75 72 70 67 79 85 91 87 75 77 76 66 59 62 58 53 46
94 94 35 9 5 6 8 5 10 15 45 68 97 92 100 100 100 100 100 100 100 100 96 86 91 94 100 100 100 100 100 100 100 90 87 78 79 76 72 68 80 86 90 90 89 81 83 68 59 56 63 50 49 38
100 66 24 7 5 6 8 5 6 11 22 51 89 99 87 100 100 100 100 100 100 96 91 98 100 100 97 100 100 100 100 100 90 86 80 76 75 70 70 82 87 88 92 91 93 90 81 70 58 53 50 50 46 27
96 20 10 5 5 6 8 6 5 9 12 31 57 94 96 100 100 100 100 100 100 99 100 98 97 100 100 100 100 100 97 91 86 79 75 80 82 75 80 87 89 94 87 97 90 82 65 61 49 51 51 50 38 22
53 12 7 5 5 6 7 6 4 6 10 16 44 97 100 100 100 100 100 100 100 100 100 100 100 100 100 100 100 100 90 77 72 85 90 84 79 80 95 98 99 87 89 97 78 71 59 54 41 48 54 45 29 15
66 8 6 5 5 6 7 5 4 5 9 15 38 95 100 100 100 100 100 100 100 100 100 100 100 100 100 100 100 100 83 86 98 100 93 91 92 98 100 100 98 86 93 89 77 66 55 46 40 48 49 41 23 12
38 6 6 5 5 6 7 4 3 4 8 19 44 90 100 98 100 100 100 100 100 100 100 100 100 100 100 100 100 94 99 100 100 100 100 95 98 100 100 100 98 92 89 83 65 55 47 36 45 53 46 27 18 10
9 5 5 5 6 6 6 4 3 4 9 30 50 87 100 92 100 100 100 100 100 100 100 100 100 100 100 100 100 100 100 100 100 100 100 100 93 99 100 100 92 92 93 67 57 49 42 37 47 46 39 22 13 9
6 4 5 5 6 6 5 3 3 5 11 35 64 90 100 99 95 100 100 100 99 96 100 100 100 100 100 100 100 100 100 100 100 100 100 100 98 100 100 92 90 85 71 58 48 45 43 36 48 41 28 17 11 6
5 4 5 6 6 6 4 3 4 5 9 26 48 73 100 100 100 100 100 91 92 98 100 100 100 100 100 100 100 100 100 100 100 100 100 98 95 100 97 86 78 66 61 53 51 47 39 42 41 37 21 12 9 4
4 4 6 6 5 5 4 3 3 5 12 28 50 72 100 100 100 100 100 100 97 98 100 100 100 100 100 100 100 100 100 100 100 100 100 89 94 97 91 87 67 61 57 53 53 40 39 44 37 39 20 10 6 3
4 4 6 5 5 5 3 3 4 5 18 30 51 68 96 100 100 100 99 99 100 100 100 100 100 100 100 100 100 100 100 100 100 100 92 90 93 96 93 76 73 67 51 51 38 36 39 41 39 23 13 7 4 3
5 5 5 4 5 3 3 3 4 4 15 28 41 53 90 100 100 100 100 100 100 100 100 100 100 100 100 100 100 100 100 100 100 98 93 87 98 92 80 81 74 54 47 45 38 30 38 37 35 17 9 5 3 3
4 4 4 4 4 3 3 3 4 4 9 30 40 58 91 100 100 100 100 100 100 100 100 100 100 100 100 100 100 98 93 100 100 97 92 100 100 86 77 72 56 49 42 42 28 39 38 36 25 12 8 4 3 3
3 3 3 3 3 3 3 4 4 6 33 59 61 74 94 100 100 100 100 100 100 100 95 100 100 100 100 99 98 91 97 100 100 97 100 100 100 84 76 59 47 45 41 30 32 36 38 34 16 10 7 4 3 4
2 2 3 3 3 4 4 4 4 14 73 78 77 94 96 98 100 100 100 100 100 100 100 100 100 92 93 97 96 100 100 100 100 100 100 100 91 78 66 53 48 41 34 29 38 40 36 23 12 9 4 3 3 5
2 3 4 4 4 4 4 5 5 16 61 69 82 91 98 100 100 100 100 100 100 100 100 94 90 95 100 100 100 100 100 100 100 100 100 89 81 75 57 51 42 37 31 36 38 39 30 17 12 6 4 3 4 6
3 3 3 4 3 3 3 4 7 36 83 100 100 95 100 100 100 100 100 100 100 100 100 100 100 100 100 100 100 100 100 100 100 98 91 84 78 63 55 43 39 31 34 38 41 31 25 14 8 4 4 3 5 6
4 3 3 3 3 3 3 6 20 74 100 100 100 100 100 100 100 100 100 100 100 100 100 100 100 100 100 100 100 100 100 98 95 89 84 79 64 53 44 37 38 32 38 39 36 27 20 10 4 4 4 4 6 5
4 3 3 2 3 4 5 8 34 84 100 100 100 100 100 100 100 100 100 100 100 100 100 100 100 100 100 100 100 100 98 94 89 86 78 63 56 43 36 36 31 38 39 43 24 26 12 5 4 4 4 5 5 5
4 3 3 4 4 4 7 15 39 89 100 100 100 100 100 100 100 100 100 100 100 100 100 100 100 100 100 100 100 100 97 92 89 82 65 57 44 41 37 31 37 40 41 32 27 15 8 4 4 4 4 5 5 4
4 4 4 4 4 6 13 32 62 100 100 100 100 100 100 100 100 100 100 100 100 100 100 100 100 100 100 100 100 98 92 88 80 66 58 47 42 38 32 36 40 41 40 25 20 10 5 4 4 4 5 5 4 3

GFSWCAN_250_rhum_081.txt.gz
RH
100 100 100 100 71 38 33 32 25 31 48 44 74 90 96 100 100 100 95 98 86 82 78 70 69 63 60 54 53 57 55 55 57 62 67 71 73 68 65 67 65 64 64 66 69 70 71 67 67 66 73 78 78 87
81 93 100 100 100 95 36 43 48 32 40 56 74 82 90 100 100 100 98 100 99 87 85 86 84 72 64 65 60 62 68 66 71 72 70 69 66 65 66 70 70 67 62 62 73 70 78 75 74 76 90 86 92 94
66 97 100 100 100 100 70 34 39 55 52 65 84 98 86 100 100 100 96 98 100 98 93 97 97 91 92 88 82 80 79 77 73 74 74 73 73 74 70 68 66 64 63 63 69 75 83 80 74 84 82 76 94 94
66 77 94 100 100 100 59 19 40 55 62 84 82 98 88 96 100 100 100 100 100 100 93 95 95 99 95 94 91 88 87 91 86 78 82 81 81 82 81 76 77 70 68 67 68 74 90 91 89 89 89 89 87 91
70 64 86 100 100 100 87 14 28 50 63 81 93 100 95 91 98 100 100 100 100 100 100 99 96 99 97 94 94 90 96 89 91 88 87 86 84 80 80 80 80 78 74 67 70 84 90 94 90 91 95 88 74 79
64 50 76 100 100 100 100 23 12 38 78 86 98 100 100 98 100 97 100 100 100 100 100 100 100 100 100 99 96 94 88 89 83 87 88 92 89 86 81 77 76 78 73 67 72 83 90 91 90 95 96 80 65 72
62 53 67 100 100 100 100 24 10 13 42 68 77 100 94 100 98 100 100 100 100 100 100 100 95 100 100 100 100 100 98 94 84 80 83 87 90 86 78 77 75 78 74 70 75 85 95 91 95 99 91 76 64 67
94 72 67 93 100 100 100 59 10 10 15 48 81 86 98 100 99 98 100 98 94 100 100 100 100 100 100 100 99 100 100 99 94 89 80 81 80 80 77 82 82 81 80 72 80 83 87 97 96 99 77 65 61 63
100 76 76 78 87 100 100 69 18 9 10 24 57 86 85 96 100 96 100 99 99 91 95 100 96 96 88 90 86 91 100 100 100 100 88 73 77 80 76 80 83 85 85 76 83 80 87 99 100 86 71 64 58 54
99 90 70 68 75 100 100 67 28 7 9 11 48 77 90 95 99 100 93 95 100 100 99 100 100 94 87 86 84 92 100 100 100 98 87 87 84 77 70 77 87 89 82 78 79 78 82 100 93 80 66 56 52 52
81 75 85 76 61 84 92 99 26 6 8 6 11 44 73 96 93 92 94 86 100 100 100 100 100 100 100 100 97 100 100 100 100 98 100 87 76 65 68 75 94 88 86 84 86 77 86 97 82 67 55 53 55 45
76 68 76 92 75 81 88 100 48 7 7 8 6 16 49 86 88 92 95 95 100 100 100 100 100 100 100 100 100 100 100 100 100 100 99 86 73 71 77 96 96 87 87 86 76 91 97 82 64 54 57 49 53 49
62 53 98 78 81 88 92 100 93 9 6 8 6 8 31 55 79 100 100 100 98 99 100 100 100 97 100 100 100 99 100 100 100 100 99 85 79 88 89 98 91 89 83 75 88 99 92 79 54 47 54 54 46 42
59 88 96 82 95 82 100 94 96 48 6 7 7 6 14 36 75 100 100 100 100 93 98 100 94 99 92 90 99 99 100 100 100 95 86 84 100 99 95 88 84 81 85 86 90 94 87 73 49 45 49 43 47 45
53 100 73 82 93 80 99 100 97 39 6 6 8 6 11 60 100 100 100 100 100 100 93 92 89 96 100 100 97 96 100 100 100 92 94 100 100 94 91 86 89 91 93 94 88 91 77 60 52 46 45 50 44 43
65 89 66 81 97 86 98 99 80 14 6 6 8 7 11 55 100 100 95 100 100 100 86 84 82 90 98 97 100 100 100 100 100 100 100 100 100 100 89 84 91 100 99 92 96 83 71 60 55 44 45 46 37 44
73 85 88 69 74 93 85 94 34 8 6 6 9 9 10 34 89 100 89 100 100 100 100 91 84 92 100 100 100 100 100 100 100 100 100 100 100 99 89 97 100 100 98 99 93 72 65 58 51 43 43 40 42 38
73 88 76 71 62 69 94 94 19 6 6 6 8 8 8 24 64 94 100 100 100 100 100 100 98 90 96 100 100 100 100 100 100 100 100 100 99 92 94 97 100 100 88 87 77 66 60 55 44 37 41 42 44 33
89 68 78 72 70 75 100 99 10 6 5 6 8 8 6 13 27 74 100 100 100 100 100 100 100 98 99 100 100 100 100 100 100 100 100 93 94 99 91 99 100 100 90 82 65 63 56 49 41 38 39 42 37 25
97 68 82 57 70 78 78 72 7 6 5 6 8 8 5 7 14 42 97 100 100 100 100 100 100 100 100 100 100 100 100 100 100 100 94 96 100 98 92 100 100 98 82 74 67 63 52 43 37 35 39 43 33 20
82 64 57 58 48 65 70 15 6 6 6 8 8 7 5 5 12 24 77 100 100 100 100 100 100 100 100 100 100 100 100 100 100 90 97 99 99 96 98 100 100 94 77 73 69 60 49 40 39 34 46 39 27 18
66 73 68 48 54 32 25 7 5 6 7 8 8 6 4 5 9 22 38 68 100 100 100 100 100 100 100 100 100 100 100 100 94 97 93 97 95 99 100 100 96 82 76 71 66 55 46 39 34 38 46 34 23 14
59 90 73 47 22 20 10 6 6 7 8 8 7 5 4 5 7 16 20 45 100 100 100 100 100 100 100 100 100 100 100 100 100 99 96 96 100 100 100 97 85 80 77 66 60 52 40 36 32 43 37 30 18 10
84 51 42 19 11 8 7 6 6 8 8 8 6 4 4 5 6 9 20 41 79 97 100 100 100 100 100 100 100 100 100 100 100 100 98 100 100 100 100 87 81 82 71 60 56 48 40 33 38 42 33 26 13 7
41 28 9 6 7 7 6 5 7 8 8 8 5 4 4 5 6 10 35 56 76 100 100 100 100 100 100 100 100 100 100 100 100 99 100 100 100 97 88 84 90 78 62 59 52 41 35 35 41 38 32 21 8 6
10 4 4 7 7 6 6 6 7 7 7 7 5 4 4 4 5 18 60 73 87 100 100 100 100 100 100 100 100 100 100 100 100 100 100 100 98 84 89 93 83 63 62 51 44 38 37 37 43 35 27 14 8 5
3 3 5 7 7 7 7 7 7 6 6 5 4 4 4 4 5 40 75 94 100 100 100 100 100 100 100 100 100 100 100 100 100 100 100 96 88 81 89 86 68 60 54 52 39 37 40 39 35 32 20 10 6 4
4 4 6 8 7 7 7 7 5 4 5 4 4 3 4 5 13 53 88 100 100 100 100 100 100 100 100 100 100 100 100 100 99 100 100 91 86 87 85 78 62 58 54 41 40 41 41 36 36 25 14 10 4 4
6 7 7 7 6 5 4 4 4 4 4 4 4 4 5 7 22 64 89 97 100 100 100 100 100 100 100 100 100 100 100 100 100 100 96 87 89 87 84 70 62 59 48 45 41 44 40 34 30 18 12 7 4 4
6 6 5 5 4 3 3 3 4 3 3 4 4 4 5 9 32 73 95 100 100 100 100 100 100 100 100 98 94 99 100 100 94 93 92 95 93 88 74 67 62 56 46 43 48 47 35 32 23 14 9 4 4 4
4 3 3 3 2 2 2 3 3 3 3 3 3 4 5 13 52 89 100 100 100 100 100 100 100 100 92 97 100 100 96 94 96 100 100 98 91 77 72 68 64 52 45 48 49 39 34 24 14 11 6 4 4 6
3 3 3 2 2 2 2 2 3 3 3 3 3 4 8 30 87 100 100 100 100 100 100 100 100 96 99 100 95 100 100 100 100 100 100 89 82 77 72 69 61 49 48 46 40 36 28 16 12 7 4 4 4 6
2 2 2 2 2 3 3 3 3 3 4 3 4 6 21 55 99 100 100 100 100 100 100 100 100 100 100 100 100 100 100 100 100 100 92 90 83 75 72 67 54 50 46 42 37 30 18 12 9 5 4 4 6 6

GFSWCAN_250_rhum_084.txt.gz
RH
83 86 100 94 100 100 100 92 95 100 99 100 100 100 100 97 87 84 81 76 67 61 61 57 59 57 54 53 55 54 58 56 57 56 57 60 62 69 73 73 72 68 67 74 74 77 79 76 83 83 81 78 72 63
58 92 100 96 90 100 100 100 43 65 100 85 100 100 100 100 100 89 92 90 87 82 76 74 72 72 70 64 64 64 63 63 63 64 70 74 76 70 68 72 77 82 76 73 81 86 86 91 85 85 93 84 76 68
45 42 75 94 90 88 100 100 65 21 60 98 80 100 100 100 100 100 100 96 91 88 86 82 79 82 84 80 74 71 74 75 78 79 83 87 87 87 81 78 80 82 79 73 75 83 90 95 89 94 93 94 78 71
52 44 34 40 72 95 100 100 100 60 20 45 99 79 100 100 100 100 100 100 100 94 96 87 78 85 92 94 90 85 84 82 83 89 91 90 94 96 93 88 88 86 85 83 77 77 82 91 95 95 96 100 84 72
69 59 55 40 40 59 100 100 100 100 34 16 42 99 86 100 100 100 100 100 100 100 98 97 91 82 82 93 100 98 92 94 92 90 91 91 94 92 88 84 84 87 90 91 87 79 81 85 91 93 100 98 82 68
80 57 64 62 36 52 76 97 100 100 61 12 13 43 88 98 100 100 100 100 100 100 100 100 100 100 89 88 95 96 96 96 96 96 93 87 83 83 81 79 81 81 90 98 94 83 85 89 84 94 84 76 66 57
60 65 74 56 48 53 69 93 100 100 100 27 8 12 49 78 92 100 100 100 100 100 100 100 100 93 96 96 93 94 96 100 100 99 100 97 84 80 77 72 72 74 85 96 98 89 84 79 70 78 71 70 64 54
72 59 52 55 38 44 49 72 95 100 100 100 54 8 13 48 84 92 100 100 100 100 100 100 100 100 94 90 93 86 82 89 100 100 99 88 80 77 75 73 72 78 82 97 100 93 90 74 67 74 72 66 65 53
87 85 49 82 49 64 50 64 87 99 100 100 100 66 10 15 52 89 96 100 100 83 94 100 96 97 90 78 85 87 81 80 95 100 98 94 86 83 75 77 79 93 97 100 100 98 84 71 66 66 65 61 66 52
86 77 67 96 56 49 70 49 67 98 100 97 96 59 29 9 18 62 91 94 100 100 100 93 89 90 93 89 82 82 90 82 94 100 97 100 86 88 81 86 100 96 100 100 99 91 82 71 65 60 65 70 65 53
83 80 78 84 58 66 78 45 65 75 84 100 97 87 13 8 9 28 63 94 96 100 100 100 100 96 99 94 94 92 97 92 100 100 100 94 82 85 79 99 100 100 100 95 87 84 81 75 64 59 73 74 62 47
99 91 71 92 61 65 79 46 52 75 99 98 100 80 10 6 8 9 38 97 100 100 100 100 100 89 95 99 100 98 95 97 100 100 100 92 93 77 91 100 100 100 99 89 89 97 81 81 68 68 71 71 54 46
96 77 72 62 76 90 89 51 48 65 86 78 85 82 42 6 7 9 22 58 85 96 92 100 100 100 96 98 95 97 91 98 100 100 99 87 82 90 98 100 100 100 100 91 76 90 80 79 68 71 73 70 52 47
68 83 75 63 71 81 88 52 53 78 92 98 80 98 75 48 6 10 13 29 54 77 96 94 100 100 100 97 87 100 100 100 100 100 96 93 83 98 100 100 100 100 100 86 73 90 86 86 84 78 70 61 52 44
100 100 93 61 82 60 86 51 56 62 100 93 82 93 96 67 7 7 10 17 40 46 75 94 88 93 98 99 97 95 100 100 99 86 89 92 82 100 100 100 100 100 100 91 73 82 87 92 83 79 65 59 53 44
84 93 56 65 93 65 58 56 51 59 78 92 99 80 86 81 6 6 8 8 14 34 59 86 89 80 87 92 95 92 99 100 94 85 92 86 92 100 100 100 100 100 100 94 84 88 84 90 89 76 64 59 50 42
94 87 58 86 75 66 64 52 49 62 55 97 90 87 76 88 7 6 6 9 7 20 45 71 80 79 85 87 92 100 100 94 90 93 92 93 83 100 100 100 100 100 100 89 95 90 88 88 80 72 63 55 45 38
92 62 73 85 76 63 58 54 66 69 67 100 93 84 86 59 6 6 6 7 8 8 30 58 88 84 90 87 83 92 97 94 92 100 100 93 86 100 100 100 100 100 100 88 98 97 91 88 76 70 63 52 43 36
97 82 69 81 70 55 44 52 60 55 88 77 97 78 89 37 6 6 6 6 9 8 12 45 66 98 100 100 87 87 99 100 100 100 100 100 99 96 100 100 100 100 99 94 100 89 87 91 77 68 58 46 39 37
74 70 82 75 70 42 43 54 56 81 92 93 85 62 51 13 5 5 6 7 8 8 7 25 70 92 100 100 100 100 98 98 100 100 100 97 98 100 100 100 100 100 93 97 100 86 87 91 75 63 52 43 33 35
95 68 70 70 56 65 57 58 77 74 100 100 86 39 27 8 5 5 6 7 8 8 10 28 60 81 97 99 100 100 100 100 100 100 100 100 100 100 100 100 100 85 88 99 96 82 95 86 70 58 47 42 30 37
80 72 64 68 50 44 44 72 86 97 100 100 78 21 14 6 5 5 6 7 9 10 10 23 53 79 100 100 100 100 100 100 100 100 100 100 100 100 100 100 91 83 86 100 96 95 88 72 63 53 44 37 33 38
69 79 72 59 34 45 54 76 72 100 100 100 58 11 8 5 5 5 7 8 9 10 9 12 35 66 94 100 100 100 100 100 100 100 100 100 100 100 100 100 96 82 96 100 90 89 84 68 55 48 42 34 39 36
94 77 59 48 49 64 60 57 89 100 100 99 45 7 5 5 5 6 8 8 8 7 7 9 19 60 100 100 100 100 100 100 100 100 100 100 100 100 100 100 96 86 100 100 91 90 78 60 50 44 39 39 38 32
70 63 50 56 52 59 57 75 100 100 97 46 12 6 5 5 6 7 8 8 7 6 6 8 19 64 98 100 100 100 100 100 100 100 100 100 100 100 100 100 86 86 100 96 90 87 65 53 50 43 38 44 40 26
63 63 73 68 51 76 79 75 85 64 26 11 7 5 5 5 6 8 9 7 6 5 6 10 27 50 77 99 100 100 100 100 100 100 100 100 100 100 100 99 80 86 100 90 91 74 56 49 50 39 49 43 33 25
54 28 27 28 50 67 67 59 31 15 8 6 6 5 6 7 8 9 8 6 5 5 5 9 26 48 66 96 100 100 100 100 100 100 100 100 100 100 100 90 85 94 97 87 83 60 52 51 42 45 49 41 29 22
20 24 37 51 43 36 18 12 9 6 5 5 5 6 6 7 7 7 8 6 4 4 5 10 28 52 71 100 100 100 100 100 100 100 100 100 100 100 94 84 92 100 89 83 66 54 53 46 44 50 47 36 29 22
18 22 17 15 12 8 6 6 6 6 5 4 5 5 6 6 5 6 6 6 5 5 5 10 27 63 97 100 100 100 100 100 100 100 100 100 99 85 80 90 100 94 79 66 55 55 52 47 49 50 40 32 25 18
11 10 9 6 4 4 4 4 4 4 4 4 4 4 6 6 4 5 5 5 5 5 6 15 36 64 82 97 100 100 100 100 100 100 100 93 78 82 93 98 97 82 68 59 65 62 57 54 47 48 36 28 22 12
6 5 4 4 4 4 4 4 4 4 4 4 4 4 5 5 4 4 5 5 5 5 7 21 45 81 99 100 100 100 100 100 100 100 96 78 79 97 100 93 84 76 66 67 72 69 55 52 55 39 32 24 16 6
4 4 4 4 4 4 4 5 4 4 4 3 3 4 4 4 3 4 4 5 5 5 12 36 83 100 99 98 100 100 100 100 100 100 84 80 92 100 90 85 88 79 75 78 71 59 55 53 42 33 23 17 7 5
4 4 4 5 5 5 4 3 3 3 2 2 3 3 3 3 3 4 4 5 5 7 22 58 82 100 100 100 100 100 100 100 100 87 86 90 98 98 92 94 85 81 82 72 66 58 54 47 34 24 18 9 5 4

GFSWCAN_250_rhum_087.txt.gz
RH
54 67 49 61 68 61 67 89 100 100 79 31 78 96 94 100 100 100 100 92 79 68 65 62 59 55 55 58 58 54 56 59 63 64 63 62 65 68 70 70 70 71 73 76 80 83 80 76 77 73 70 69 68 68
79 65 73 55 70 66 81 82 99 100 100 75 32 74 97 80 100 100 100 100 99 94 86 78 71 69 61 65 68 67 69 71 75 78 77 78 80 79 80 80 86 91 94 94 88 87 90 94 94 88 76 69 72 64
100 78 93 89 56 59 69 74 75 100 100 100 65 26 65 92 72 91 100 100 100 100 99 87 86 83 82 80 80 79 78 77 83 87 88 88 88 88 86 82 86 92 95 97 99 96 95 92 91 90 83 67 63 72
100 74 47 59 74 64 63 76 68 69 100 100 100 63 22 62 90 67 80 100 100 100 100 100 92 91 91 87 86 83 82 82 84 88 90 90 85 81 80 80 82 82 89 96 92 96 97 92 84 83 74 70 71 70
100 61 47 47 59 96 64 65 84 71 63 97 100 94 48 19 52 91 75 68 100 100 100 100 100 87 89 88 91 92 83 83 83 75 84 96 96 91 82 80 80 79 80 93 94 99 92 88 88 89 76 71 68 67
97 95 66 70 37 98 92 55 61 87 78 66 89 100 99 36 22 50 90 83 59 100 100 100 100 100 81 83 84 91 97 88 90 94 80 80 80 86 87 79 90 92 92 98 100 100 100 99 90 84 74 68 69 65
100 98 95 73 90 77 91 100 55 73 66 73 72 96 100 82 32 27 33 81 91 62 93 100 100 100 100 100 96 90 78 82 83 91 96 87 86 83 83 78 85 94 100 100 100 100 100 99 88 82 74 68 67 67
85 81 86 70 65 81 35 100 82 59 74 67 68 80 96 100 56 21 24 38 81 93 72 69 99 100 100 100 100 88 85 87 80 84 92 95 92 94 81 79 79 84 100 100 100 100 100 100 90 84 78 67 63 61
100 78 79 78 82 68 37 68 95 78 81 73 65 68 79 91 89 63 17 20 42 83 100 91 74 85 100 100 100 100 84 76 74 76 90 95 90 95 85 82 76 87 98 100 100 100 100 100 96 79 68 66 64 63
90 100 97 76 65 84 65 48 57 61 70 69 73 56 71 86 100 100 85 27 10 33 92 100 97 82 76 92 97 88 84 83 74 74 82 86 81 100 90 83 78 90 95 100 100 100 100 100 100 93 78 69 73 73
100 100 70 41 97 96 79 53 39 59 71 81 76 58 69 81 85 100 95 80 30 10 31 70 85 100 99 85 82 82 85 83 88 95 97 96 82 91 91 81 85 82 90 100 100 100 100 100 100 93 96 84 81 79
100 100 67 50 100 95 89 61 66 48 58 89 67 52 50 60 70 84 93 80 74 20 10 24 52 84 100 100 94 82 83 92 99 100 100 100 82 95 84 78 100 95 87 85 100 100 100 100 98 91 98 87 84 77
100 100 100 80 54 52 64 95 67 60 80 86 54 40 54 55 62 70 80 99 61 20 8 8 25 43 77 98 100 96 83 98 100 89 100 100 94 100 84 80 95 100 82 85 100 100 100 99 100 92 98 86 83 79
100 100 100 100 63 34 51 55 62 62 61 82 87 57 47 59 65 67 69 84 84 22 7 8 8 23 34 64 96 100 100 98 100 100 100 99 96 96 83 82 90 98 85 97 100 100 100 95 98 92 94 91 84 75
82 100 100 100 94 63 49 46 49 91 98 97 96 52 58 59 49 51 65 72 81 23 7 6 8 9 22 47 63 90 99 100 100 100 100 99 87 93 89 87 96 97 76 90 100 100 100 94 99 92 90 86 81 71
100 98 100 100 100 64 51 44 52 80 98 100 92 55 60 40 55 53 67 68 75 44 7 5 6 8 10 22 56 75 90 100 100 100 99 91 93 92 90 90 100 90 82 98 100 100 100 100 100 88 84 90 82 70
71 83 100 96 74 78 67 45 46 65 100 100 98 66 67 53 55 54 57 59 63 88 15 6 5 6 9 12 41 66 93 95 96 100 100 100 96 90 89 97 99 89 98 100 100 100 100 100 98 85 81 88 84 69
100 93 82 88 86 82 71 43 41 69 100 100 100 83 76 54 52 49 48 83 69 66 17 6 5 6 7 10 17 39 67 89 99 96 93 100 100 100 94 98 93 95 100 100 100 100 100 100 92 84 82 90 83 69
100 100 93 92 84 74 57 37 68 93 100 100 100 100 72 68 60 48 42 72 65 61 11 6 6 6 7 9 12 23 48 74 84 84 90 98 100 100 100 100 100 96 98 100 100 100 100 100 93 90 80 81 83 75
100 100 100 96 87 77 46 46 76 69 100 100 100 98 77 78 73 50 53 68 60 48 10 6 5 5 5 7 10 18 40 72 80 81 84 86 92 93 99 100 100 96 100 100 100 100 100 94 90 85 76 75 78 74
100 100 91 98 80 71 56 61 86 99 100 100 100 100 97 96 62 53 53 53 51 31 11 6 6 5 6 7 9 12 27 63 100 100 100 100 100 100 100 99 98 95 94 100 100 100 100 95 85 77 74 74 76 65
100 93 84 80 78 69 60 78 100 100 100 100 100 100 100 79 66 66 56 52 33 17 12 6 6 5 6 7 9 10 19 55 93 100 100 100 100 100 100 100 100 100 98 100 96 100 100 88 76 75 73 75 71 61
97 87 92 91 76 65 71 99 100 100 100 100 100 100 97 71 85 61 54 48 22 9 9 7 6 5 6 7 8 10 13 42 94 100 100 100 100 100 100 100 100 100 100 100 99 100 100 82 79 72 72 76 66 54
100 91 88 99 77 78 96 100 100 100 100 100 100 91 77 94 74 46 34 43 18 7 8 7 6 6 7 7 8 10 10 21 79 100 100 100 100 100 100 100 100 100 100 100 99 100 100 82 83 73 77 72 60 52
96 89 87 91 100 100 100 100 100 100 100 100 100 88 95 81 52 36 38 38 9 5 6 7 6 6 7 8 8 10 10 17 51 99 100 100 100 100 100 100 100 100 100 99 100 100 90 92 80 72 74 67 58 52
84 89 99 100 100 100 100 100 100 100 100 99 98 94 74 56 57 28 28 22 8 5 5 6 6 7 8 8 8 9 10 11 33 92 100 100 100 100 100 100 100 100 100 100 100 100 97 92 73 72 76 64 55 44
86 98 100 100 100 100 100 100 100 100 94 67 61 63 65 46 16 18 14 10 9 6 5 5 6 7 8 8 7 8 9 14 42 89 100 100 100 100 100 100 100 100 100 100 100 100 92 78 70 74 67 60 45 42
99 100 100 100 100 100 100 100 90 44 31 40 42 38 23 15 13 11 10 8 8 6 5 6 7 8 8 7 7 8 9 13 51 100 100 100 100 100 100 100 100 100 100 100 100 91 81 74 74 72 63 51 40 42
100 100 100 100 100 98 50 19 18 26 30 24 19 14 12 10 9 7 7 7 6 5 6 6 7 8 8 7 6 7 8 14 53 96 100 100 100 100 100 100 100 100 100 98 88 86 76 79 79 66 55 40 41 42
71 74 63 39 21 16 18 19 19 17 14 13 11 10 8 7 6 6 7 6 5 5 6 7 7 7 8 7 6 6 9 15 62 100 100 100 100 100 100 100 100 96 100 90 88 77 79 85 71 59 44 40 41 45
14 13 13 14 17 26 22 15 12 11 10 10 8 6 6 6 5 6 6 5 6 6 6 7 6 7 8 7 6 7 10 31 78 100 100 100 100 100 100 100 100 100 100 92 78 76 86 80 62 52 40 42 44 44
14 18 18 14 12 12 11 11 10 9 8 6 5 5 5 4 5 6 6 6 6 5 5 6 5 6 6 6 6 8 18 57 88 100 100 100 100 100 100 100 100 100 94 76 76 85 84 65 57 43 42 41 48 34
13 12 10 9 10 10 9 8 7 6 5 5 4 4 5 5 6 6 6 5 4 4 4 4 5 6 6 6 7 10 34 72 100 100 100 100 100 100 100 100 100 96 82 78 83 87 72 62 48 42 41 46 38 22

GFSWCAN_250_rhum_090.txt.gz
RH
78 100 58 45 53 88 73 93 76 84 80 96 93 98 61 44 55 69 78 59 77 83 84 81 69 65 60 59 59 61 63 66 68 68 67 69 71 73 73 74 74 74 76 77 80 75 72 68 68 66 63 61 62 62
89 100 84 67 98 82 66 79 59 68 66 84 88 88 100 71 32 48 73 86 76 71 81 78 78 81 80 75 71 66 63 62 63 63 66 70 73 72 70 67 67 66 68 71 70 71 74 80 80 82 81 76 72 68
99 100 95 94 100 99 86 50 58 59 65 69 85 93 92 99 67 25 31 66 80 67 89 72 76 72 79 86 87 80 78 73 69 68 67 69 72 69 68 68 66 65 66 67 70 74 75 76 79 90 88 83 80 75
100 92 100 100 100 87 94 53 52 62 51 59 71 88 96 87 100 71 26 31 71 75 70 97 69 71 69 69 78 84 85 82 77 73 77 75 74 78 77 74 72 72 71 67 75 84 84 83 81 85 88 79 80 80
49 60 100 82 100 100 98 44 73 61 54 70 59 76 98 100 82 83 74 35 35 69 88 83 88 86 72 68 68 72 77 86 84 90 88 80 77 74 78 74 80 76 86 100 89 98 100 98 88 83 82 85 89 81
72 46 58 68 60 97 89 100 76 59 54 80 42 68 88 81 87 82 77 62 37 33 51 98 99 88 96 100 79 67 67 66 74 78 84 91 99 92 83 81 75 81 72 98 100 100 100 100 100 94 95 100 100 98
96 92 75 73 66 64 100 100 80 56 41 66 53 54 72 71 76 83 84 87 87 63 31 46 77 98 100 94 100 100 89 74 68 69 75 86 97 100 93 86 78 75 76 73 91 100 100 100 100 100 100 100 100 100
93 98 91 93 71 75 99 100 98 75 71 45 29 40 48 66 72 75 80 80 76 89 79 48 34 53 72 93 99 89 100 100 98 75 70 80 92 89 91 99 79 82 76 81 86 91 100 100 100 100 100 94 93 93
75 93 98 100 94 84 82 100 100 100 73 64 45 30 37 47 72 82 78 67 70 85 89 73 52 35 33 57 69 80 96 100 100 99 75 70 86 86 86 95 92 80 76 77 85 98 95 96 100 100 100 98 98 82
82 85 77 100 100 92 85 92 100 89 96 64 58 46 36 44 50 73 68 66 60 71 78 82 56 44 26 16 34 73 73 76 97 100 87 78 100 86 81 95 97 91 88 74 76 85 92 95 95 100 100 100 95 78
95 100 87 96 100 100 87 66 96 99 100 100 100 85 57 46 32 52 70 69 58 59 73 80 78 51 35 22 10 18 74 83 81 91 97 98 100 98 88 88 100 93 90 92 87 86 87 96 90 100 100 100 100 78
100 91 84 94 100 100 100 99 86 82 63 90 100 100 68 60 33 40 52 60 54 59 56 73 84 56 34 25 15 8 17 58 96 100 100 100 100 93 95 87 95 98 94 92 94 100 98 95 94 83 98 100 100 91
100 98 94 100 100 100 99 100 100 85 44 56 100 100 77 57 32 35 49 59 56 58 56 72 73 67 40 22 15 7 7 24 72 100 100 100 100 94 92 81 87 93 92 88 84 100 100 95 94 89 96 100 100 99
100 100 88 99 100 95 97 98 100 100 52 58 78 98 84 61 49 41 41 64 65 53 54 62 64 76 60 29 17 9 7 10 41 97 100 100 100 100 100 90 87 96 100 98 99 100 100 100 91 91 96 99 100 99
100 100 100 100 92 78 80 100 100 100 94 94 75 68 82 91 56 61 50 50 63 48 60 53 68 90 83 37 16 9 7 8 12 45 93 100 100 100 100 99 87 83 100 99 100 100 100 100 97 90 97 99 100 100
100 100 100 100 100 94 76 76 100 100 100 99 99 66 70 66 76 75 53 46 54 41 66 61 71 83 89 47 17 7 6 7 8 9 44 90 100 100 100 100 100 100 95 100 100 100 100 100 100 96 100 98 100 100
100 100 100 100 100 84 76 69 69 92 100 100 100 100 88 86 64 92 70 41 50 47 74 57 67 80 89 53 23 8 7 6 6 8 10 33 83 100 100 100 100 100 100 100 100 100 100 99 100 100 100 97 99 100
100 100 100 99 100 100 100 94 72 79 82 100 100 100 100 100 95 72 58 42 50 51 93 50 56 84 100 67 26 11 6 7 6 7 8 9 24 76 100 100 100 100 100 100 100 100 100 98 96 100 100 99 100 96
100 100 100 100 95 87 97 81 68 93 100 100 100 88 85 100 95 78 59 42 54 68 82 53 56 84 97 90 42 13 7 6 7 6 6 8 9 26 74 97 100 100 100 100 100 100 100 99 98 97 100 99 98 91
100 100 100 100 98 89 82 71 68 84 89 100 100 96 85 100 100 84 53 42 52 97 68 52 80 82 99 93 49 20 8 6 6 6 6 7 9 12 33 82 98 100 100 100 100 100 97 93 96 94 99 93 91 87
100 100 100 100 100 100 97 93 93 85 94 100 100 93 81 100 100 77 54 41 66 99 58 46 77 88 83 86 54 23 9 6 6 6 6 7 9 10 15 37 86 100 100 100 100 100 96 92 99 96 100 93 96 91
100 100 100 100 100 100 100 100 100 93 78 100 100 94 100 100 100 82 48 63 90 73 51 54 87 100 71 67 42 16 10 7 6 6 6 7 8 10 13 29 83 100 100 100 100 100 100 100 100 100 100 98 96 93
100 100 100 100 100 100 99 100 99 100 99 88 91 100 94 96 92 81 51 76 86 70 58 73 100 98 48 48 30 13 11 7 6 6 6 7 8 11 13 24 92 100 100 100 100 100 100 100 100 100 100 100 100 96
97 100 100 100 100 100 100 100 100 100 100 100 100 100 91 100 100 65 63 87 86 74 57 100 100 61 34 32 21 11 11 9 6 6 6 7 9 10 12 18 69 100 100 100 100 100 100 100 100 100 100 100 97 95
72 89 100 100 92 100 100 100 100 100 100 100 100 100 91 100 75 52 94 100 91 52 82 100 96 43 29 26 16 10 10 9 7 6 6 7 9 10 11 16 58 96 100 100 100 100 100 100 100 100 100 100 100 100
42 63 70 73 92 100 96 100 100 100 100 100 100 100 100 86 51 66 89 78 54 85 98 100 100 44 24 17 12 8 8 8 7 7 7 8 8 10 12 16 48 82 100 100 100 100 100 100 100 100 100 100 100 93
21 33 56 65 78 98 98 84 92 100 100 100 100 100 98 68 48 51 61 44 88 98 100 100 85 24 19 13 9 7 7 7 6 7 8 8 9 10 11 13 29 77 100 100 100 100 100 100 100 100 100 100 100 82
28 54 65 70 83 97 89 93 100 100 100 100 100 90 44 30 57 61 66 92 92 100 99 57 27 19 14 10 7 6 6 6 6 7 8 8 8 9 10 14 42 68 100 100 100 100 100 100 100 100 100 100 86 72
29 42 52 60 73 80 88 100 100 96 94 88 62 33 30 50 73 76 78 88 95 93 42 22 18 13 10 8 6 6 6 6 7 8 8 8 8 9 9 14 49 78 100 100 100 100 100 100 100 100 100 88 79 73
51 68 81 94 99 100 100 100 97 95 86 68 59 56 55 52 63 89 94 63 26 19 16 13 10 9 8 7 6 6 6 6 8 8 8 8 8 8 9 20 54 83 100 100 100 100 100 100 100 100 95 83 82 62
28 49 83 100 99 100 100 100 73 64 59 35 21 24 36 49 50 41 23 16 15 13 10 8 7 6 6 6 6 6 7 8 9 9 8 7 8 8 11 29 56 89 100 100 100 100 100 100 100 100 87 85 72 60
45 75 96 92 81 83 87 84 62 38 21 18 19 22 23 21 18 16 16 14 10 8 6 6 6 5 5 6 6 8 7 8 8 8 7 7 7 8 16 37 60 96 100 100 100 100 100 100 100 90 81 75 61 57
10 10 10 11 12 12 12 13 13 13 14 15 15 15 13 13 14 12 9 6 6 6 6 5 5 5 6 7 7 7 7 8 7 7 6 7 8 14 35 54 81 100 100 100 100 100 100 100 98 80 75 65 59 50

GFSWCAN_250_rhum_093.txt.gz
RH
100 100 100 97 68 60 97 100 94 54 73 44 63 78 92 100 95 48 37 36 23 56 66 66 70 63 69 73 73 70 66 63 62 65 70 73 71 68 66 65 65 65 65 63 62 61 61 62 64 68 72 72 73 72
89 100 100 71 80 40 86 96 100 84 73 64 52 48 73 90 100 98 55 35 39 25 50 68 68 68 74 68 64 71 75 71 67 69 68 66 63 66 66 64 62 61 62 60 59 59 63 64 63 63 71 67 64 67
58 72 100 81 68 53 54 85 85 100 98 70 78 43 61 77 76 91 89 78 48 34 28 29 69 76 72 70 70 65 67 68 70 67 70 68 66 68 68 64 64 61 61 58 60 63 66 67 64 65 65 68 81 89
73 98 84 68 47 63 92 99 69 69 100 81 100 73 42 48 51 61 80 84 90 67 49 41 35 34 62 71 76 68 66 65 69 69 71 71 72 69 71 66 68 65 66 63 77 76 91 87 98 90 88 85 98 99
71 94 100 74 50 62 98 100 90 71 89 91 91 94 60 44 44 67 60 56 80 95 82 74 62 54 39 38 55 77 89 82 70 64 61 65 77 84 82 76 76 68 66 72 74 82 91 98 93 98 98 94 77 79
100 100 100 100 92 55 44 100 100 85 73 100 100 94 77 84 78 86 64 53 59 79 90 84 99 92 64 52 38 36 56 92 100 97 79 69 67 76 88 74 93 78 78 68 68 76 81 89 85 99 100 100 89 74
100 100 100 100 98 87 84 78 99 82 81 85 86 73 92 92 72 99 77 56 49 52 66 75 83 100 98 71 48 42 42 48 78 100 100 100 78 82 95 74 87 87 82 89 88 75 66 75 87 96 95 93 90 90
96 100 100 100 100 100 100 75 83 68 68 100 80 71 74 80 61 60 95 65 50 45 54 62 70 74 91 100 75 43 35 42 53 76 98 99 100 100 100 66 97 100 92 100 91 98 99 85 79 86 85 88 94 95
96 100 100 100 100 100 100 99 96 90 73 49 98 74 78 100 68 45 45 62 45 46 57 56 50 66 97 99 82 49 31 22 30 43 61 95 100 100 100 97 77 78 75 85 92 94 96 98 91 87 100 100 98 93
98 97 100 100 100 100 100 100 100 98 82 70 67 87 82 100 78 64 43 47 42 37 41 53 51 56 71 90 84 58 37 27 19 25 29 45 96 94 100 100 100 85 72 69 79 90 100 100 93 93 99 100 100 98
100 97 100 100 100 100 100 100 100 100 94 96 62 78 97 86 82 85 81 63 70 59 51 58 43 43 63 85 91 74 51 28 21 18 17 21 23 47 88 100 100 100 95 86 81 90 97 100 100 100 99 99 99 100
88 100 100 100 100 100 100 100 100 100 100 95 100 100 100 95 84 93 96 90 72 76 81 65 65 45 52 76 95 98 68 37 24 18 14 14 11 14 49 99 100 100 100 91 90 92 94 97 100 100 100 90 100 100
85 94 91 100 100 100 100 100 100 100 100 100 100 100 100 84 76 73 87 95 83 95 65 53 55 39 50 53 86 95 81 66 39 20 17 10 10 9 12 45 98 100 100 100 95 99 100 100 100 100 100 100 100 100
76 91 94 93 82 100 100 100 100 100 97 100 100 100 100 100 75 73 68 72 82 90 65 52 53 36 54 67 79 92 84 73 47 39 20 14 8 8 9 9 20 61 96 100 100 100 100 100 100 100 100 100 100 100
93 88 94 100 100 100 100 100 100 100 100 100 100 100 100 100 90 83 77 64 68 79 70 44 46 38 51 72 65 86 84 83 67 56 37 18 12 7 7 8 9 11 36 83 98 100 100 100 100 100 100 100 100 100
100 87 96 100 100 100 100 100 100 100 100 100 99 100 100 100 89 90 98 84 71 89 62 50 56 38 43 65 63 87 92 79 72 60 56 27 16 9 7 7 7 8 10 22 66 93 100 100 100 100 100 100 100 100
100 100 100 100 100 100 100 100 100 100 100 100 100 100 100 91 89 100 92 80 76 68 51 52 50 41 44 55 57 88 98 76 69 49 46 40 17 12 8 6 7 7 7 9 13 42 92 100 100 100 100 100 100 100
100 100 100 100 100 100 100 100 100 100 100 100 100 100 100 96 100 100 100 72 55 66 62 68 73 35 44 49 55 79 100 80 94 64 49 40 23 11 9 7 6 6 6 7 8 13 46 96 100 100 100 100 100 100
100 100 100 100 100 100 100 100 100 100 100 100 100 100 100 100 100 100 100 89 58 65 70 72 70 39 44 47 51 86 100 84 100 81 60 39 30 14 8 8 6 6 6 6 8 10 38 79 79 100 100 100 100 100
98 68 97 73 94 98 93 100 100 100 100 100 100 100 100 100 100 100 86 91 93 58 85 84 65 34 41 44 67 94 98 83 100 90 63 40 21 17 10 8 7 6 6 6 7 10 24 48 82 96 100 100 100 100
42 26 34 86 85 86 100 100 100 100 100 100 100 100 100 100 100 100 91 80 72 77 94 88 71 46 41 55 69 100 77 78 100 97 87 52 18 14 11 8 7 6 6 6 7 9 12 18 60 100 100 100 100 100
18 19 38 58 79 96 92 100 98 100 100 100 100 100 100 100 86 100 100 80 88 96 99 84 50 42 54 60 73 100 79 82 100 93 91 54 22 14 12 8 7 6 6 6 8 9 10 16 53 82 100 100 100 100
16 27 50 69 60 58 61 71 93 100 100 100 100 100 100 100 96 84 87 100 100 100 94 82 45 53 67 79 87 99 81 81 99 95 80 42 21 14 12 8 6 6 6 7 8 9 10 16 37 79 95 100 100 100
14 14 17 24 35 41 57 83 94 100 100 100 100 100 100 98 98 93 100 100 98 97 93 58 55 53 93 98 100 97 79 84 95 93 83 47 18 12 10 8 7 6 6 7 8 9 11 13 31 69 100 100 100 100
12 14 14 18 31 49 64 86 100 100 100 100 100 100 94 96 84 76 94 97 94 92 49 49 59 73 82 99 100 93 71 73 99 82 76 51 17 11 8 8 6 6 6 8 9 9 10 13 23 74 97 100 100 100
12 12 14 15 18 23 35 63 92 92 98 100 98 92 99 87 70 85 100 90 84 48 55 69 85 80 83 100 100 85 74 92 82 73 55 25 14 9 7 7 6 6 7 8 9 10 11 13 19 68 95 100 100 100
10 13 15 25 46 62 63 61 56 54 51 60 88 97 78 68 78 60 56 65 64 60 56 70 78 87 98 88 77 76 79 76 54 42 21 17 12 8 7 6 6 6 7 8 8 10 11 13 18 63 98 100 100 99
13 18 24 28 29 34 40 43 45 55 67 80 88 79 75 54 33 34 31 38 46 60 67 78 84 87 80 81 75 78 68 45 41 21 16 13 9 7 6 6 6 7 8 8 9 10 11 16 31 73 84 89 99 97
14 17 19 21 22 30 38 46 49 44 47 47 36 23 16 19 23 23 27 45 63 65 65 63 73 68 67 59 63 58 40 32 19 14 12 10 8 7 6 6 7 8 8 8 9 10 13 19 50 68 82 96 96 94
14 15 16 20 21 25 32 29 27 24 20 15 13 14 15 16 18 30 45 61 68 62 61 60 54 52 46 56 67 50 23 15 12 11 9 8 7 6 6 7 7 8 8 9 9 10 16 33 60 71 90 95 92 91
12 14 15 19 22 23 21 17 13 11 12 13 14 14 18 25 32 48 62 57 45 45 44 34 27 42 44 38 27 16 12 10 9 8 7 6 6 6 7 8 7 8 8 9 9 12 21 56 72 80 88 91 91 86
12 15 22 21 15 13 11 10 11 12 13 13 13 15 18 26 39 50 57 40 32 19 18 21 18 18 18 15 11 10 8 6 7 6 6 7 6 7 7 7 7 8 8 9 11 18 47 69 74 84 86 90 82 74
18 19 12 9 10 11 12 12 13 13 14 15 16 19 20 24 36 36 19 13 12 12 14 16 18 16 11 10 8 7 6 6 6 7 7 6 6 6 6 7 7 8 8 9 14 31 60 70 74 79 84 79 68 53

GFSWCAN_250_rhum_096.txt.gz
RH
61 100 70 76 60 93 100 78 64 100 81 77 68 68 68 64 68 74 66 62 70 64 41 36 33 43 57 61 67 67 66 67 65 64 64 67 67 69 69 66 64 61 59 57 57 56 54 56 57 59 60 60 57 58
91 100 90 62 75 72 93 96 63 66 65 77 84 72 71 56 57 57 67 88 65 67 72 53 49 46 40 38 50 77 82 75 69 67 67 66 68 64 66 68 66 67 65 62 59 62 61 58 60 57 59 60 65 63
100 100 82 88 76 86 100 99 88 68 93 82 67 92 80 48 74 70 41 55 61 64 71 64 70 68 73 71 56 40 40 63 94 99 88 77 65 66 71 75 73 67 64 61 64 63 66 67 66 66 66 68 70 70
100 100 72 100 65 100 100 100 100 74 92 99 75 93 100 60 52 90 61 40 38 45 47 56 61 75 72 79 84 65 52 47 45 64 85 96 99 85 74 73 76 84 73 69 65 70 79 77 83 86 82 80 80 88
74 100 100 100 68 100 100 100 100 90 76 100 98 94 72 68 65 63 79 75 47 34 39 46 66 71 67 70 80 89 93 75 48 42 43 49 52 67 100 95 73 80 90 85 72 71 68 69 75 77 82 88 95 93
82 78 81 71 88 59 100 100 100 100 100 85 100 97 88 67 61 48 70 73 74 70 58 62 50 80 58 75 74 72 78 77 51 42 35 30 29 30 86 100 100 66 100 85 72 71 75 78 81 78 88 92 94 92
100 100 100 85 100 100 80 78 100 100 100 100 100 100 100 93 69 60 46 82 89 79 66 58 72 90 50 49 60 60 95 79 68 56 35 30 27 22 34 86 54 44 88 100 99 81 83 90 100 94 92 92 97 97
100 100 100 100 89 80 100 99 66 100 95 100 100 100 100 100 100 79 80 75 85 82 71 68 55 54 70 59 52 44 76 82 89 73 46 31 23 19 17 24 47 56 82 100 100 85 90 99 98 100 97 100 100 100
97 99 100 100 100 100 100 100 97 100 100 81 100 100 100 100 100 96 99 94 87 78 89 75 74 56 45 67 43 51 58 71 65 69 70 47 28 23 16 15 22 36 44 66 100 100 100 94 74 75 77 84 97 100
100 89 79 99 100 100 100 100 100 75 100 100 70 88 100 100 100 94 100 100 100 94 74 72 76 57 54 69 54 43 41 54 66 67 58 67 42 29 22 15 11 17 29 40 42 80 99 96 95 91 87 99 100 98
96 97 79 91 100 100 98 94 100 100 100 100 100 81 80 100 100 92 100 99 96 86 87 80 80 78 54 54 51 45 40 38 49 58 65 63 51 36 28 24 16 10 10 14 18 28 51 87 97 100 100 100 100 100
91 96 95 94 100 100 100 100 91 100 100 100 100 91 95 80 95 100 100 100 100 99 91 99 79 73 78 57 61 48 40 39 39 49 77 62 58 56 40 25 17 13 9 8 8 9 14 28 73 96 99 100 100 100
97 98 97 82 91 100 100 100 100 96 100 100 100 100 85 99 86 100 100 100 100 100 100 100 89 75 72 86 78 63 52 39 36 42 63 58 68 54 52 45 21 14 12 8 7 7 8 10 24 50 85 96 100 100
97 100 100 95 94 100 100 94 100 100 100 85 96 100 100 100 100 92 96 100 100 100 100 100 100 92 89 81 71 65 62 57 36 44 56 63 71 61 60 60 52 21 14 10 8 7 7 7 8 13 28 64 94 100
95 100 99 100 100 100 100 99 92 98 83 95 79 88 100 100 100 100 100 100 100 100 100 100 100 100 100 89 75 62 51 51 55 54 50 53 67 70 68 71 54 52 18 13 9 8 7 7 7 7 9 26 60 92
68 100 94 96 100 100 100 100 87 78 71 85 98 80 100 100 100 100 100 100 100 99 100 93 99 100 98 88 84 69 48 44 52 68 60 48 66 95 72 84 73 42 31 14 11 9 8 7 7 7 7 8 15 38
57 88 100 100 91 84 100 100 88 93 94 77 79 100 100 100 100 100 100 100 99 100 100 100 96 100 100 100 91 81 57 56 46 64 72 59 57 78 75 68 74 48 28 19 11 8 8 7 6 7 7 7 7 9
75 100 95 100 100 100 100 100 100 97 98 100 98 91 99 100 100 100 100 100 100 100 100 100 100 100 100 100 100 98 64 46 46 45 71 70 72 65 67 68 71 82 44 18 11 8 8 7 7 6 6 6 7 9
26 49 88 100 100 100 100 99 100 100 100 100 100 100 98 98 100 92 100 100 100 100 100 100 100 100 100 100 98 82 80 68 46 42 68 66 66 58 55 78 70 83 46 25 12 8 7 7 7 6 6 6 7 8
13 19 23 54 100 100 100 100 100 100 100 100 100 98 85 75 100 84 74 84 84 72 93 100 100 100 99 100 100 90 66 63 52 45 61 70 61 61 56 82 72 78 46 28 16 10 7 7 7 6 6 6 8 10
12 14 18 37 69 87 80 52 68 92 95 78 80 98 80 87 84 96 94 80 68 64 82 100 100 100 85 100 100 78 75 64 69 57 74 84 74 62 60 87 72 53 48 20 18 12 8 6 6 6 7 7 8 10
11 12 14 19 22 28 30 39 50 49 30 37 55 56 64 61 70 87 78 67 64 79 100 93 97 98 70 81 72 64 70 69 70 64 86 92 67 65 66 86 77 45 38 20 17 12 8 6 6 6 7 8 9 11
8 8 9 11 16 20 21 22 20 18 19 27 33 46 73 82 83 91 76 58 83 100 100 87 82 70 71 91 77 77 62 62 76 91 88 76 67 74 85 89 70 49 29 19 16 10 8 7 6 6 7 8 9 11
7 7 8 8 9 9 10 11 13 15 23 38 41 46 45 69 96 54 37 79 100 100 97 80 68 68 71 67 62 67 72 88 94 80 88 65 74 91 92 82 43 45 24 17 11 8 7 7 6 6 8 9 9 10
5 5 6 6 7 9 10 12 15 17 17 17 18 29 71 72 36 22 61 100 100 99 71 55 65 67 81 76 74 80 93 92 85 62 64 57 81 99 89 58 37 43 20 14 9 6 6 6 6 7 8 9 9 10
4 5 5 6 8 9 10 10 12 12 12 13 16 34 43 31 21 33 83 96 77 55 47 64 70 72 87 88 81 90 100 88 54 27 42 67 96 92 64 35 30 19 14 12 9 6 6 6 7 9 9 8 9 11
4 4 5 6 6 7 8 9 10 11 12 15 20 21 18 18 26 36 49 63 61 57 62 68 76 87 80 73 94 100 79 40 23 34 57 73 84 59 37 23 19 13 12 11 8 7 6 7 8 9 8 8 9 11
3 4 5 6 7 8 9 10 11 12 14 16 16 15 16 18 32 33 25 26 30 31 56 83 62 51 85 96 78 37 24 30 40 52 67 70 54 39 23 25 19 13 11 8 7 7 7 7 9 9 8 8 10 15
4 5 5 6 7 8 10 11 12 13 14 15 15 16 18 19 20 16 15 17 42 74 76 45 36 47 48 34 22 21 31 45 60 60 57 48 31 15 16 15 13 11 9 7 7 7 8 9 10 10 9 8 11 16
5 5 6 6 7 8 9 11 13 14 14 14 15 16 20 22 17 15 23 52 58 44 38 29 24 19 15 14 17 28 39 45 42 37 29 18 12 11 13 12 10 8 7 7 8 9 9 9 10 10 8 9 12 30
6 6 7 7 7 9 11 13 14 14 14 14 14 15 14 14 15 25 27 24 22 18 18 17 14 13 14 16 19 18 20 20 19 14 12 11 11 11 10 8 7 6 7 9 9 9 9 9 9 8 8 10 22 41
7 7 8 8 8 10 11 12 12 11 12 12 13 13 14 15 17 14 15 14 14 13 12 12 13 15 15 14 14 14 13 12 11 10 10 10 10 8 7 6 6 8 8 8 8 7 7 8 8 8 9 13 30 47
6 6 7 8 9 10 11 11 11 11 11 12 13 14 13 12 13 14 16 11 9 11 12 12 12 12 13 14 13 11 11 11 10 9 9 8 6 6 6 6 7 8 7 6 5 6 7 8 8 9 11 26 46 51

GFSWCAN_250_rhum_099.txt.gz
RH
93 91 93 70 56 79 99 73 87 98 100 70 89 79 72 82 62 55 51 57 59 48 58 46 50 56 66 80 82 77 67 58 56 45 55 59 60 67 84 84 78 67 65 64 61 55 51 52 55 57 59 63 61 62
93 100 100 94 86 64 87 74 59 69 99 100 79 83 99 69 63 57 65 60 50 60 44 46 51 56 44 58 56 76 64 73 68 68 68 58 53 62 63 77 78 83 82 70 67 62 61 56 54 56 60 66 68 68
90 74 98 100 100 96 75 86 57 67 52 100 94 63 100 96 66 60 59 60 65 59 52 60 44 48 50 68 49 58 68 67 72 76 69 62 50 59 54 51 48 47 59 78 78 74 73 64 67 62 59 61 67 72
100 100 100 98 100 100 87 100 88 62 47 74 56 100 100 100 99 76 83 66 78 92 67 58 48 52 52 59 63 54 50 45 49 63 66 65 56 46 43 41 30 21 32 72 94 78 92 81 77 69 71 76 82 82
100 100 100 100 100 97 100 96 77 77 65 56 46 98 100 100 100 100 100 85 81 81 97 82 61 52 54 48 46 48 42 39 37 46 59 72 72 50 44 36 30 24 19 26 96 100 80 83 69 71 72 71 69 77
100 100 100 100 100 100 100 100 100 100 88 91 100 67 74 98 100 100 100 100 92 75 80 100 96 84 68 57 56 53 47 52 56 44 48 47 81 60 65 52 42 32 19 15 23 62 88 87 72 63 78 80 78 79
100 100 100 100 100 100 94 100 98 100 100 95 100 100 86 76 91 79 57 82 98 100 76 90 97 98 100 89 76 72 68 75 70 55 46 41 45 57 61 63 50 41 31 16 13 16 60 90 76 86 86 99 100 99
100 100 100 100 100 100 100 100 99 100 100 100 100 100 100 100 100 100 100 76 60 98 100 90 86 91 100 100 94 87 80 78 73 60 52 45 41 41 49 69 54 54 38 32 19 12 11 27 70 82 96 97 95 100
100 100 100 100 100 100 100 100 100 100 100 100 100 100 100 100 99 100 100 100 88 72 81 100 100 99 100 100 100 100 100 95 76 72 58 50 40 34 34 42 54 78 65 43 33 16 11 10 10 25 40 64 97 100
100 100 100 98 100 100 100 100 100 99 99 100 94 100 100 100 100 100 100 100 100 100 94 90 74 73 86 99 100 100 100 100 98 80 70 64 49 45 35 29 39 59 65 68 53 34 18 11 9 8 9 12 19 32
94 100 100 100 86 100 100 100 100 100 100 100 100 94 100 100 100 100 100 100 97 100 100 100 100 93 74 72 77 86 100 100 100 96 92 82 72 64 46 43 35 34 49 54 57 51 34 15 11 9 7 7 8 9
69 86 85 100 99 80 100 100 100 100 100 100 100 100 100 100 100 100 100 100 92 88 89 100 100 100 98 94 100 88 89 100 98 93 95 91 90 79 72 71 48 43 38 46 57 59 45 31 14 10 9 7 7 7
65 64 73 89 100 100 91 96 100 100 100 100 100 100 100 100 100 100 100 100 99 94 90 91 85 97 92 100 100 95 100 100 100 100 96 94 84 82 86 76 76 55 56 43 54 59 51 39 25 11 8 8 7 6
48 48 65 65 91 98 100 100 98 94 100 100 100 100 100 100 100 100 100 100 97 100 100 98 96 100 100 91 94 90 88 96 100 100 100 100 100 95 88 84 68 54 56 56 64 65 62 53 30 17 9 7 8 7
42 51 61 80 62 81 85 95 100 100 100 100 100 97 100 94 100 100 100 100 100 99 92 91 99 96 100 100 96 100 95 90 100 100 100 100 100 99 100 98 76 74 54 55 65 73 56 66 38 25 12 8 7 7
39 43 60 95 100 93 78 80 92 100 100 94 100 100 100 100 100 100 100 100 100 100 92 77 74 92 99 87 100 100 100 100 100 98 100 100 100 100 94 91 85 77 68 63 69 72 58 63 47 26 14 10 8 7
18 26 45 81 98 100 100 100 95 91 82 86 99 100 100 100 100 100 100 100 98 90 100 96 87 77 100 100 100 99 74 78 100 100 98 100 100 100 86 73 78 68 84 67 81 69 69 60 45 24 16 11 9 7
10 14 23 35 50 63 55 73 86 76 71 74 81 100 100 100 100 100 100 96 100 100 95 99 98 99 100 100 100 91 61 62 90 95 94 98 100 100 90 84 72 62 80 77 87 80 79 66 46 24 15 12 9 8
9 10 12 21 24 26 39 64 81 82 77 95 100 90 83 100 100 100 100 100 100 95 94 92 88 100 100 100 100 88 77 81 92 91 83 90 100 100 86 88 80 70 67 84 71 81 82 74 56 30 17 12 8 7
9 9 9 10 11 12 19 29 36 35 40 68 79 84 91 91 100 100 100 100 100 84 100 100 100 100 100 100 100 95 86 88 96 91 85 85 100 100 84 84 82 81 74 88 77 69 74 81 62 30 16 12 8 6
6 7 8 7 8 9 10 13 14 18 28 33 34 41 53 67 69 86 83 94 79 70 79 96 100 100 100 97 86 92 100 91 100 95 84 91 100 88 76 83 87 89 91 89 86 70 66 76 55 24 14 12 8 7
5 6 6 6 6 7 7 8 9 12 14 15 17 21 33 42 56 64 57 54 55 78 83 100 100 100 98 64 69 100 100 85 90 87 72 100 100 91 78 80 98 96 100 97 96 66 77 73 44 18 13 11 9 8
5 5 6 6 6 6 6 7 8 7 9 12 14 17 25 42 52 49 43 44 59 78 100 100 100 86 56 45 67 100 99 74 87 94 94 98 80 81 85 99 98 98 100 91 86 71 77 69 35 14 12 8 8 7
5 5 5 5 5 5 5 6 8 8 9 11 15 20 25 29 26 25 29 31 72 99 100 89 60 35 25 41 78 100 96 83 44 64 100 90 77 85 90 98 97 100 87 86 84 82 71 62 25 13 11 7 7 7
5 4 4 4 4 4 5 6 7 8 10 12 13 12 12 13 13 13 16 28 36 39 39 38 25 22 35 67 80 98 94 51 34 70 82 62 74 80 87 96 97 89 82 85 93 79 68 35 14 13 11 8 8 7
4 4 4 4 4 4 5 6 7 7 8 8 8 8 11 11 11 13 21 24 27 26 21 18 17 26 45 52 65 94 66 39 46 66 64 61 67 60 68 72 71 67 76 85 74 58 33 15 12 13 10 8 8 8
3 3 3 4 4 4 5 6 7 7 8 7 9 11 10 9 10 13 17 19 19 16 14 15 20 22 24 44 71 64 37 28 43 54 41 60 69 50 48 42 51 66 62 56 39 20 12 12 13 11 8 9 8 9
3 3 4 4 4 5 5 5 6 6 7 7 8 8 8 9 12 14 14 13 11 13 15 16 16 16 22 32 29 22 23 40 45 39 65 84 62 44 34 47 57 46 40 30 14 11 11 12 12 9 8 8 9 9
4 4 4 5 5 4 5 6 6 7 7 8 8 8 9 11 11 11 12 13 14 14 14 14 16 21 23 19 18 19 28 32 33 58 74 53 39 38 40 40 40 30 24 14 11 11 12 12 9 7 8 9 8 8
5 5 5 5 5 5 6 6 6 6 7 7 7 7 8 11 12 11 11 11 12 13 14 16 20 20 18 17 16 19 26 32 49 51 44 36 36 38 37 30 24 18 13 11 11 11 11 9 7 8 8 8 7 7
5 5 5 5 5 6 6 6 6 7 7 7 7 7 8 8 9 10 11 12 13 14 15 16 14 14 16 16 17 19 24 37 43 34 34 36 29 24 20 17 15 11 10 10 10 9 8 8 8 8 7 6 6 7
5 5 5 6 6 6 6 6 7 6 6 7 7 8 10 10 11 12 13 13 14 13 12 12 14 14 14 16 19 22 24 23 23 24 24 18 16 15 13 11 9 10 10 9 8 8 8 8 7 5 5 5 6 7
6 6 6 6 6 6 6 6 6 6 6 6 7 9 10 10 12 14 13 12 10 10 10 10 12 14 16 17 19 20 18 16 17 16 15 14 12 10 9 9 9 8 8 8 7 7 7 5 4 4 5 5 7 8

GFSWCAN_250_rhum_102.txt.gz
RH
97 72 98 100 76 88 86 78 96 100 78 80 59 28 36 76 94 90 82 86 65 54 46 54 54 57 48 45 52 58 62 56 61 60 62 72 63 56 52 44 48 42 43 36 31 34 62 64 68 70 62 57 60 65
100 100 100 100 100 100 100 90 100 100 79 92 67 50 36 43 60 84 94 97 99 94 77 64 49 41 57 63 63 59 71 70 59 54 51 48 47 52 44 59 50 48 42 44 36 26 24 51 73 69 72 67 64 58
100 100 100 100 100 100 100 100 100 100 94 89 81 78 56 53 44 70 100 96 61 72 100 88 74 51 45 42 50 59 63 79 71 68 58 46 44 47 44 41 46 46 62 51 41 32 31 24 23 29 66 73 67 67
98 100 100 100 100 100 100 78 100 100 100 100 90 93 88 94 74 67 59 100 70 45 56 98 84 76 72 52 41 51 61 75 83 72 72 67 54 53 52 46 43 47 43 52 47 45 39 32 22 16 21 64 71 75
53 100 100 100 100 100 100 96 77 100 100 100 100 97 86 90 77 80 93 77 76 100 98 76 94 97 92 92 81 50 61 65 84 88 76 79 74 75 71 61 57 56 50 48 52 55 55 49 40 36 19 15 41 79
50 67 100 100 100 100 100 100 100 100 100 100 100 100 100 87 100 100 94 100 98 80 83 100 74 90 100 88 86 79 71 78 88 88 92 74 79 79 92 88 74 60 64 57 50 44 49 59 52 41 30 25 13 20
68 52 63 98 100 100 100 100 100 100 100 100 92 100 99 100 100 99 100 100 99 100 100 100 100 84 92 100 89 96 99 78 67 78 82 87 94 83 81 82 84 61 59 68 58 56 58 54 65 59 47 31 23 14
71 76 67 75 94 97 100 100 100 100 100 100 100 100 100 100 100 100 100 100 100 100 100 100 100 99 90 98 98 86 91 89 97 77 75 80 77 70 72 90 71 68 71 78 77 73 70 74 72 64 60 43 29 20
65 70 69 76 75 90 100 100 100 100 99 99 100 100 100 100 100 100 100 94 100 100 100 100 100 100 100 97 99 100 94 99 93 90 87 73 82 71 80 80 80 86 89 77 76 67 59 74 76 71 63 51 37 24
100 100 100 87 67 76 79 95 96 100 100 100 98 100 100 100 100 100 100 100 93 100 100 100 100 100 100 100 95 87 87 96 100 100 100 90 66 66 80 82 98 97 99 100 93 84 82 67 68 72 67 59 46 29
100 100 100 100 100 99 89 70 74 77 100 100 100 100 100 100 100 100 100 100 100 100 100 100 100 100 100 100 100 88 85 81 86 100 96 79 61 63 72 78 90 73 72 79 98 100 98 82 89 76 66 68 64 45
69 78 85 100 100 100 100 100 96 75 74 97 92 100 100 100 100 100 100 100 100 100 100 100 100 100 100 100 100 100 100 100 100 100 100 100 81 95 82 69 67 68 86 74 78 100 100 96 93 84 82 62 70 69
73 65 69 83 91 90 100 100 100 100 74 74 87 75 96 99 100 100 100 100 100 100 100 100 100 100 100 100 100 100 100 100 100 100 100 100 100 100 83 99 100 97 81 72 67 90 100 96 100 86 82 74 60 75
42 47 67 84 99 73 77 97 100 100 100 82 78 64 68 86 81 97 100 100 100 100 100 100 100 100 100 100 100 100 100 100 100 100 100 100 100 73 79 95 100 100 100 98 76 85 99 99 100 100 89 78 56 64
37 48 44 49 69 70 67 89 98 100 97 100 98 66 50 65 91 75 89 99 100 100 100 99 100 100 100 100 100 100 99 97 100 98 98 100 90 80 85 93 100 100 98 99 87 85 99 100 100 100 96 78 55 54
11 14 17 21 26 44 66 70 79 84 100 77 75 84 86 52 58 81 67 72 73 86 100 100 100 100 100 100 100 100 100 100 100 100 100 100 88 85 99 100 100 100 83 95 96 86 93 100 100 100 99 84 57 49
9 10 12 15 18 28 47 45 45 46 39 42 64 94 82 75 60 54 62 62 71 72 72 86 98 100 100 100 100 100 100 100 93 83 99 100 100 98 100 100 100 99 74 82 98 83 96 100 95 98 94 82 64 51
7 8 9 11 12 13 15 21 28 21 26 32 41 43 98 97 67 50 54 58 57 72 66 74 84 86 100 100 100 100 100 92 80 82 91 100 100 100 100 100 100 97 65 77 100 92 98 100 98 99 95 80 68 59
5 6 7 8 9 9 11 15 19 22 28 27 31 37 46 57 64 59 50 53 67 62 38 38 49 72 100 100 100 100 100 91 73 89 100 100 100 92 100 100 100 80 62 86 89 87 100 100 94 98 94 86 71 65
4 4 5 6 7 8 8 9 9 10 11 13 15 30 35 32 25 31 37 51 51 41 30 34 55 63 62 72 98 100 76 67 65 79 100 100 100 100 100 100 94 71 60 87 81 95 100 100 90 100 94 82 63 60
4 5 5 4 5 6 6 7 7 9 10 11 13 16 19 22 26 36 39 39 31 35 32 40 46 52 60 72 63 48 57 72 77 75 100 100 100 100 100 100 78 52 60 79 72 92 100 93 98 100 85 65 50 45
6 5 4 4 4 4 5 5 6 7 8 10 10 12 16 19 22 25 34 29 25 48 63 64 54 59 89 79 62 46 52 66 74 79 100 100 100 100 100 95 54 43 69 79 67 89 97 98 95 90 63 51 37 31
7 6 4 4 4 4 4 4 5 6 6 8 8 9 11 12 14 18 18 24 43 47 34 38 59 58 64 54 53 58 62 78 68 70 99 100 100 100 98 76 34 44 79 84 57 76 91 95 95 73 50 44 31 22
7 6 5 4 3 3 3 3 4 4 5 6 6 7 8 9 9 10 10 18 19 15 16 23 29 35 35 34 30 37 52 45 53 79 82 80 100 96 73 35 36 58 91 72 56 73 82 95 86 58 49 32 23 18
6 6 5 4 3 3 3 4 4 4 4 5 4 5 7 7 6 6 7 10 11 12 12 13 15 16 14 16 20 43 34 25 31 37 65 100 73 44 35 35 44 66 88 58 55 59 74 85 83 60 36 22 17 18
5 5 4 4 4 4 4 4 4 4 4 4 5 5 5 5 4 5 7 9 10 11 12 12 13 10 12 17 32 31 27 23 26 60 85 49 31 26 29 33 30 56 58 47 47 47 67 80 71 41 22 17 17 16
4 4 5 6 5 5 5 5 4 4 4 4 5 5 4 4 5 7 9 10 12 12 13 12 10 11 19 23 22 22 21 24 38 46 33 25 20 22 24 22 27 35 32 36 40 50 67 62 38 20 16 16 16 14
5 6 7 7 6 6 5 4 4 5 5 5 6 6 6 6 8 9 9 10 10 10 8 10 12 14 15 13 14 15 20 24 24 21 19 17 18 20 20 21 26 28 29 36 46 56 58 38 17 14 15 15 13 11
6 8 9 9 8 5 4 5 6 6 7 6 6 6 6 6 7 7 8 8 8 8 10 10 10 11 13 15 15 13 14 15 16 16 16 17 18 18 21 24 23 24 29 35 46 47 31 16 13 14 14 12 11 10
9 9 9 7 5 6 7 6 6 6 5 5 6 6 6 7 7 7 8 9 9 9 10 12 13 14 14 13 13 13 13 15 17 17 17 16 17 20 20 19 19 21 33 45 39 22 12 12 14 13 12 10 9 8
7 6 6 5 6 7 5 5 5 5 5 5 5 6 6 6 6 6 7 9 10 10 11 11 10 11 12 13 13 14 17 16 14 14 15 17 18 18 18 20 24 39 48 32 14 12 12 12 12 11 10 8 7 7
5 5 5 6 6 5 5 5 5 5 5 5 5 6 5 5 6 6 7 7 8 9 9 8 10 11 12 15 16 16 14 13 14 16 16 17 18 20 24 37 54 43 19 11 12 12 12 12 11 9 7 6 7 7
5 5 5 5 5 5 5 5 5 5 5 5 5 5 5 6 6 7 7 6 6 6 7 8 9 10 12 13 12 12 14 14 15 15 17 19 25 38 40 28 17 12 11 12 11 11 10 9 7 6 6 6 6 5

GFSWCAN_250_rhum_105.txt.gz
RH
100 100 100 100 100 100 96 100 100 100 99 100 77 75 72 64 69 56 50 100 84 44 66 72 69 79 69 60 46 43 52 54 52 48 53 62 70 71 60 51 50 45 52 64 55 65 80 77 63 56 46 35 22 30
100 100 100 100 100 100 100 100 100 100 100 98 88 81 100 81 87 85 51 61 94 68 59 71 66 86 96 64 65 67 57 62 72 66 53 50 62 66 64 65 61 46 50 70 66 60 64 68 73 69 60 53 43 30
82 97 100 100 100 100 98 100 100 100 100 98 95 70 87 100 71 98 90 52 95 81 93 88 75 69 76 93 77 66 89 85 80 85 92 81 69 64 59 64 70 77 72 70 86 78 73 71 74 77 74 61 49 44
88 84 92 98 100 100 100 85 98 100 100 100 100 85 79 100 97 96 85 82 99 100 100 100 98 93 95 92 83 78 79 79 81 84 74 77 84 75 65 64 70 82 85 81 85 83 75 73 67 76 86 82 68 61
100 100 100 75 76 100 100 100 100 94 100 100 100 97 100 100 100 98 73 94 92 100 100 99 100 100 100 96 93 85 76 82 87 74 60 86 80 79 66 64 60 66 64 57 60 74 73 75 75 73 92 86 83 70
64 98 100 99 60 69 100 99 100 100 100 100 100 100 100 100 100 100 93 88 81 100 100 100 100 100 100 100 100 98 100 98 100 99 99 86 80 92 68 66 72 77 88 100 100 89 98 94 75 79 76 90 82 88
62 76 100 100 94 52 74 100 87 91 92 97 100 100 100 100 100 100 97 78 100 100 100 100 100 79 89 100 100 100 100 100 93 98 94 93 91 88 90 96 100 95 97 100 100 94 83 82 89 91 88 83 84 85
86 92 89 100 100 98 54 63 99 81 77 89 89 100 100 100 100 100 100 100 100 98 99 100 100 100 83 100 100 100 100 100 100 94 93 93 81 83 99 100 100 94 76 88 95 95 98 95 89 94 94 83 92 88
100 97 92 98 100 100 100 98 87 88 75 66 80 92 100 100 100 100 100 100 100 100 100 100 100 100 100 100 100 100 100 100 100 100 94 76 100 94 99 100 100 95 73 70 70 94 79 88 95 89 100 94 88 94
92 100 100 100 100 100 100 100 100 100 89 73 61 57 79 94 100 100 100 100 100 100 100 100 100 100 100 96 100 100 100 100 100 100 100 100 90 58 81 83 97 83 84 70 64 78 94 89 98 99 100 100 98 97
65 55 59 91 90 87 92 98 100 100 98 100 92 74 55 82 86 81 97 98 90 100 100 100 100 100 100 100 100 97 100 100 100 100 100 100 100 100 94 83 97 89 78 80 69 77 80 92 100 100 100 100 99 97
73 74 60 49 54 67 75 76 91 100 100 100 100 98 72 62 52 62 69 77 96 100 100 100 100 100 100 100 100 100 98 96 100 100 100 100 100 100 99 99 100 99 93 77 75 67 76 98 100 100 100 100 96 92
82 90 72 81 63 58 50 56 69 76 96 96 99 100 100 78 57 48 54 64 69 77 91 100 100 100 100 100 100 100 96 100 100 100 100 100 100 100 100 85 88 100 90 86 84 78 94 85 96 100 98 100 96 84
65 63 56 68 75 68 71 71 64 68 70 77 86 90 90 98 92 89 61 49 45 53 58 66 95 100 100 100 100 100 100 100 100 100 100 100 100 100 100 98 81 77 83 91 95 97 90 76 92 100 98 95 92 84
42 28 35 34 31 42 47 49 46 53 48 54 65 74 84 85 87 97 97 79 59 44 36 48 51 73 98 96 100 100 100 99 100 100 98 92 92 99 100 98 79 82 77 78 80 84 97 98 96 100 100 91 88 82
12 12 12 13 17 19 24 30 40 44 50 31 42 41 67 79 83 85 92 78 72 70 49 36 37 38 54 73 86 84 92 96 100 91 70 73 72 67 81 93 83 72 72 68 68 88 91 100 100 100 100 100 83 79
6 7 8 9 10 12 12 16 20 32 30 22 26 31 39 52 71 74 70 58 70 79 75 66 43 50 33 35 44 54 73 92 81 71 48 53 62 69 75 78 85 78 72 77 82 77 88 98 100 100 100 100 79 73
5 6 6 7 7 8 9 10 11 11 12 15 15 18 23 31 41 39 49 65 63 56 56 58 53 34 36 36 46 53 54 62 57 54 44 46 61 71 77 86 99 89 63 79 81 71 76 89 100 100 100 100 82 66
7 8 7 6 6 5 6 6 6 6 8 9 9 11 14 22 22 30 37 33 34 30 34 32 23 27 51 61 83 83 62 63 48 40 46 48 54 67 89 98 100 100 76 79 80 81 81 95 100 100 100 100 72 66
9 9 9 7 6 5 4 4 4 4 5 6 8 9 10 12 11 13 22 20 18 15 16 19 24 41 48 67 84 71 63 62 55 57 44 39 47 62 70 76 76 87 76 89 95 96 90 97 100 100 100 96 55 62
9 11 10 8 6 5 4 4 4 4 4 5 6 6 7 8 8 9 10 11 9 9 10 13 18 28 43 59 60 66 71 76 61 54 72 66 58 51 70 78 81 81 76 87 94 99 99 100 100 100 100 65 44 60
10 9 9 8 6 5 4 4 4 4 4 4 4 4 5 6 7 8 8 7 8 10 12 13 13 17 26 33 38 45 22 25 54 73 60 50 54 51 54 76 74 62 58 69 91 87 91 100 99 96 67 43 39 57
8 8 8 8 6 5 4 4 4 4 4 4 4 4 5 5 5 5 5 6 7 10 12 12 14 16 20 22 20 13 17 38 39 27 27 36 38 51 78 71 73 82 85 80 75 87 88 79 91 70 38 36 37 45
8 7 7 6 6 5 5 5 4 4 4 4 4 4 4 4 4 4 5 8 9 9 10 10 12 12 13 14 13 15 19 18 19 22 25 28 59 78 64 57 60 74 59 60 88 71 66 91 77 33 25 26 32 35
6 6 6 6 6 5 6 6 7 7 7 7 5 4 4 4 4 4 4 6 8 8 10 10 12 13 13 12 12 15 16 15 14 14 34 61 67 30 20 26 34 33 52 67 56 45 55 68 38 23 21 23 27 25
5 5 5 6 6 6 7 7 8 9 8 8 7 5 4 3 3 4 7 8 8 8 8 8 8 9 9 9 11 12 12 12 13 15 23 20 17 16 19 19 17 24 44 47 40 50 55 36 23 19 20 22 23 21
5 6 6 6 6 7 8 9 10 9 9 8 8 6 4 4 5 7 8 7 6 7 7 7 7 6 8 9 10 10 9 8 8 9 11 12 13 13 13 17 36 43 38 34 39 40 29 22 19 19 20 21 20 19
7 6 6 6 7 7 7 9 9 10 10 10 9 7 5 5 7 6 6 6 6 6 6 5 6 7 8 9 8 7 7 7 9 10 11 12 12 15 27 34 30 21 23 26 24 21 18 18 18 19 19 19 17 13
6 6 7 9 10 10 11 13 15 15 13 9 6 5 5 5 5 5 4 4 5 6 6 5 5 6 6 6 6 6 8 9 10 11 13 14 15 22 23 19 17 20 18 18 17 16 17 17 17 17 18 15 11 12
10 10 10 12 11 11 12 12 12 9 7 6 6 5 6 7 5 4 5 5 5 4 5 5 6 6 6 6 7 8 8 9 12 14 15 17 18 17 15 16 16 16 16 15 16 16 16 16 15 15 12 11 11 11
9 8 10 11 11 12 11 11 8 7 6 5 4 5 6 4 4 5 5 5 5 5 6 6 6 6 6 6 7 8 9 10 11 12 13 16 15 15 15 15 15 16 15 15 15 16 16 13 12 10 10 11 10 9
7 7 8 8 9 8 6 5 5 5 5 4 4 5 5 4 5 5 6 5 6 6 6 6 7 7 7 8 8 9 10 12 14 15 14 13 11 12 14 15 15 15 14 14 17 15 12 10 10 10 10 10 8 8
6 6 7 6 6 6 5 4 4 4 4 4 5 5 5 6 6 6 5 5 5 6 6 6 6 7 8 10 12 12 13 13 11 11 10 11 12 14 14 14 13 13 15 16 13 11 10 10 10 10 9 8 8 7

GFSWCAN_250_rhum_108.txt.gz
RH
100 100 100 100 100 100 100 100 100 100 100 79 100 100 100 72 98 100 42 100 99 74 68 42 85 92 96 90 81 83 89 79 65 60 65 81 65 76 66 64 72 76 72 77 69 74 76 86 92 87 78 70 70 76
100 100 100 100 100 100 100 100 100 100 100 100 94 100 100 98 64 100 97 100 87 62 87 97 48 70 84 100 99 77 81 80 86 79 74 85 87 69 86 84 82 70 73 65 60 56 57 65 66 78 76 73 70 64
100 99 91 100 100 100 100 100 96 88 100 100 100 74 100 100 99 76 100 100 99 86 68 100 92 100 91 90 96 82 79 87 85 95 90 87 91 76 79 100 88 91 65 73 63 57 53 61 67 72 80 82 69 72
86 100 98 82 89 98 100 100 100 100 91 100 97 100 100 100 100 79 100 90 100 100 96 70 74 100 100 90 86 81 100 84 75 90 80 77 70 69 72 92 90 97 95 78 92 77 62 58 51 51 56 66 81 80
100 94 99 97 96 83 81 75 91 88 100 97 98 100 100 100 100 100 100 98 95 100 100 92 65 100 100 76 99 94 83 87 97 100 88 85 61 69 55 48 72 86 96 73 90 91 72 77 66 54 49 58 80 82
65 92 87 98 100 100 100 100 84 72 58 100 100 91 81 100 100 100 100 100 100 100 100 100 94 100 100 100 100 95 100 100 96 84 100 100 81 85 96 75 80 90 100 92 71 65 95 85 80 64 51 59 73 74
41 52 98 99 99 100 100 100 100 98 79 71 82 100 98 69 76 97 97 100 100 100 100 100 100 99 100 95 100 98 100 100 100 98 97 100 100 100 100 98 91 94 100 98 95 81 86 94 68 71 78 67 68 68
66 75 64 60 69 72 68 99 100 100 95 81 71 78 98 100 94 70 68 87 97 100 100 100 100 100 100 100 100 100 100 100 78 91 93 85 100 100 100 100 100 94 92 80 83 80 71 76 68 70 87 64 58 59
87 100 100 98 55 52 65 61 89 100 100 100 97 76 80 81 93 100 94 83 87 91 85 100 100 100 100 100 100 100 100 100 100 100 94 99 100 100 88 100 100 100 95 76 87 92 99 86 70 70 77 74 56 75
89 56 90 100 100 86 78 98 100 100 100 100 100 100 69 58 84 83 92 81 52 69 73 100 100 100 100 100 100 100 100 100 100 100 100 99 100 100 100 92 98 100 100 100 100 88 80 67 61 88 74 70 71 86
100 100 77 67 100 100 100 92 100 98 100 100 77 58 69 66 53 68 59 58 69 58 59 71 98 100 100 100 100 91 92 99 100 100 100 100 100 100 100 100 100 100 100 100 100 93 88 89 71 80 88 88 89 96
91 100 100 91 86 77 77 98 83 94 86 87 100 100 100 94 68 56 56 49 58 64 64 71 87 89 100 89 77 90 85 74 79 94 100 100 100 100 96 100 100 100 100 100 100 100 98 96 88 84 87 88 76 84
100 100 100 100 100 100 100 100 90 100 91 73 72 77 100 100 100 98 91 78 76 61 49 47 56 75 77 68 84 84 73 67 69 71 79 100 100 99 100 99 100 100 100 100 94 94 99 100 96 99 94 92 83 98
74 84 84 95 72 87 99 95 100 100 99 86 79 66 76 76 90 99 99 95 94 90 68 60 55 45 46 62 65 56 60 55 46 49 70 82 64 66 77 92 100 100 100 97 97 83 81 91 96 97 98 94 89 100
28 31 35 38 35 44 56 84 84 72 83 73 74 60 69 75 79 83 73 74 76 81 75 77 59 54 51 43 49 54 47 42 57 64 67 60 47 36 37 49 58 78 91 81 74 72 68 70 71 82 92 90 97 100
27 27 22 19 20 22 27 34 34 32 23 31 29 28 28 43 57 54 53 63 56 76 57 44 45 43 44 44 36 38 46 60 88 94 76 62 45 34 33 30 29 34 42 60 61 60 61 61 66 88 88 92 100 100
10 10 12 13 14 14 16 20 18 18 16 13 12 15 16 16 26 31 34 32 45 41 30 26 30 37 32 38 40 34 41 56 74 74 75 69 48 43 44 45 47 50 57 62 76 52 59 79 80 86 98 95 97 98
7 7 7 8 9 9 8 8 9 8 8 8 10 11 12 12 13 18 24 26 26 24 20 16 16 16 17 19 35 47 47 53 55 60 58 47 42 40 44 48 49 53 71 76 80 91 89 93 85 84 83 94 96 97
7 7 6 7 6 6 6 6 5 5 6 6 6 7 8 9 10 11 12 11 9 10 12 12 11 11 16 31 40 37 34 41 50 42 49 57 45 38 38 42 46 54 62 75 95 100 97 100 99 94 85 93 95 99
8 8 8 9 6 5 5 5 5 4 4 5 5 5 5 5 6 6 6 6 7 7 7 7 10 13 18 22 24 26 29 31 31 34 24 23 32 41 50 42 32 39 70 93 86 94 100 100 100 100 97 87 97 100
8 9 9 8 8 6 6 6 5 5 5 5 6 5 5 5 6 6 5 5 4 5 6 8 9 10 15 15 15 16 13 14 16 16 15 16 33 28 18 18 21 36 56 58 64 64 60 79 93 88 75 95 100 100
8 8 8 8 8 7 6 7 7 8 6 7 7 7 7 7 7 7 6 4 4 5 6 6 6 7 8 7 8 8 8 9 11 10 11 11 14 15 13 14 15 24 32 34 44 47 42 57 52 57 92 100 100 86
7 7 7 7 6 6 7 7 7 8 7 8 8 8 8 9 8 6 4 4 5 6 6 6 6 6 6 7 7 8 9 10 8 8 8 9 10 11 13 15 16 19 24 23 21 26 32 41 70 95 100 99 60 41
6 6 5 5 5 5 6 7 7 7 8 8 8 10 10 9 7 5 5 7 8 6 6 6 5 4 4 5 6 6 8 6 6 8 8 8 9 11 12 12 14 15 16 18 23 29 47 66 95 100 92 46 34 26
4 4 4 5 6 6 7 8 7 7 8 8 10 10 9 9 7 6 8 14 12 8 5 4 4 4 4 5 6 6 5 5 6 7 9 9 10 11 12 13 13 16 20 21 22 27 70 99 90 45 32 23 18 38
4 5 7 6 6 5 5 6 7 8 9 10 9 9 9 6 5 9 15 17 12 5 4 4 4 4 4 5 4 4 4 4 5 7 8 7 9 11 12 12 14 18 17 20 32 36 34 28 30 27 17 19 35 33
6 7 6 5 5 5 6 8 8 8 10 10 9 8 6 6 9 15 16 12 7 6 6 4 4 4 4 4 4 4 5 5 5 7 7 7 8 8 10 12 13 16 17 16 15 18 20 18 18 15 22 28 25 20
5 5 6 6 6 7 7 8 9 9 10 10 8 8 8 9 14 15 10 8 8 8 6 5 4 4 4 4 4 4 5 5 6 6 7 8 9 10 11 12 13 12 11 12 13 15 16 18 18 24 24 20 17 16
6 8 10 10 9 8 10 11 11 11 10 8 7 6 7 8 10 10 8 8 8 8 6 4 4 4 4 4 4 4 5 5 6 6 6 7 8 10 10 10 9 10 11 13 14 18 17 17 18 19 17 14 16 15
9 7 8 9 8 9 10 10 10 8 6 5 5 6 8 10 9 7 7 8 8 6 5 5 4 4 4 4 4 4 4 5 6 6 6 7 8 8 8 9 10 12 13 15 17 17 16 14 16 16 13 15 15 12
5 6 6 7 8 9 8 8 6 5 4 4 4 5 7 6 6 7 8 8 7 6 6 6 5 5 5 5 5 5 5 6 6 6 7 7 8 8 9 10 10 12 14 14 13 12 14 16 14 14 15 13 11 10
5 6 5 5 6 5 5 5 5 5 5 5 5 6 7 7 8 8 9 6 7 7 6 4 5 4 4 5 5 6 6 6 7 7 7 8 9 8 9 10 11 11 11 11 12 14 12 12 14 13 12 11 10 10
4 4 4 4 4 4 4 4 4 4 4 5 6 6 6 8 12 14 8 7 6 4 4 4 5 4 5 6 6 6 7 7 7 8 8 8 8 8 9 9 10 10 12 11 11 12 13 13 12 10 9 8 9 10

GFSWCAN_250_rhum_111.txt.gz
RH
100 100 93 98 100 100 100 100 100 100 100 100 97 94 95 91 90 87 100 100 100 95 86 62 89 40 100 100 81 92 81 87 67 72 62 50 39 51 51 53 57 66 61 57 55 52 47 51 64 42 44 44 41 42
91 97 78 100 100 100 100 100 100 100 100 95 100 100 98 100 100 63 99 88 98 100 100 99 90 80 47 100 100 80 100 81 82 72 80 88 81 73 50 62 61 53 54 54 60 55 57 50 53 51 40 39 38 37
98 98 100 99 98 100 100 100 100 100 100 100 100 99 98 97 100 100 97 100 96 89 86 100 100 100 84 52 100 100 82 99 100 94 93 79 68 97 95 63 70 86 73 62 67 68 56 59 48 50 46 48 40 41
96 82 84 100 100 100 100 100 100 100 100 100 100 100 100 94 90 99 100 100 100 100 100 77 79 100 100 92 69 100 100 100 100 81 100 99 82 49 48 78 86 89 82 86 88 89 82 62 66 68 72 66 63 57
100 100 88 79 98 100 100 100 100 100 100 100 100 100 100 100 100 93 83 100 100 100 100 100 100 100 100 100 100 85 100 100 100 100 97 100 100 96 85 82 82 87 75 85 90 99 93 85 80 93 90 92 85 79
70 100 100 100 98 82 100 100 100 100 100 100 97 100 100 100 100 100 87 86 81 89 100 100 100 100 98 100 100 74 100 100 100 100 100 100 100 100 100 100 100 100 80 74 91 90 97 100 100 100 100 98 90 88
100 92 75 100 100 100 63 91 100 100 100 100 100 84 93 88 96 100 100 90 78 75 72 84 100 100 99 100 100 100 74 98 100 99 100 99 100 100 100 100 100 100 100 100 100 91 94 100 100 100 100 100 100 100
84 98 95 97 91 78 50 47 100 96 96 86 75 91 84 79 85 84 96 100 98 91 73 64 81 94 85 91 89 95 100 98 95 98 100 100 100 100 100 100 100 100 100 99 100 100 100 100 100 100 100 100 100 100
100 77 73 81 70 56 52 48 66 98 90 56 56 78 78 76 78 88 74 72 72 82 71 63 84 100 92 93 80 74 83 83 85 100 98 96 100 100 100 100 93 95 99 99 100 100 100 100 100 100 100 100 100 100
84 100 92 73 59 45 45 48 64 66 62 78 83 61 56 71 65 64 86 73 58 67 71 65 78 71 66 58 58 63 73 78 79 82 94 100 100 100 100 100 100 100 95 90 81 89 94 95 92 96 100 100 99 99
98 100 100 100 100 100 100 100 100 100 97 75 81 79 78 97 100 85 91 78 63 61 73 100 70 63 59 46 50 50 45 38 45 64 77 74 98 100 100 100 99 98 97 94 88 80 73 66 64 55 50 55 63 81
71 87 100 100 88 73 72 100 100 100 100 100 96 69 89 99 78 76 98 100 100 98 100 98 99 71 80 78 48 45 47 54 58 43 44 59 71 76 82 83 82 91 92 86 80 76 68 65 60 68 68 61 67 80
71 62 65 67 80 87 85 77 66 85 92 71 96 83 72 97 86 100 100 100 100 100 99 100 87 78 84 100 92 57 34 30 44 42 47 60 46 43 46 50 55 60 62 63 60 58 59 64 66 68 70 67 61 64
86 94 90 69 66 59 63 72 73 90 99 100 73 55 59 86 100 100 100 100 100 100 100 100 100 100 99 89 93 100 88 55 33 31 62 59 79 62 41 29 30 34 36 39 41 46 51 51 54 58 56 66 72 73
91 86 69 63 68 79 59 57 51 61 75 83 72 62 64 93 87 90 90 100 96 88 87 86 87 96 100 90 75 54 49 45 55 74 65 48 43 45 46 34 35 30 29 32 36 43 50 58 56 57 61 68 80 86
65 66 51 54 76 69 77 65 53 56 46 40 46 52 49 52 90 84 96 92 100 100 75 70 51 34 28 31 28 30 32 36 47 54 44 36 39 34 31 30 39 33 34 38 47 55 59 58 57 57 68 71 79 100
36 37 48 49 46 48 47 46 35 28 30 26 33 38 33 35 48 44 41 31 47 40 19 26 22 16 16 15 16 17 19 32 39 41 31 28 27 23 21 31 32 26 34 41 50 62 61 62 67 66 75 55 85 97
16 21 38 34 24 24 24 25 21 15 13 16 15 22 18 22 20 22 25 21 19 14 13 15 13 10 9 12 14 22 23 20 24 22 19 19 17 19 19 22 21 20 27 38 40 36 40 52 58 74 50 43 95 93
9 9 9 9 9 10 9 9 9 8 7 8 10 11 12 16 17 12 9 8 8 8 9 9 7 7 9 10 10 11 11 11 11 11 8 10 12 13 11 13 14 18 24 25 29 35 41 56 62 40 50 73 85 61
7 8 8 8 8 7 6 6 5 5 6 7 7 8 6 7 8 8 8 7 6 6 6 6 6 6 7 7 6 6 8 8 7 7 6 6 7 9 11 12 12 14 17 20 24 22 22 25 24 27 47 45 31 54
7 7 7 7 6 6 5 4 5 6 6 7 8 6 6 7 7 8 7 7 5 5 5 7 7 6 5 6 6 5 5 5 5 5 6 7 9 8 8 9 10 12 14 16 15 15 16 17 22 28 25 27 32 36
8 8 7 7 6 5 4 4 6 7 6 8 8 8 8 8 9 9 8 6 6 7 9 9 6 6 6 5 5 5 5 5 5 5 4 4 5 6 7 8 9 9 10 12 12 11 12 15 17 19 23 28 27 36
7 7 7 6 6 5 6 6 6 8 8 8 7 6 8 8 10 11 8 8 10 13 12 8 9 7 5 5 6 7 6 4 4 4 4 4 4 5 6 6 8 8 8 9 10 12 14 14 14 16 20 24 21 24
7 7 6 5 5 5 5 6 7 6 7 7 7 7 9 10 10 9 8 11 14 15 10 9 6 5 6 7 8 5 5 3 4 4 4 4 5 5 5 6 6 8 8 8 9 10 11 12 13 15 17 18 20 28
5 5 5 6 6 7 7 7 6 6 7 6 6 7 8 9 8 7 9 13 17 16 8 6 6 7 8 7 5 5 4 3 4 4 4 4 4 5 5 5 6 6 7 8 8 10 12 13 13 14 17 19 21 19
4 5 5 6 7 7 7 6 6 6 6 6 6 8 8 8 7 8 13 17 13 9 7 6 6 7 7 6 5 5 4 4 4 4 4 4 4 5 5 5 6 8 8 8 9 10 11 12 13 14 16 17 15 15
3 4 5 6 7 6 6 6 7 7 8 9 8 8 8 7 8 13 14 11 10 8 5 5 7 8 7 6 6 5 4 4 4 4 4 4 4 4 5 6 6 7 8 9 10 11 11 11 12 14 14 14 12 10
5 6 7 7 6 6 7 8 8 8 9 8 8 7 7 8 11 12 8 6 6 6 7 7 6 7 7 7 6 5 5 4 4 4 4 4 4 4 5 6 7 7 8 8 8 9 10 11 12 12 12 9 9 10
7 8 7 5 5 5 6 7 8 8 8 6 6 5 5 7 8 7 6 5 7 8 7 6 6 8 8 7 6 6 5 5 4 4 4 4 4 5 6 6 7 8 8 8 9 10 11 11 11 9 8 9 10 12
7 5 4 3 3 4 5 5 5 5 5 5 5 6 6 7 6 5 5 6 7 8 7 7 7 7 7 7 6 6 5 5 5 5 5 5 5 6 6 7 7 7 8 9 11 12 11 10 8 8 9 11 14 15
4 3 4 4 4 4 3 4 4 4 4 4 5 6 6 5 5 6 6 6 6 6 7 8 6 7 7 7 6 6 5 5 5 5 5 6 6 6 6 6 7 8 8 9 8 7 7 7 8 9 11 12 13 12
2 3 3 4 3 3 3 3 4 4 4 5 6 6 6 6 6 5 5 5 6 7 8 6 6 6 6 7 7 6 6 6 6 6 6 6 6 6 6 6 6 7 7 6 7 7 7 8 10 11 13 11 10 10
4 3 4 4 4 3 3 3 3 4 5 6 6 6 6 7 10 8 6 7 7 6 6 7 8 8 8 8 7 6 6 6 6 6 6 6 6 6 6 6 6 6 7 7 7 8 9 10 11 12 10 9 10 10

GFSWCAN_250_rhum_114.txt.gz
RH
82 81 81 100 100 100 97 74 84 100 100 100 100 100 100 100 100 100 97 91 82 82 78 54 96 100 100 67 67 99 100 80 98 100 62 93 100 84 92 68 69 76 91 95 94 78 71 72 65 69 74 81 86 74
100 98 96 65 63 71 92 93 99 100 100 100 100 100 100 100 100 100 100 100 100 100 100 97 88 73 69 100 99 65 99 100 100 100 100 61 100 100 100 100 93 50 95 100 99 93 93 86 92 96 91 80 82 86
100 96 93 100 98 66 81 100 98 77 100 100 100 100 100 100 100 100 100 100 100 100 100 100 100 100 93 66 64 74 69 90 100 100 100 100 96 100 100 100 100 100 97 99 100 99 100 100 100 100 100 100 100 94
72 58 30 65 100 86 71 99 100 100 84 94 100 100 100 100 100 100 98 96 99 90 73 78 94 100 100 100 100 100 99 100 100 99 73 97 100 100 63 100 100 68 100 100 100 100 100 100 100 100 100 100 100 100
94 94 55 52 67 81 56 67 87 100 100 89 78 98 100 100 100 100 100 100 100 100 84 66 85 64 66 90 100 100 100 100 100 100 99 100 100 100 99 84 83 74 89 84 95 100 100 97 98 88 92 96 87 99
100 100 100 100 91 79 52 90 88 59 80 100 85 81 97 100 100 100 100 100 100 100 100 100 81 68 68 68 68 76 72 78 84 100 100 100 100 100 100 100 100 100 100 100 100 100 100 100 100 98 95 88 91 98
100 100 100 100 100 87 67 47 79 100 100 99 100 100 97 100 96 94 96 100 100 100 93 99 100 100 91 85 61 49 58 54 54 60 64 71 75 97 100 100 100 100 100 100 100 100 100 100 99 100 100 100 95 89
80 100 100 100 93 100 100 98 88 79 82 95 87 98 92 73 86 100 77 80 96 100 100 91 84 100 96 99 95 81 67 61 61 54 56 58 51 54 57 62 66 85 100 100 100 100 100 100 100 100 100 91 100 100
100 100 100 100 100 100 100 100 100 100 100 93 82 67 82 70 64 64 70 49 67 92 94 94 100 100 100 100 100 98 95 84 68 65 68 69 69 77 61 66 76 61 52 58 68 78 88 93 94 96 94 87 78 78
98 100 100 74 69 84 100 100 100 77 100 100 100 86 84 70 56 48 70 57 44 35 87 86 78 84 79 70 78 99 100 100 100 100 70 64 86 100 97 64 61 67 71 58 41 46 56 62 65 61 54 54 50 46
79 91 100 100 100 100 100 96 100 100 100 100 100 98 100 100 89 78 74 65 50 53 54 66 67 76 84 73 60 58 57 59 67 87 84 68 76 100 82 53 50 53 50 48 61 60 49 42 38 41 42 43 48 47
75 88 98 96 100 100 100 100 100 100 100 87 100 100 100 100 87 92 100 100 100 90 100 100 94 72 70 64 75 78 52 48 74 82 76 66 96 100 75 74 77 86 64 60 51 43 43 41 44 41 49 68 71 81
91 86 75 58 100 97 85 88 97 100 100 100 100 94 85 80 77 69 84 99 96 76 63 66 73 77 82 77 50 42 34 29 32 40 51 94 100 71 76 92 89 85 76 78 66 56 52 52 54 58 44 57 75 62
96 92 100 92 80 80 72 91 98 92 88 94 74 74 96 98 95 92 86 67 77 87 82 80 67 60 76 82 84 73 64 52 44 56 82 100 93 100 100 100 100 100 94 68 52 54 52 42 39 48 50 44 47 48
100 100 91 92 93 92 82 72 77 70 66 66 72 79 81 82 92 100 94 92 81 80 70 55 60 65 62 70 65 56 67 50 62 91 98 89 78 96 96 82 54 26 23 35 28 32 31 32 32 32 38 35 39 52
100 83 90 100 100 100 99 100 100 100 74 78 76 77 91 90 80 78 92 88 97 85 66 66 62 63 64 62 53 52 30 37 76 77 68 65 49 47 33 20 13 16 12 14 16 21 19 19 22 26 29 36 44 47
34 28 75 77 84 88 95 100 93 90 89 60 61 82 99 99 100 99 100 100 75 61 76 51 42 42 36 25 27 36 46 53 61 45 26 23 21 11 8 13 14 12 13 14 17 17 14 14 17 20 23 36 37 40
16 22 28 31 30 23 63 57 38 33 28 32 49 97 75 76 87 92 72 67 38 36 40 28 20 17 18 22 26 28 26 19 16 15 12 10 9 9 9 8 7 7 8 9 10 11 12 14 16 18 22 28 24 27
11 12 12 12 14 16 17 17 14 14 15 19 27 44 32 40 56 50 26 17 19 20 17 13 10 10 13 14 11 10 10 10 10 8 8 7 6 7 7 6 6 6 6 7 8 9 8 8 9 11 14 14 17 26
10 9 9 10 10 11 10 9 8 8 9 11 11 13 11 10 11 10 11 12 13 10 7 7 7 10 10 9 8 7 6 6 5 6 6 6 6 6 5 5 5 5 5 5 6 7 7 7 9 10 11 13 15 18
10 9 9 8 7 7 6 6 6 6 7 7 7 7 7 7 7 8 8 8 7 6 6 8 10 10 10 8 7 6 5 5 5 6 5 6 6 5 4 4 4 5 5 5 5 6 7 8 8 8 10 12 13 12
10 11 10 10 8 7 6 5 6 5 5 6 7 8 6 6 7 7 6 5 6 9 9 10 11 11 9 5 5 5 4 6 6 6 6 6 5 7 6 5 5 4 4 4 5 6 6 6 7 8 9 9 10 11
9 9 10 9 8 7 6 7 6 6 6 9 10 7 8 9 8 8 6 6 7 10 11 9 10 8 5 5 4 6 8 8 7 7 9 6 6 7 8 6 5 5 5 5 4 5 5 6 7 7 8 9 10 11
8 8 7 7 6 6 7 7 7 7 8 10 10 8 8 8 8 7 7 8 10 11 10 9 7 5 5 6 8 9 10 7 6 9 8 6 7 8 6 6 5 4 4 5 5 5 5 6 7 7 8 9 10 11
5 5 5 5 5 6 7 7 8 8 9 8 6 6 7 6 7 7 8 11 9 8 8 7 6 6 7 8 8 8 8 8 8 8 7 7 8 8 6 5 5 5 4 5 5 5 5 5 6 6 8 9 9 10
3 3 3 4 5 5 6 7 8 8 7 7 7 8 7 5 6 9 11 9 8 8 7 5 5 5 6 7 7 7 9 8 8 8 8 9 8 7 6 5 5 4 5 5 5 5 5 5 6 6 7 8 9 9
2 3 4 4 5 6 6 7 7 6 7 8 7 5 4 6 8 10 7 7 6 5 4 4 4 4 5 5 7 8 9 8 8 9 10 9 7 6 5 5 4 4 4 4 5 5 5 6 7 8 8 8 8 9
3 5 6 7 5 6 5 5 5 5 5 5 4 4 5 6 8 6 4 4 5 5 5 4 5 5 7 9 10 10 7 7 8 9 9 8 7 6 6 5 5 5 4 5 5 5 6 7 6 6 8 9 9 9
4 5 4 5 4 3 4 4 4 4 3 3 4 4 5 6 6 5 5 4 4 5 5 6 6 7 8 8 8 8 8 8 8 8 9 9 8 7 7 5 5 5 5 5 5 5 6 6 7 8 8 8 9 9
5 4 3 3 3 3 4 3 3 3 2 3 4 4 5 6 5 4 5 5 6 6 6 6 6 6 7 6 7 7 7 8 9 9 9 10 9 7 5 5 5 5 5 5 5 6 6 7 7 7 8 9 9 9
3 3 3 3 3 3 2 2 2 3 3 4 4 5 7 6 6 7 7 6 6 6 7 7 5 5 6 6 6 6 8 10 11 11 10 9 8 7 6 5 5 5 5 5 6 6 6 6 7 8 8 8 8 9
4 4 4 4 4 3 3 3 3 3 3 3 4 5 6 6 6 6 6 6 7 8 8 6 6 6 6 8 9 9 9 10 11 10 10 8 6 5 5 5 4 5 5 6 6 6 6 6 7 7 8 8 10 11
6 9 11 12 9 6 5 5 5 6 6 7 7 7 8 10 8 6 7 6 5 4 4 5 7 8 9 10 9 9 9 9 10 10 8 7 6 5 5 5 5 6 6 6 6 6 7 8 8 8 9 10 11 12

GFSWCAN_250_rhum_117.txt.gz
RH
100 100 100 100 100 100 91 88 87 100 100 100 100 100 100 76 100 98 99 100 100 100 100 100 100 100 100 99 100 100 94 76 64 56 41 76 100 68 44 62 66 57 100 100 87 76 98 73 88 96 91 85 85 76
100 100 100 100 100 100 100 100 100 88 82 78 74 78 100 100 100 100 100 100 100 100 100 100 100 100 100 100 100 100 96 84 100 87 100 100 99 97 87 70 91 82 83 83 80 73 95 100 99 100 100 100 100 99
47 80 96 90 98 100 100 98 95 100 96 90 86 80 76 99 100 100 100 99 100 100 100 100 84 78 88 82 78 86 94 100 100 100 100 100 100 100 100 100 100 100 100 100 100 100 100 100 100 100 100 100 100 100
50 77 90 63 56 100 100 100 88 99 100 100 91 97 96 88 85 100 95 97 87 86 92 100 98 98 98 82 76 69 53 50 52 72 94 92 85 90 100 100 100 100 100 100 100 100 100 100 100 100 100 100 100 100
86 95 100 90 83 100 95 100 100 95 100 100 87 80 100 77 77 75 62 92 100 100 100 100 100 100 99 100 98 83 70 64 50 50 49 54 60 64 62 78 68 71 74 74 81 82 79 74 73 72 71 75 87 93
100 99 100 98 93 87 100 100 100 100 100 100 100 96 100 100 85 100 100 87 89 98 100 100 100 100 100 100 100 100 100 100 91 80 62 56 57 60 71 99 76 87 84 71 59 48 43 41 43 42 44 46 56 68
99 93 100 100 100 92 85 100 100 100 100 100 100 100 100 76 96 93 99 100 100 90 100 92 90 99 100 100 100 100 100 100 100 100 100 100 100 85 80 100 73 75 65 57 54 52 52 44 44 49 51 50 69 77
91 100 100 90 100 97 97 70 98 100 100 100 100 100 100 99 100 100 100 76 78 91 100 87 82 98 96 85 72 73 71 74 86 94 89 93 99 100 100 96 87 78 72 68 60 70 90 84 68 65 58 61 56 68
100 98 100 99 100 100 100 90 87 100 74 100 100 100 100 100 100 100 100 100 100 100 100 100 99 94 94 94 90 72 64 74 73 62 69 86 86 99 100 100 84 74 76 76 70 65 77 85 98 80 57 70 74 76
100 78 81 98 100 100 84 100 79 100 93 83 100 100 100 100 100 100 100 100 100 100 100 100 100 100 100 90 78 68 81 55 47 55 54 76 95 100 100 100 100 97 100 100 100 98 72 61 53 54 55 58 66 82
97 85 100 100 97 100 86 100 93 95 98 85 86 100 100 100 100 100 96 84 88 99 100 100 99 85 82 66 59 59 52 52 50 67 70 77 75 75 80 72 72 68 82 91 96 86 60 45 44 50 59 59 62 68
52 85 81 100 100 100 100 100 100 79 100 96 69 77 100 100 100 100 100 100 92 100 100 100 100 100 100 92 86 85 78 65 58 50 61 79 71 69 70 67 56 51 49 45 31 27 29 28 24 35 49 55 60 66
40 41 46 50 100 100 100 100 100 100 88 100 89 63 75 95 91 98 100 100 100 100 100 100 100 95 79 65 63 58 48 52 63 58 59 70 84 90 77 69 75 66 44 34 35 29 39 43 39 42 47 48 45 44
59 55 30 29 55 92 100 100 100 100 100 83 86 91 76 76 85 93 100 100 99 100 99 100 100 100 100 96 84 80 66 62 62 88 98 100 99 98 97 92 58 54 52 43 43 46 60 52 36 32 39 40 38 41
33 30 28 26 30 48 92 87 80 74 76 100 98 90 98 98 88 89 94 90 94 96 92 78 82 96 92 87 87 72 62 67 89 100 100 100 99 91 55 49 39 36 41 44 40 30 33 34 22 22 22 30 24 17
23 21 22 24 24 27 28 25 31 61 62 68 69 85 100 90 100 98 99 89 79 70 67 67 67 75 74 79 81 75 86 100 100 100 100 99 63 37 30 33 24 23 20 17 17 19 12 11 10 10 10 12 12 10
19 18 23 23 26 30 25 23 24 23 24 20 33 53 64 54 71 80 92 99 78 80 80 77 75 68 44 43 67 100 100 100 100 100 71 36 25 21 20 15 14 15 14 12 9 9 10 8 8 7 8 8 8 8
14 17 19 19 20 20 19 18 18 18 16 16 17 24 17 18 23 33 30 32 25 40 53 56 53 53 57 66 87 98 82 58 34 22 17 12 12 13 12 11 9 9 9 8 7 8 8 6 6 6 6 6 6 6
11 12 12 12 13 14 13 12 11 11 12 13 14 15 14 13 13 15 14 15 18 19 21 35 30 26 38 33 26 18 18 18 15 14 9 9 9 11 9 8 7 6 6 6 6 6 6 6 6 6 5 5 5 6
12 12 12 13 11 10 10 8 7 6 7 9 9 10 9 8 9 9 9 11 10 10 12 12 12 14 14 14 13 10 9 8 6 6 7 8 8 8 8 8 7 6 6 6 6 6 6 6 5 5 5 5 5 6
12 14 14 14 14 12 10 8 7 7 6 6 8 8 8 7 7 8 10 11 10 10 9 10 9 10 10 8 8 6 6 6 6 6 6 6 9 8 10 8 6 6 6 6 5 6 6 5 5 5 5 5 5 6
14 14 13 13 12 12 10 8 8 7 6 7 9 8 7 9 12 12 10 8 8 9 8 8 8 6 6 6 5 6 5 6 5 5 6 6 7 10 11 8 7 7 6 6 6 7 7 6 6 6 6 5 5 5
12 12 12 12 11 10 9 9 8 7 7 8 10 10 12 14 15 12 8 8 9 12 10 7 8 7 5 6 5 5 6 6 5 5 6 6 7 8 9 11 10 9 8 8 7 8 8 7 6 5 5 4 5 5
9 9 9 8 8 8 7 7 8 8 9 10 11 13 12 10 9 7 7 10 12 10 8 6 6 7 6 5 6 6 7 5 4 6 6 6 8 8 8 10 10 9 9 9 9 8 7 6 5 4 4 4 5 5
8 8 8 7 7 7 8 8 8 8 8 10 10 9 8 8 7 7 10 12 8 6 6 6 5 4 4 6 5 6 6 5 4 5 7 7 9 10 10 10 10 10 10 9 8 8 6 5 4 4 4 5 5 5
4 4 4 4 4 4 5 6 6 8 9 8 7 6 6 5 7 11 11 7 5 4 4 4 4 4 5 5 5 5 5 6 6 9 9 8 9 10 10 10 11 10 8 8 8 6 5 4 4 4 4 5 5 5
4 4 4 4 4 4 5 6 8 6 4 4 4 4 4 4 6 8 5 4 4 5 5 5 5 5 5 6 6 6 7 8 8 9 9 9 9 10 11 12 11 8 8 7 7 6 5 4 4 4 4 4 5 5
3 3 4 4 4 4 4 4 4 3 3 4 3 3 3 4 6 4 4 4 4 5 5 5 6 5 5 5 6 7 7 7 7 8 8 8 10 10 10 11 9 8 7 7 7 6 6 5 5 4 4 5 5 6
3 4 4 4 4 4 3 4 4 4 4 3 3 3 4 5 5 4 3 3 4 6 6 5 6 5 6 7 7 7 6 5 5 7 8 10 10 9 10 10 9 7 7 8 8 6 6 5 5 5 5 6 6 7
3 3 3 3 3 3 3 3 4 3 2 2 3 6 6 3 3 4 5 4 4 5 5 5 5 5 6 6 6 6 5 6 8 10 11 11 9 8 9 9 8 8 8 7 6 5 5 5 5 6 6 6 7 7
2 3 3 4 4 4 4 3 3 2 3 4 4 6 4 2 3 3 3 3 4 5 5 4 3 4 5 4 5 7 9 10 11 12 10 8 8 8 8 8 8 9 8 7 6 5 5 5 6 6 6 6 7 9
3 3 4 5 5 5 5 4 4 5 6 6 6 7 6 5 4 2 3 3 4 4 4 4 5 5 6 6 7 9 9 10 11 10 9 8 8 8 8 8 8 7 6 6 6 6 6 6 6 6 7 7 8 8
3 3 3 4 4 4 4 5 5 5 5 7 8 10 8 6 4 2 3 4 3 4 5 5 5 6 8 9 9 9 8 9 10 9 8 8 7 8 9 8 7 6 6 6 6 6 6 6 6 7 7 8 8 8